GFSGBSN_500_spd_000.txt.gz
Wind_Speed
34 33 36 37 37 37 34 33 32 32 32 30 29 29 29 30 29 28 29 31 30 32 34 37 38 39 37 37 35 42 46 42 43 45 46 49 50 50 49 49 49 47 45 45 42 41 45
41 37 37 39 40 39 38 37 36 36 34 33 32 31 31 31 29 29 30 30 32 32 36 38 39 40 39 37 37 41 41 42 43 45 47 48 49 50 50 51 53 50 49 47 45 43 45
48 44 41 40 42 44 43 39 38 38 37 35 35 33 34 31 32 30 31 30 33 32 36 39 41 40 40 36 38 43 46 45 48 47 47 49 52 55 55 55 56 55 53 51 47 48 45
47 50 47 45 43 44 46 46 44 42 40 36 36 37 36 34 34 32 33 30 34 31 36 38 39 41 42 42 45 46 48 51 51 51 53 55 57 59 59 59 57 57 51 50 44 50 48
37 42 48 50 49 48 47 47 48 47 45 43 38 40 37 37 35 35 34 33 33 31 36 41 40 40 42 42 45 50 49 49 51 52 52 55 58 58 56 56 57 59 55 51 49 49 50
46 46 45 46 47 51 52 49 49 48 49 46 43 40 40 39 38 36 36 36 35 33 35 39 40 42 42 44 46 46 49 51 51 53 54 55 55 56 56 57 60 57 59 52 50 47 49
53 53 54 53 50 49 51 55 53 50 49 49 48 41 41 41 40 37 37 37 37 36 38 40 43 43 46 45 44 47 50 52 50 49 49 50 53 56 54 51 48 50 53 50 49 46 50
62 62 64 63 61 57 52 52 56 52 50 49 49 43 42 41 40 38 37 37 38 37 43 42 42 43 47 45 45 48 49 48 45 45 45 52 55 47 47 50 51 51 51 48 49 43 48
70 72 73 73 71 66 59 54 53 54 51 48 47 45 43 41 40 39 37 38 37 39 46 44 42 47 45 46 46 44 43 42 43 44 47 52 44 43 46 50 52 49 49 44 44 41 46
76 77 80 82 79 73 67 59 55 52 50 51 44 45 45 41 39 39 36 36 36 40 48 47 49 42 41 43 40 36 40 43 42 39 44 51 46 54 53 49 49 52 44 46 52 49 52
74 73 73 76 77 74 68 64 60 54 51 54 41 43 42 41 37 37 36 35 38 42 48 46 49 44 41 33 32 32 37 39 38 39 42 42 44 50 58 56 52 57 48 58 56 40 48
68 67 64 64 56 55 64 64 61 54 50 48 42 43 41 37 37 35 33 35 38 42 48 48 43 41 35 33 33 32 33 32 32 32 36 36 38 41 43 51 60 56 57 66 41 51 56
56 55 55 56 61 46 53 53 56 51 49 46 45 41 41 36 34 32 33 35 39 39 42 44 41 39 37 36 29 30 30 28 28 28 32 31 29 33 38 38 54 68 59 51 48 47 32
46 47 49 48 48 44 46 41 45 48 50 44 43 41 41 34 29 29 32 35 37 36 42 40 38 37 34 37 22 21 24 20 20 20 22 23 28 34 39 44 53 64 59 42 53 48 54
39 40 40 41 52 38 45 40 49 49 48 45 45 40 35 33 25 28 29 30 31 33 36 37 33 34 31 12 15 18 18 17 17 21 23 7 29 33 31 42 50 68 57 50 19 26 37
33 33 30 46 46 35 41 44 48 49 45 47 45 39 32 30 24 25 27 28 29 30 32 29 28 23 17 7 10 15 15 12 15 24 21 19 26 25 32 44 58 55 44 41 25 32 33
27 24 33 46 58 39 45 42 41 38 47 47 41 37 31 27 23 22 22 24 24 25 26 26 18 18 11 6 3 9 10 14 22 24 12 13 28 31 40 48 34 38 39 47 20 36 39
18 24 43 43 44 46 45 41 48 44 50 45 40 38 31 26 22 20 20 20 19 18 20 22 10 11 11 9 2 3 4 8 20 20 22 25 29 32 54 48 43 34 39 40 32 35 35
21 35 43 34 49 40 38 43 44 44 43 44 39 36 30 24 18 19 19 18 15 14 19 14 2 1 2 9 9 12 11 15 21 25 17 16 10 33 28 30 39 38 39 34 36 33 30
26 44 42 41 43 38 31 35 31 37 41 39 41 35 27 20 20 20 18 18 15 14 14 10 5 5 5 14 9 10 10 19 29 25 23 10 26 14 21 33 29 32 36 32 32 33 29
38 44 45 51 49 42 36 39 32 32 40 41 40 32 25 20 23 20 18 16 14 14 13 8 4 12 12 11 12 13 16 28 33 23 13 12 11 21 26 33 30 32 18 27 31 28 27
37 47 44 57 55 44 41 41 30 40 46 42 37 32 24 23 23 21 17 14 12 11 13 5 7 14 16 14 14 17 28 29 26 17 14 15 19 24 24 20 24 21 23 23 27 26 26
35 52 57 53 49 45 38 33 29 43 44 40 35 29 26 25 21 19 16 15 11 14 15 12 11 15 19 17 17 17 18 22 22 20 11 16 16 21 23 22 20 20 24 24 22 21 27
39 57 51 48 52 44 39 31 36 48 42 39 34 30 28 24 21 18 16 15 12 13 12 17 15 15 21 19 19 21 19 22 24 23 15 13 17 16 18 17 20 21 22 25 27 30 26
44 60 57 54 54 45 49 29 38 48 40 37 34 32 28 22 21 17 14 16 17 17 17 16 20 20 20 24 21 24 28 27 27 26 22 20 20 18 22 22 22 21 23 25 25 28 32
40 54 63 60 54 43 42 42 43 45 39 39 34 31 26 22 19 16 15 12 15 13 15 16 28 23 22 22 26 24 28 29 27 27 27 26 24 23 24 23 21 20 19 21 24 26 29
42 57 63 60 55 53 52 43 42 47 42 38 34 32 26 22 19 16 16 16 15 15 10 22 29 31 28 28 26 24 25 27 28 27 26 23 24 26 20 20 23 18 20 20 20 23 26
44 56 53 58 55 49 47 36 35 45 41 39 35 31 27 22 20 18 18 16 13 12 13 22 24 27 29 28 27 26 21 19 22 27 25 23 21 22 21 17 15 19 19 16 17 19 25
39 58 55 59 57 49 55 33 34 43 42 38 33 30 27 23 20 19 18 21 15 17 12 19 23 21 25 24 24 28 29 22 16 22 27 24 21 20 19 12 19 15 22 15 18 21 20

GFSGBSN_500_spd_003.txt.gz
Wind_Speed
31 39 38 34 30 32 35 36 34 34 33 34 32 30 30 31 31 32 33 33 31 30 28 29 29 29 29 31 34 38 34 33 34 38 39 39 41 44 45 45 46 43 42 41 37 38 38
31 31 44 43 37 34 36 38 39 38 36 35 36 34 34 33 32 32 33 33 32 31 31 29 31 31 31 31 35 39 39 35 35 36 37 38 39 43 45 45 47 46 46 44 42 40 40
38 33 33 44 48 42 38 39 41 41 42 39 36 37 36 35 33 32 32 33 33 32 31 32 31 35 29 33 35 39 42 38 38 38 37 40 43 44 46 47 47 47 49 46 43 44 42
44 42 37 35 40 49 46 42 42 42 43 43 41 38 37 35 35 33 33 33 34 34 32 33 31 34 29 34 36 39 42 41 42 43 42 43 44 44 45 46 45 46 48 49 46 47 45
49 48 47 43 38 38 45 48 47 45 44 45 44 43 41 39 37 34 33 34 36 35 35 34 34 35 31 32 35 40 43 44 46 45 46 47 47 46 46 48 49 51 53 53 50 48 49
47 50 49 49 48 46 44 43 47 48 48 46 46 46 46 43 41 39 35 34 37 37 37 36 36 37 34 33 36 40 41 43 47 46 44 44 46 46 48 52 53 53 54 55 52 47 51
54 53 53 55 56 56 52 50 49 47 49 50 48 46 46 46 45 43 39 35 38 39 38 37 37 35 36 33 38 39 40 42 45 46 47 48 49 52 49 45 45 45 47 49 50 47 49
56 58 59 61 62 61 61 59 56 53 50 49 52 49 47 46 46 43 41 37 39 39 40 38 36 36 36 37 38 43 46 45 46 47 51 54 53 46 43 44 47 47 48 49 49 47 51
63 64 64 65 67 68 68 69 66 60 56 51 48 51 49 47 45 43 43 37 39 42 43 40 36 39 37 40 43 42 43 44 48 52 52 53 49 42 46 45 46 48 50 46 47 44 46
71 70 68 68 68 69 71 67 70 66 59 55 51 49 49 47 42 41 42 39 39 42 45 44 41 32 37 42 43 41 43 45 46 42 43 48 44 46 46 47 46 48 41 41 42 43 45
72 73 68 63 63 61 63 57 58 57 57 57 52 48 49 45 46 41 42 38 36 43 46 44 42 42 42 43 44 41 39 39 40 40 44 42 43 40 45 40 42 39 38 40 42 42 43
67 65 61 57 53 53 58 61 43 46 41 54 52 48 47 44 45 41 39 35 37 43 44 45 44 41 43 42 41 38 38 36 36 37 41 41 41 42 39 40 43 43 37 42 42 47 49
61 57 52 48 43 46 51 54 52 42 44 42 49 47 45 46 44 42 38 35 39 37 40 43 41 39 42 38 34 35 35 33 34 35 39 39 36 36 38 40 43 52 45 44 43 47 54
58 48 40 37 35 37 46 47 46 46 34 39 42 45 44 43 43 40 36 36 37 35 38 38 37 37 37 32 30 28 22 22 23 28 33 32 30 35 37 40 42 46 50 47 52 56 44
50 39 31 27 26 29 33 41 47 39 42 39 36 44 41 40 41 38 36 35 30 33 34 33 33 33 27 28 25 17 15 20 25 22 22 22 19 24 26 30 38 47 56 44 43 40 41
44 31 20 16 20 23 32 47 44 39 39 40 41 40 40 40 39 35 33 28 28 31 29 27 28 26 22 23 19 14 15 11 14 18 20 23 22 17 15 27 34 47 48 53 40 35 54
38 20 11 10 19 27 43 34 37 42 38 39 37 38 40 40 39 35 28 28 25 26 24 23 24 22 23 19 11 4 2 6 8 13 22 23 13 13 20 24 34 40 53 56 58 19 30
32 15 15 20 24 29 48 29 40 36 34 45 44 40 39 40 39 30 28 25 22 20 20 20 19 21 18 9 16 8 4 5 8 10 10 13 9 15 11 29 36 23 36 61 57 24 17
28 13 12 21 33 30 37 45 37 30 40 39 37 38 38 40 34 27 27 23 16 17 16 14 15 15 15 7 8 6 7 10 9 12 12 13 18 9 18 21 32 39 46 59 40 26 29
26 14 11 29 38 35 53 36 35 36 34 38 44 39 38 41 30 31 27 19 14 17 13 9 11 6 7 3 6 3 8 8 6 11 13 12 15 8 23 29 34 28 32 35 29 10 31
24 14 18 39 43 48 45 37 34 31 38 34 34 42 35 32 33 33 26 16 16 16 13 7 8 7 5 1 3 4 5 14 18 14 13 11 16 18 31 21 28 23 29 35 20 28 26
16 12 40 37 46 44 42 38 36 37 31 39 36 36 36 34 33 32 21 14 15 17 14 7 12 11 10 8 6 12 17 14 10 4 8 11 32 27 18 22 22 17 17 14 22 20 20
12 25 35 42 57 45 35 35 39 43 39 37 34 36 36 36 31 26 18 19 17 18 18 11 15 11 14 13 16 19 17 16 13 1 8 14 25 18 16 14 7 12 8 14 25 25 21
11 35 44 50 50 39 43 41 36 34 37 36 32 33 34 34 30 21 19 17 16 18 19 18 19 15 16 18 15 18 20 21 19 8 9 15 16 16 22 16 15 14 14 18 22 21 20
12 39 50 55 49 44 42 37 35 35 34 33 37 40 37 33 27 24 18 16 16 20 14 14 20 22 19 18 18 18 19 23 23 17 8 12 14 13 14 14 13 13 14 18 20 21 24
9 36 47 58 56 51 42 37 35 39 32 26 41 41 36 30 25 20 18 16 16 14 16 16 21 28 25 24 21 16 20 22 27 24 17 13 13 14 13 14 14 13 14 17 18 21 22
9 27 47 56 57 52 44 39 33 30 33 38 36 37 34 28 24 19 16 15 16 10 12 10 22 26 23 23 23 19 21 20 19 21 20 19 17 15 14 14 15 14 14 16 16 18 20
13 36 56 59 58 53 45 44 37 29 35 39 37 38 33 28 25 19 17 17 17 12 13 10 24 28 23 22 21 18 16 18 19 18 20 19 18 15 14 11 9 15 18 17 17 17 19
12 35 57 56 53 50 47 48 36 36 32 43 40 40 32 28 24 21 18 15 18 9 16 15 22 27 26 22 18 20 17 14 12 13 17 18 16 13 13 11 13 13 12 15 15 15 17

GFSGBSN_500_spd_006.txt.gz
Wind_Speed
46 38 33 29 32 42 36 31 32 34 34 32 31 30 29 29 29 27 28 29 29 32 31 32 29 28 28 29 30 29 23 27 34 35 37 38 40 43 42 43 41 40 39 39 36 34 36
42 44 41 34 31 33 44 40 34 34 37 37 35 34 33 32 31 30 29 29 29 29 31 31 31 29 31 31 34 33 30 27 31 36 38 40 39 41 44 43 45 43 42 43 43 39 39
39 36 43 43 39 35 33 42 43 38 37 39 40 38 37 35 33 33 33 31 32 32 31 32 33 32 31 34 34 33 34 30 29 35 40 39 41 40 39 41 43 42 41 40 43 43 41
45 41 38 40 44 41 38 36 39 45 43 40 42 43 41 39 37 35 34 33 31 33 33 32 32 33 30 32 33 33 36 33 33 35 38 42 42 42 41 41 42 43 43 44 43 45 46
47 45 44 42 43 45 43 42 41 39 46 46 43 43 44 43 41 39 35 34 31 31 32 32 32 31 29 31 33 35 36 36 36 37 39 43 45 44 45 45 46 46 45 45 45 46 47
49 49 49 47 45 46 47 48 46 46 41 46 49 46 44 44 44 43 41 37 35 34 33 34 33 33 32 31 32 33 34 38 39 39 39 39 47 49 49 46 46 46 46 45 45 43 46
53 53 54 55 52 51 50 51 51 49 50 46 46 50 48 46 44 45 44 42 39 37 37 37 35 33 30 30 32 35 36 39 41 39 38 41 46 48 45 45 46 47 46 45 47 49 50
60 59 56 57 59 59 58 55 54 54 54 54 51 48 50 51 49 45 42 42 42 40 38 37 36 35 36 35 35 38 40 41 41 40 42 46 45 43 47 49 49 49 48 47 48 50 51
69 68 65 61 57 59 60 61 58 58 57 58 57 53 50 49 52 47 45 42 41 41 41 37 38 36 38 40 38 36 39 43 42 42 41 44 44 47 50 51 52 52 52 50 51 48 53
75 73 69 65 62 57 57 57 59 55 54 57 59 58 55 52 47 48 46 45 42 39 42 38 40 39 36 37 41 43 43 43 45 41 45 49 47 47 48 50 49 49 46 44 45 47 51
74 68 63 61 58 54 49 50 53 49 43 52 50 59 59 53 49 44 47 43 38 35 42 42 42 39 38 41 43 43 45 45 43 41 44 44 43 46 51 43 42 44 40 43 45 48 50
67 64 56 50 48 46 43 42 48 52 54 42 43 43 59 56 49 46 44 41 40 40 44 42 40 40 41 42 44 44 46 45 40 38 41 43 46 47 46 45 46 43 41 45 46 47 54
62 54 51 44 39 37 33 35 44 46 47 44 41 39 47 55 49 47 43 40 41 40 38 38 38 38 40 42 43 44 42 35 34 34 37 37 37 39 40 39 42 44 45 39 44 52 58
54 53 46 36 29 25 24 31 41 46 52 48 29 35 40 49 50 44 41 40 41 38 36 38 37 36 38 40 39 38 37 33 30 31 27 32 31 35 35 34 37 40 42 47 40 51 50
52 53 40 26 18 18 18 23 34 54 53 43 39 40 35 43 44 42 41 39 33 34 35 34 32 35 35 34 36 37 33 28 24 22 20 21 32 32 34 34 33 35 43 35 42 33 43
54 49 33 14 7 21 17 20 32 52 51 44 33 39 36 38 41 41 41 34 33 34 34 30 30 31 29 30 28 29 21 20 22 19 24 25 25 25 28 31 36 38 35 41 43 42 38
53 43 26 12 12 21 17 24 40 62 49 46 38 46 43 37 41 41 36 30 32 32 28 27 26 25 25 21 18 15 9 7 8 6 11 13 21 23 27 26 26 37 40 42 44 46 37
51 38 23 12 15 20 22 33 36 59 54 44 49 43 28 33 39 39 33 30 30 27 24 23 22 20 16 16 12 4 9 10 6 9 9 13 19 26 20 28 20 26 36 38 49 44 30
49 33 18 8 8 23 28 32 50 52 49 49 47 41 34 34 38 35 29 28 26 24 22 21 17 18 10 12 11 7 3 14 14 16 14 15 8 2 10 15 20 28 41 44 42 41 34
46 27 13 5 27 23 37 40 35 44 49 47 42 42 43 39 37 31 29 26 24 23 21 18 16 16 7 7 6 5 8 8 12 10 8 13 1 8 11 14 20 13 30 38 42 45 38
43 25 9 15 27 33 37 40 30 43 44 43 43 36 40 38 31 28 29 27 24 23 19 18 18 14 5 3 1 2 2 4 5 5 7 7 15 17 10 3 15 24 21 32 31 45 28
39 18 5 28 34 40 38 44 46 43 42 31 52 35 29 26 29 28 29 24 23 22 21 21 18 13 9 8 7 4 3 4 14 15 14 16 22 16 17 19 18 16 22 42 37 25 17
33 5 12 31 35 35 41 46 44 39 40 32 36 39 30 27 24 29 27 26 26 21 22 21 17 12 11 15 9 8 9 0 6 15 26 27 23 19 6 9 11 9 19 18 14 19 35
28 3 20 37 35 36 46 32 36 39 38 40 36 35 36 28 27 28 25 27 26 18 23 24 21 14 18 16 11 14 12 7 3 10 16 18 28 21 19 16 15 17 15 19 26 19 18
23 14 27 40 36 45 45 34 30 38 35 36 30 31 32 27 32 30 27 25 21 21 22 21 18 19 22 20 19 18 18 11 5 5 8 13 20 18 17 16 15 18 18 22 22 19 20
22 20 35 37 42 47 35 36 34 39 33 33 35 26 27 27 30 28 26 21 21 20 22 22 17 20 24 23 18 19 15 15 12 10 8 11 11 11 9 12 13 13 11 13 15 14 11
21 15 40 40 46 43 40 37 32 35 32 33 32 31 34 27 28 29 23 22 21 17 19 19 13 21 28 25 19 17 15 14 18 20 14 10 7 7 8 7 8 10 11 13 14 13 15
21 13 46 46 52 52 41 41 36 34 28 30 27 24 32 33 29 26 23 22 19 20 12 13 14 19 29 24 21 20 11 8 14 17 19 17 14 11 7 4 7 9 10 11 10 12 13
22 11 45 53 59 57 46 42 32 34 35 31 27 27 30 32 29 28 24 19 16 20 13 15 13 22 25 24 19 20 16 10 10 15 13 14 14 12 12 13 10 10 10 13 14 12 13

GFSGBSN_500_spd_009.txt.gz
Wind_Speed
39 40 39 35 36 40 36 32 40 40 34 33 37 35 33 31 29 27 26 26 27 29 31 31 31 30 30 29 28 27 26 27 29 29 31 33 34 37 37 40 46 47 38 38 35 33 32
38 39 39 38 37 37 42 36 36 40 43 35 36 38 36 34 32 29 27 27 26 26 28 28 29 29 29 29 30 27 26 27 30 33 33 32 34 37 37 37 42 46 46 44 43 39 38
39 41 40 37 35 36 36 42 38 38 39 44 37 38 40 37 35 33 31 29 28 28 27 27 27 28 29 31 27 28 27 27 28 31 34 34 33 35 37 37 41 41 46 48 46 43 41
41 41 41 41 42 37 39 38 43 41 41 40 45 41 39 41 39 37 35 33 31 30 30 28 27 27 28 30 28 28 28 29 29 31 33 35 36 37 39 40 41 43 44 45 45 43 44
43 44 44 42 40 42 42 41 43 42 44 43 42 47 44 41 42 41 39 36 34 32 31 29 28 27 27 29 30 28 29 31 32 33 32 35 37 38 39 42 44 45 44 44 46 46 47
47 49 51 52 50 46 45 47 46 45 44 47 46 44 49 47 43 43 43 40 38 35 33 31 29 29 28 27 29 28 28 28 29 32 34 37 39 41 42 39 42 43 47 49 50 50 50
54 56 58 58 58 56 54 48 51 51 49 49 51 48 46 51 49 45 43 44 42 40 36 36 34 32 30 29 29 30 29 29 30 32 35 38 40 42 39 39 41 49 54 54 53 52 51
63 65 69 71 69 66 61 57 51 54 54 52 54 53 50 47 51 51 47 43 43 43 40 39 38 34 33 31 30 31 31 32 35 35 36 39 40 41 43 44 45 47 52 55 54 51 54
67 72 79 78 73 67 61 58 54 55 56 56 56 57 54 52 49 50 49 47 45 42 41 40 40 38 38 36 35 33 35 36 36 40 42 43 41 45 48 48 49 48 49 51 52 50 52
73 82 82 71 66 65 60 56 53 52 54 57 57 56 58 58 55 49 45 50 48 44 44 39 38 39 39 38 40 39 36 38 40 42 47 48 46 47 48 49 50 49 50 50 52 55 55
81 84 76 67 62 56 51 48 46 48 50 50 44 55 58 60 57 50 48 50 47 45 45 42 40 38 38 41 40 38 40 41 45 47 51 50 48 50 52 51 54 56 50 53 55 57 58
87 79 67 58 55 52 47 42 39 42 48 54 40 52 38 49 60 55 53 49 44 43 47 40 38 37 38 39 38 40 40 45 50 51 52 50 48 48 47 49 53 53 51 52 54 54 61
83 69 59 56 50 39 30 28 29 38 48 60 50 45 48 39 44 52 54 51 47 44 37 37 38 39 40 39 38 38 43 50 50 49 49 45 44 44 46 47 52 53 48 48 51 57 64
74 58 58 52 40 26 15 10 21 34 46 66 44 51 39 40 38 43 54 52 49 41 35 37 38 38 34 34 35 41 45 41 43 46 45 45 45 42 42 39 38 39 38 45 49 53 57
67 57 56 47 28 7 7 20 18 28 47 65 56 49 48 44 46 44 51 53 46 37 37 37 38 36 33 32 37 37 33 34 35 32 31 31 29 24 28 34 33 36 35 31 41 45 44
63 57 53 40 16 4 9 11 12 18 46 71 52 51 44 43 39 37 44 48 41 39 37 35 35 30 28 34 33 28 23 21 24 23 22 24 28 27 28 34 34 35 31 31 38 39 37
62 56 49 34 15 12 10 20 19 23 50 59 64 47 47 42 33 35 43 43 38 38 37 36 28 27 31 29 26 23 16 19 20 23 19 15 19 18 27 30 27 29 35 37 37 36 36
63 55 43 30 14 16 18 22 16 19 43 71 52 33 44 36 35 28 33 35 38 38 36 28 25 29 26 19 25 19 16 18 21 23 23 23 21 20 20 20 27 30 31 35 36 36 36
63 54 39 25 12 11 18 15 20 34 47 54 40 35 33 41 33 29 26 32 34 33 28 25 27 22 18 19 19 15 11 16 16 22 24 22 20 19 18 21 32 37 27 32 33 31 37
63 54 37 22 10 12 17 22 18 37 54 44 43 33 34 42 28 25 28 30 29 28 26 27 20 18 12 16 15 7 10 14 13 21 24 21 22 17 15 14 9 13 20 32 35 35 32
62 51 34 21 6 22 20 21 16 47 54 42 37 39 32 35 30 30 33 30 27 25 25 22 15 13 11 13 9 3 13 17 14 14 13 13 16 14 10 11 10 7 15 22 28 22 33
58 47 29 14 14 18 21 25 34 48 44 23 36 43 41 23 20 23 26 26 25 27 24 17 13 13 12 15 10 7 11 8 11 10 13 17 19 14 9 7 2 8 9 13 19 28 33
55 40 23 6 13 20 27 34 38 39 30 30 30 30 37 30 24 26 22 23 24 25 18 15 16 16 15 16 11 10 9 11 12 11 15 17 17 12 7 7 9 2 11 16 20 25 22
55 34 9 14 25 27 31 26 37 33 29 36 30 33 28 27 24 21 19 24 22 20 16 16 22 20 18 16 12 12 10 3 5 9 15 16 18 21 14 7 7 10 11 12 15 17 13
58 29 14 24 28 33 31 33 36 36 34 29 23 36 27 19 21 24 21 21 20 20 18 18 20 19 18 14 14 13 14 5 1 4 7 12 14 16 20 15 19 27 26 28 23 26 29
62 27 17 31 37 36 37 34 36 32 31 28 29 23 31 23 22 20 24 21 19 19 20 18 19 19 15 19 15 16 17 12 7 4 5 6 6 7 15 14 15 15 20 21 22 19 16
61 30 16 35 41 37 37 33 29 25 30 24 31 25 26 29 27 22 24 22 20 18 18 15 19 20 22 22 19 16 20 15 14 11 11 7 4 3 8 8 11 13 15 13 13 12 11
59 36 14 38 45 46 40 37 31 29 35 25 26 32 26 20 24 25 23 20 19 18 16 16 17 19 15 18 20 19 20 16 16 19 15 12 9 6 5 7 7 6 6 7 7 9 10
59 38 15 39 46 48 43 38 29 30 32 26 27 25 23 21 27 19 23 21 18 18 16 19 14 13 16 17 19 17 16 13 17 20 20 18 14 13 13 8 6 8 8 9 10 10 10

GFSGBSN_500_spd_012.txt.gz
Wind_Speed
29 31 32 34 34 33 32 30 33 32 40 37 39 35 34 36 36 34 32 32 30 31 32 35 36 36 34 32 30 28 29 29 27 26 28 26 26 27 28 30 33 37 34 41 37 37 37
35 36 37 37 36 36 36 35 34 35 34 40 34 41 35 37 37 36 34 33 32 30 30 32 33 34 33 30 30 27 25 26 26 26 26 28 28 29 28 29 33 35 36 35 42 40 39
37 37 36 37 40 41 39 38 38 37 36 41 38 36 44 36 39 38 36 35 34 32 30 29 30 30 30 30 28 26 26 27 27 26 26 27 27 27 29 30 33 34 36 37 36 39 42
40 39 39 40 40 41 41 42 41 42 39 36 43 41 37 45 38 40 40 37 35 33 31 29 28 27 27 26 24 26 25 24 25 27 27 26 27 29 32 32 33 36 37 36 37 39 46
44 45 45 46 46 45 45 46 43 43 43 43 39 45 44 41 46 39 42 41 38 36 33 30 28 27 26 25 25 25 24 24 24 25 27 27 28 30 33 35 35 35 37 37 39 43 46
49 51 52 54 56 55 55 54 53 48 44 45 47 45 50 45 44 46 41 43 41 38 36 32 30 29 28 27 27 25 26 25 25 24 25 27 29 31 33 34 36 38 40 42 42 44 48
54 57 61 63 67 70 69 65 59 52 48 48 51 52 51 51 48 48 48 42 43 43 38 36 33 32 30 29 27 26 26 24 24 25 26 28 30 31 33 34 38 43 43 44 44 45 48
59 62 65 69 73 75 72 71 61 55 50 50 53 56 54 56 52 49 50 47 43 42 42 40 36 34 32 31 30 29 28 27 28 28 30 32 31 32 35 40 41 43 46 47 48 46 48
62 65 71 76 80 72 62 59 57 52 50 51 55 58 59 59 56 55 47 51 49 44 42 41 39 37 36 34 32 31 32 32 33 34 35 36 36 37 41 44 44 46 47 49 51 51 50
66 68 76 81 75 62 54 49 46 44 40 48 57 60 61 58 44 57 52 48 49 47 45 41 40 39 38 36 36 36 37 37 37 38 40 40 38 42 46 49 51 52 52 54 54 55 54
69 77 83 78 65 59 55 48 42 39 35 41 53 58 60 57 45 52 52 50 46 45 48 44 41 37 35 35 34 34 37 38 39 40 41 43 44 46 49 51 55 55 54 55 56 57 58
74 82 84 73 64 58 50 40 31 27 31 37 49 55 51 48 48 43 44 52 49 46 47 44 41 37 36 35 35 34 35 37 38 40 41 44 49 53 54 52 54 55 56 58 59 58 61
79 86 81 70 63 55 40 24 15 14 26 36 44 52 63 59 47 42 45 52 51 50 42 37 36 38 37 34 33 34 34 36 35 39 45 49 51 56 58 56 55 53 52 53 55 59 61
83 87 76 68 61 47 26 5 6 4 20 34 42 49 53 53 48 51 47 48 53 49 43 36 32 31 31 32 34 32 31 31 37 43 44 46 51 49 48 47 45 47 45 47 51 55 58
84 86 74 65 56 37 11 10 15 16 15 30 47 54 65 61 47 40 40 47 51 45 42 37 33 30 28 32 31 29 30 33 36 37 35 30 32 31 25 32 34 38 44 35 42 45 49
84 86 72 62 52 33 11 12 4 4 14 26 59 51 57 51 47 46 48 36 38 45 41 38 33 29 31 30 27 29 30 33 36 29 32 30 42 35 31 29 29 33 30 33 40 46 46
85 85 72 60 47 29 10 9 10 10 12 31 68 46 51 52 51 49 38 28 31 39 41 39 35 32 31 24 25 29 31 33 28 27 28 30 41 37 36 29 25 31 37 37 38 39 37
85 82 71 58 42 26 14 5 7 7 4 34 47 41 52 36 46 40 33 25 24 35 41 37 36 34 25 24 27 30 28 26 20 24 28 31 38 38 35 33 34 32 31 31 34 37 41
84 80 69 54 38 20 9 8 7 8 13 40 59 39 51 44 43 30 29 27 29 35 37 38 36 30 23 24 25 24 17 15 14 20 28 29 33 38 35 29 27 28 33 33 28 29 34
84 78 64 47 27 14 5 12 11 9 15 41 41 28 46 52 38 26 16 25 31 34 34 33 32 25 24 21 21 11 13 13 18 23 26 31 30 24 24 29 33 21 16 18 32 34 27
83 75 55 36 15 14 21 21 12 8 23 43 29 22 47 30 26 23 22 21 26 26 27 29 26 24 20 18 12 8 11 12 16 17 20 18 14 22 26 23 20 19 19 20 11 17 25
80 70 44 22 14 14 13 14 17 9 22 33 29 28 44 34 26 22 22 23 21 24 26 25 19 20 18 8 6 11 10 7 10 8 10 11 14 16 17 8 13 12 12 9 7 12 10
77 65 38 13 4 9 10 13 8 33 33 28 32 26 29 26 26 19 16 18 21 22 23 20 16 20 13 7 6 10 13 5 12 11 9 13 17 14 17 18 14 9 6 6 4 5 11
74 64 33 13 7 7 11 12 26 34 23 20 30 27 25 24 19 19 19 21 18 17 17 17 15 18 13 7 8 10 12 8 11 10 11 14 14 13 13 17 24 4 4 7 5 8 8
71 65 32 9 4 5 14 17 28 32 21 15 12 16 28 17 19 21 16 14 16 13 15 15 13 14 14 14 12 9 12 12 7 8 13 13 14 15 17 19 18 25 20 18 13 19 27
68 64 39 11 12 15 18 29 33 26 24 21 17 20 21 20 22 23 19 12 15 13 15 13 11 11 13 13 12 10 13 13 7 4 3 5 8 10 13 13 17 20 25 22 24 23 20
68 64 45 10 26 24 27 29 30 25 25 23 19 26 25 18 18 18 16 13 16 14 13 12 11 13 13 13 12 11 13 16 10 9 7 5 5 8 9 8 10 10 14 13 13 18 16
69 67 51 15 34 34 34 32 32 31 25 25 18 17 26 20 17 17 17 18 17 14 12 12 11 11 12 13 13 17 14 13 12 15 13 9 6 4 3 6 7 6 7 10 10 10 9
68 68 54 21 19 40 39 35 35 33 26 23 21 21 22 25 26 22 19 16 15 14 10 14 11 10 13 12 11 16 12 13 16 15 18 15 11 8 6 5 5 5 8 8 7 7 7

GFSGBSN_500_spd_015.txt.gz
Wind_Speed
33 30 31 33 34 34 34 34 32 31 32 32 32 31 40 35 38 35 35 34 36 36 34 35 35 37 39 38 39 38 39 37 35 32 31 31 29 27 25 22 23 22 23 23 24 30 32
37 38 37 36 36 36 38 38 37 37 37 34 35 35 38 40 40 37 35 35 36 36 34 34 34 34 36 36 37 36 37 35 32 31 30 31 29 27 24 23 24 25 24 24 25 26 30
39 38 39 39 39 40 40 39 40 40 38 39 38 39 38 43 34 42 35 38 37 36 34 34 33 32 33 36 36 34 34 33 33 31 30 29 27 26 25 26 25 26 26 26 25 26 29
43 43 43 44 45 45 45 45 44 45 46 44 40 40 41 39 42 39 41 36 38 36 35 34 32 31 30 33 33 34 33 32 31 29 28 27 26 25 25 25 26 27 27 25 27 28 29
47 48 50 50 50 50 51 53 52 54 53 50 50 41 42 41 46 44 41 40 39 37 36 34 31 29 28 29 31 32 30 30 29 28 26 25 26 26 27 27 28 27 28 28 30 31 31
49 50 53 53 54 57 63 69 71 69 61 53 52 48 45 47 45 48 42 44 39 40 37 32 31 31 28 28 28 28 26 26 25 25 25 25 26 27 28 26 27 31 32 33 34 33 34
53 54 54 57 61 66 68 73 76 75 70 53 53 52 50 50 49 51 50 42 43 38 36 35 34 32 30 29 28 27 26 25 23 23 23 25 26 25 26 28 29 31 33 36 40 43 39
55 57 57 60 64 69 74 75 65 56 50 43 48 57 57 54 49 44 54 44 43 41 39 40 36 34 32 31 29 28 26 23 21 22 23 24 24 25 27 29 32 34 36 38 41 42 47
59 58 61 66 72 78 78 64 56 49 43 40 39 56 61 56 57 56 53 48 42 45 42 40 39 37 35 33 31 28 26 24 24 24 25 26 28 31 34 36 38 40 44 46 49 50 51
61 62 67 75 83 84 68 59 50 39 34 34 34 48 58 60 63 62 52 50 44 43 47 41 39 39 38 35 33 30 28 27 27 27 30 31 32 35 38 42 44 47 48 50 52 56 56
64 67 74 82 88 75 62 51 40 28 21 21 30 37 49 58 59 49 42 39 43 45 46 46 43 37 36 37 34 31 31 30 30 31 32 34 36 38 41 42 47 50 54 56 58 60 61
67 72 79 88 84 69 57 40 23 13 15 5 23 32 39 50 54 50 44 34 38 46 47 45 44 38 35 34 31 31 30 29 28 30 32 34 36 38 40 45 51 55 57 60 62 63 67
70 77 85 91 79 63 46 23 2 10 4 5 20 24 37 47 54 50 45 44 47 46 44 40 38 39 35 33 31 30 30 29 31 32 33 34 35 38 41 46 48 50 56 62 64 64 68
74 82 88 92 73 52 37 18 7 7 11 12 17 21 36 50 60 45 40 47 45 37 43 38 31 35 35 32 30 30 30 30 29 29 32 35 34 35 34 35 34 40 38 39 53 57 59
76 84 92 90 63 43 30 15 7 10 7 9 3 19 38 58 62 46 46 42 43 34 38 38 34 28 27 26 26 28 29 25 24 30 33 35 36 33 36 37 38 38 46 35 36 41 48
77 86 94 89 55 39 22 12 5 1 7 8 7 26 46 64 47 42 47 39 38 31 38 39 36 31 26 24 23 24 21 22 27 29 33 37 34 33 35 42 37 39 45 42 40 43 45
78 88 93 81 51 36 19 9 7 4 9 8 5 28 55 66 51 47 46 42 31 24 33 35 35 29 27 27 26 18 18 24 26 30 35 35 31 31 35 37 40 45 45 41 39 42 45
78 88 90 71 43 31 18 8 9 11 11 10 5 34 42 51 48 45 41 32 25 20 28 34 34 34 32 28 26 18 22 26 27 29 26 26 28 30 32 35 36 34 31 32 38 40 42
77 85 87 59 37 26 14 17 15 9 10 10 34 37 45 44 45 38 34 34 29 23 24 35 36 35 32 29 21 21 22 25 23 19 18 22 26 32 33 25 29 36 37 40 28 34 36
73 81 83 44 31 30 15 16 14 16 12 15 33 26 39 45 39 34 30 30 24 22 28 32 35 34 30 25 22 19 22 20 13 16 19 24 23 24 24 22 29 36 31 29 36 31 27
72 78 80 41 21 26 18 12 15 16 15 22 27 18 34 30 36 37 31 27 24 22 23 29 31 30 28 22 21 19 19 9 7 12 14 18 14 18 11 11 16 23 14 10 10 10 10
70 75 76 47 18 15 16 12 14 18 28 29 19 28 33 32 34 29 23 19 23 19 21 23 23 26 24 19 18 15 13 3 3 8 10 12 9 10 12 15 13 11 9 7 6 4 1
69 73 76 50 18 9 14 10 15 38 32 25 21 29 34 31 26 19 14 12 18 20 20 21 22 22 19 16 17 15 7 6 3 4 3 7 10 11 18 19 17 6 7 4 4 7 11
67 71 76 52 15 5 10 15 29 24 21 22 20 26 29 30 23 17 19 18 20 18 17 18 17 18 19 18 16 10 6 7 2 3 6 9 14 17 17 25 25 14 2 7 8 4 6
65 69 75 55 12 7 9 26 28 16 16 19 21 27 28 19 20 18 19 19 14 16 15 15 16 14 15 17 16 8 9 7 1 5 9 7 11 13 17 24 23 20 13 12 13 14 23
63 66 71 58 10 2 14 29 23 18 17 16 19 10 21 18 16 19 16 16 14 14 13 13 11 11 12 16 15 10 11 11 7 3 2 2 4 7 12 14 24 25 24 19 20 22 15
63 63 66 60 12 10 22 28 25 19 16 16 13 16 22 15 18 19 13 12 15 13 12 10 11 13 12 12 13 11 11 13 10 9 7 4 1 3 6 9 12 14 18 16 16 16 19
61 60 62 63 30 22 22 29 28 24 20 17 10 9 17 14 14 15 18 12 14 15 12 11 11 13 11 11 12 9 13 19 16 13 13 10 6 4 2 3 4 7 8 7 8 9 10
61 57 58 63 38 21 29 31 32 21 20 22 15 8 19 15 12 16 15 11 11 15 12 13 13 12 7 8 10 8 13 19 21 19 18 16 14 10 5 5 4 4 3 2 1 2 3

GFSGBSN_500_spd_018.txt.gz
Wind_Speed
44 38 34 33 33 32 31 33 35 35 34 34 34 33 33 34 33 37 35 37 35 35 33 35 36 37 39 40 40 40 42 41 42 45 41 38 36 36 36 33 30 28 25 24 24 25 27
42 40 39 39 38 37 37 38 38 37 41 40 39 38 37 36 37 36 37 35 36 34 34 33 34 35 37 40 40 40 41 40 41 42 40 37 36 35 35 34 32 28 25 24 23 24 24
45 45 43 43 43 43 43 41 39 40 40 42 44 44 44 38 39 39 37 35 39 34 35 34 34 34 36 40 39 38 39 39 39 42 40 37 36 36 34 34 33 30 27 26 24 24 25
46 45 46 47 49 48 47 47 46 45 46 48 48 48 50 45 42 42 41 39 39 35 35 35 34 35 34 36 38 38 39 39 39 40 38 37 36 34 34 34 33 33 30 28 24 25 26
48 47 48 49 50 47 50 51 52 56 57 57 59 57 56 52 49 45 44 41 38 40 36 36 34 34 34 33 36 36 37 38 38 37 37 35 35 33 33 33 33 31 30 28 29 29 27
51 51 51 51 52 56 59 61 63 67 71 75 74 65 59 55 55 49 46 44 44 41 40 36 35 35 33 31 32 32 34 35 35 35 35 34 33 32 31 31 31 32 31 30 30 29 29
55 54 54 54 55 59 64 71 77 81 77 65 59 52 49 51 59 51 40 48 49 42 40 35 36 34 32 31 29 29 31 32 33 33 32 31 30 28 29 29 30 30 30 32 32 32 34
60 59 58 58 62 70 76 82 82 69 62 53 47 45 41 50 60 58 49 47 43 42 41 39 39 36 33 30 29 27 28 29 29 29 28 28 27 27 26 25 27 28 31 33 36 37 39
66 62 62 66 73 80 86 78 66 57 51 43 34 35 37 51 55 57 54 47 38 42 41 42 39 38 35 31 29 27 26 26 25 25 26 27 26 24 24 25 28 30 34 37 41 44 46
71 67 69 75 81 89 81 65 52 47 34 24 20 26 32 42 50 61 53 44 36 35 41 42 39 38 36 32 30 28 26 25 24 25 26 25 24 25 26 28 32 35 37 42 46 49 52
75 72 74 81 88 91 69 50 43 24 15 9 12 14 29 36 44 65 57 45 33 34 42 41 43 37 37 35 30 29 27 26 26 26 25 26 26 28 29 32 36 38 41 45 50 55 59
77 75 78 85 93 83 62 42 27 17 3 4 4 10 23 31 43 60 54 45 41 41 44 39 41 39 35 34 32 30 28 28 27 27 26 28 27 28 31 36 37 43 46 49 52 56 61
80 79 81 90 97 74 59 38 19 11 4 4 5 14 20 32 54 63 59 44 44 45 37 37 35 37 34 31 31 31 30 28 27 27 26 28 29 32 35 36 39 43 43 44 42 43 44
81 81 85 92 95 67 55 33 10 9 8 5 17 7 16 35 67 54 50 46 38 42 31 33 32 34 36 32 30 28 27 26 25 26 28 30 32 32 33 37 40 42 43 46 49 53 54
82 81 86 92 92 64 51 27 4 8 7 9 9 4 14 42 65 48 48 42 44 39 25 27 30 29 30 35 31 27 25 25 27 29 31 31 30 31 32 35 39 41 44 48 54 56 59
82 82 85 92 82 59 44 21 4 3 4 4 9 7 30 53 62 58 48 37 38 37 33 26 29 27 22 28 30 29 29 29 30 28 28 28 30 29 32 35 35 43 46 47 50 51 52
82 82 85 89 65 54 35 13 16 11 9 10 5 21 40 68 48 47 47 38 37 36 28 26 30 29 25 24 25 25 25 24 24 25 24 25 30 30 27 30 38 41 40 36 41 45 46
81 82 83 87 57 47 29 15 15 12 11 11 12 11 53 54 38 42 37 41 32 29 22 24 31 31 31 25 24 24 20 21 19 19 21 27 24 22 23 29 33 34 36 37 43 44 44
79 81 82 84 52 40 29 16 15 13 12 16 8 32 68 44 47 34 34 33 25 24 20 25 32 32 27 27 26 21 19 16 17 18 20 22 19 21 24 25 29 31 30 34 38 36 36
76 79 80 83 51 28 29 17 14 19 24 22 14 33 56 47 32 35 37 31 24 19 18 25 31 35 35 31 27 19 17 16 15 19 18 16 16 20 21 25 28 30 26 27 30 31 25
72 77 77 81 51 21 24 18 12 21 25 24 18 31 54 35 35 28 34 27 21 17 15 19 32 34 33 29 24 17 17 14 17 16 11 11 12 13 16 19 25 30 23 20 22 14 20
70 75 74 78 51 23 21 12 10 12 16 14 21 37 39 34 31 28 27 24 21 20 17 18 27 32 30 26 20 17 15 15 13 10 10 7 5 7 9 14 17 13 16 17 20 17 17
67 72 71 73 48 25 12 18 17 18 13 22 25 28 31 29 25 25 23 22 23 20 17 19 23 24 25 21 18 17 15 13 12 10 7 3 2 3 9 7 14 13 11 12 13 13 12
63 68 69 69 45 23 17 24 25 18 15 24 27 28 29 25 25 24 18 18 18 17 16 18 17 20 21 20 19 16 14 13 10 9 6 1 4 8 10 14 19 15 10 11 11 7 5
59 64 66 63 44 17 16 16 14 18 12 15 18 20 27 28 21 18 18 17 17 17 16 17 18 16 17 19 18 15 15 13 12 9 8 4 6 7 15 19 16 16 14 11 10 7 4
55 59 61 58 48 13 10 12 5 9 9 12 12 17 25 18 12 14 15 18 20 20 18 18 15 15 16 20 19 16 16 15 12 11 7 3 4 5 6 11 12 13 13 15 14 11 6
51 54 57 55 52 14 10 20 8 5 5 10 10 17 18 16 15 18 19 17 14 18 17 15 14 14 13 15 17 18 19 17 17 14 9 5 3 3 4 5 8 10 11 10 10 13 17
47 49 53 53 46 37 12 24 22 15 9 12 13 19 19 11 17 18 15 17 18 17 16 14 12 11 11 14 15 20 21 19 19 16 11 9 7 4 3 3 3 2 5 6 8 9 9
44 45 49 51 47 43 26 31 30 24 18 15 12 15 18 13 13 18 17 15 16 19 17 14 11 8 9 15 19 21 21 23 23 19 15 13 12 9 5 4 5 5 4 4 3 3 2

GFSGBSN_500_spd_021.txt.gz
Wind_Speed
49 46 46 45 45 43 42 39 37 39 41 43 43 40 37 35 33 34 36 34 40 39 38 37 37 39 38 39 42 43 45 46 45 45 43 43 43 45 47 41 41 38 38 36 33 32 32
49 49 49 47 46 47 48 48 45 43 42 44 46 47 45 42 39 37 36 37 35 41 40 39 38 39 38 37 38 40 42 45 45 45 43 43 44 46 46 41 39 40 38 33 32 30 31
52 52 54 50 48 48 47 48 49 47 46 46 47 48 51 50 45 42 41 39 40 37 39 40 39 39 38 38 36 38 39 42 42 44 44 42 43 43 43 43 39 39 37 35 32 32 30
55 55 57 57 53 49 48 50 50 53 55 55 54 55 55 55 53 47 45 43 42 41 39 42 40 39 38 37 35 35 38 40 41 43 45 43 43 43 42 41 40 40 39 37 37 33 32
59 59 61 62 60 55 55 58 61 68 71 73 70 68 65 62 59 56 50 46 44 42 42 41 40 40 38 35 32 33 35 38 40 42 43 41 42 41 40 39 41 40 40 39 38 35 35
62 64 66 68 68 64 64 69 75 81 81 76 76 72 67 68 68 61 57 48 41 41 43 41 40 39 36 34 31 30 31 35 39 41 42 40 39 40 39 40 38 39 41 40 38 36 36
65 68 71 74 74 72 74 78 81 73 63 55 50 45 43 46 57 60 59 48 43 40 46 40 38 36 34 32 30 27 29 33 37 41 41 41 39 36 35 37 38 37 36 37 36 36 36
67 72 76 79 78 77 80 83 69 59 47 41 35 31 30 31 36 47 54 52 49 49 41 40 40 35 36 33 30 28 29 31 35 37 37 38 34 32 32 32 32 32 32 33 34 36 37
70 75 79 83 82 83 90 72 61 52 40 27 21 18 18 25 31 44 52 52 47 43 47 44 40 38 37 34 31 30 28 29 32 33 33 33 30 27 26 26 26 28 29 31 34 36 37
71 77 82 87 88 90 88 64 57 45 27 9 7 13 15 17 33 41 55 56 46 52 42 42 39 38 37 35 32 29 28 28 28 28 30 28 23 23 22 22 24 26 29 32 35 38 41
73 78 85 90 91 94 79 64 49 30 13 3 11 6 8 13 32 36 68 55 55 48 44 43 42 40 38 37 31 29 28 28 27 26 25 25 22 20 21 23 26 30 31 36 40 43 45
74 79 86 91 93 97 70 64 41 18 12 4 3 8 10 13 30 47 72 47 41 41 39 42 43 41 37 37 33 31 28 26 24 24 23 23 21 21 23 26 30 32 35 38 42 46 52
74 80 87 92 95 92 65 60 37 11 7 7 12 14 15 15 33 60 57 46 47 48 43 32 39 39 35 35 33 31 28 25 24 23 22 22 22 24 26 29 31 35 37 41 47 49 50
75 79 87 92 97 82 63 49 28 2 6 12 13 14 2 23 38 58 50 44 50 44 37 29 35 36 35 32 34 32 29 26 24 23 22 24 26 26 28 30 34 35 39 42 47 52 54
74 79 86 91 97 70 60 43 18 8 9 12 16 14 8 27 44 70 49 43 34 43 38 20 29 31 34 32 29 28 28 26 24 24 25 27 27 27 30 32 34 37 39 46 50 49 52
71 77 83 89 94 60 54 29 22 18 15 11 17 4 13 29 50 63 44 36 29 35 34 24 25 24 27 30 26 25 24 24 24 24 25 25 28 28 30 32 35 40 42 41 40 49 53
69 75 80 87 89 55 48 27 23 20 18 12 12 8 14 38 61 52 40 31 37 36 32 22 28 25 21 24 27 27 25 24 24 25 27 28 28 25 29 33 37 35 35 38 42 45 47
66 72 78 84 85 51 41 28 22 16 18 10 6 4 28 47 58 46 37 33 35 31 31 20 26 27 25 22 27 29 28 27 27 25 23 23 25 25 29 29 31 35 33 36 40 42 49
63 69 74 80 81 50 36 23 22 20 16 18 5 15 39 48 44 35 32 28 31 27 24 20 24 26 27 25 24 25 24 23 20 19 18 22 22 21 24 26 31 28 30 36 37 44 47
61 67 71 77 77 53 26 24 26 21 20 20 7 30 44 43 34 34 34 32 25 21 20 18 23 29 27 25 23 21 19 17 16 16 17 19 19 22 21 21 26 28 28 35 38 41 41
59 63 67 72 73 52 16 21 22 18 23 17 25 48 42 33 35 32 33 25 16 18 17 18 23 28 26 24 22 20 16 13 14 14 15 15 16 15 17 17 21 24 28 25 25 30 37
55 59 62 67 67 51 12 20 19 22 16 12 25 29 29 29 25 30 29 26 17 17 13 15 23 28 29 26 21 17 16 16 14 12 13 14 11 11 13 16 18 18 21 19 22 29 31
51 55 57 59 62 46 13 19 23 20 17 20 36 26 24 22 26 26 21 18 13 12 9 9 14 24 28 26 22 19 16 14 12 13 14 11 7 6 8 9 12 14 14 16 20 23 27
45 50 52 53 53 32 14 15 20 17 20 24 28 16 18 19 20 22 22 19 16 14 13 11 11 15 21 21 20 17 16 15 12 14 14 8 5 2 3 1 7 13 15 17 19 18 20
41 45 47 47 48 31 12 5 12 12 7 12 15 18 17 16 20 19 19 16 15 14 13 12 12 13 16 19 19 17 16 14 15 16 12 10 5 4 3 4 9 11 15 17 19 22 20
38 40 42 43 39 40 15 2 6 9 8 7 1 14 12 11 12 14 12 12 13 13 13 15 15 16 16 19 19 18 17 15 18 15 13 10 4 3 2 3 8 10 12 17 17 17 19
36 38 39 41 38 34 34 11 14 7 9 5 6 13 18 10 11 12 14 16 16 15 16 17 17 16 15 17 18 19 18 18 20 16 15 11 9 6 1 3 3 5 8 12 14 16 20
35 35 37 39 39 35 28 26 13 24 15 12 7 15 21 13 11 15 15 15 16 18 19 16 15 15 14 14 15 18 18 21 21 20 16 13 12 9 4 2 3 5 7 9 11 12 14
33 34 35 37 38 39 35 26 23 23 30 28 22 16 19 16 11 16 16 18 13 18 16 15 15 14 13 12 15 18 19 22 23 23 21 17 15 11 7 5 5 6 7 8 9 9 8

GFSGBSN_500_spd_024.txt.gz
Wind_Speed
51 50 51 52 53 54 54 51 50 49 49 43 41 44 47 47 44 42 41 38 39 36 38 36 37 36 38 39 40 42 44 46 46 48 47 47 46 46 45 45 44 44 46 41 38 38 34
53 53 54 52 55 58 58 58 55 51 50 50 47 45 46 48 50 48 45 43 40 40 37 37 37 39 36 38 39 38 40 43 45 46 46 47 46 47 46 45 43 43 45 42 39 35 36
55 54 56 57 59 62 65 67 67 63 57 51 54 58 56 53 53 54 50 48 45 42 40 36 40 38 39 35 37 36 39 41 42 45 45 46 46 46 45 43 43 41 42 44 40 36 39
58 58 59 62 64 68 72 75 76 66 68 70 69 69 68 66 61 60 58 52 48 45 40 40 38 39 37 38 35 36 36 38 39 40 42 46 46 46 45 45 43 42 43 43 41 39 40
58 60 62 66 70 73 78 82 77 81 76 69 69 68 68 69 63 62 63 59 50 47 43 40 39 39 39 37 36 34 34 36 36 38 32 40 45 45 45 43 43 44 42 41 42 41 41
58 64 67 70 74 78 83 84 87 75 64 55 51 46 43 44 44 48 63 63 54 48 45 40 40 38 36 36 35 34 33 34 34 36 37 35 43 42 41 39 39 41 42 42 40 43 41
61 67 70 73 78 83 88 92 80 63 60 48 39 34 32 33 33 37 49 61 54 47 47 44 37 39 34 34 36 33 33 32 33 35 36 37 40 37 29 37 39 41 42 39 39 40 42
63 68 72 76 81 87 93 91 69 64 51 36 24 19 16 18 22 33 39 53 51 49 46 42 39 39 35 35 35 33 33 32 31 31 33 34 35 29 33 35 36 38 37 36 36 39 43
65 70 75 80 86 93 96 81 68 57 38 19 8 9 19 25 12 30 38 49 50 45 43 47 36 38 35 35 35 33 33 31 30 30 30 29 30 31 32 32 33 34 35 34 34 35 36
65 72 77 82 88 95 93 74 63 47 26 8 5 10 13 21 19 27 40 51 51 51 44 41 39 39 35 36 35 33 33 32 29 28 27 27 28 27 27 28 28 29 30 27 26 28 31
65 73 78 84 91 98 85 70 54 39 12 4 3 12 9 15 12 25 37 55 39 40 44 43 41 36 36 37 34 32 32 27 26 24 23 22 22 24 24 22 23 22 22 23 26 29 31
65 73 78 86 93 96 75 66 46 27 11 9 12 14 13 13 9 25 42 55 39 44 38 46 41 38 38 35 32 32 27 25 22 22 21 21 19 19 19 19 20 20 23 26 30 33 36
65 71 78 85 94 89 67 53 45 28 16 17 18 17 20 9 10 31 54 51 50 43 19 45 38 34 34 33 31 30 26 24 22 20 19 17 18 19 19 19 20 23 27 31 34 37 38
64 70 77 84 91 82 59 42 42 35 26 24 22 22 12 5 18 37 62 42 38 27 23 32 32 34 34 32 32 30 26 25 23 21 19 18 18 18 20 21 24 26 29 31 38 42 44
63 68 74 81 87 77 52 42 41 39 32 28 21 9 7 12 22 43 48 32 16 28 29 25 32 34 34 30 30 30 26 24 22 20 18 19 19 19 21 23 26 27 30 36 40 42 48
61 65 72 79 84 76 48 40 41 37 29 23 21 9 8 12 22 51 39 21 24 31 28 22 21 31 31 28 27 28 26 24 21 19 21 20 20 22 22 24 28 32 33 36 40 45 47
58 62 69 76 82 74 43 42 41 38 34 19 14 18 7 29 52 40 24 21 29 34 26 25 25 25 27 26 25 25 23 22 22 22 20 20 22 20 22 27 29 31 33 36 38 40 42
55 59 66 73 79 68 41 42 42 41 35 20 14 10 22 43 42 32 25 24 33 31 29 17 27 26 29 27 25 25 25 23 21 20 21 22 20 19 22 27 30 30 29 32 37 35 42
53 56 62 69 75 65 45 49 48 38 37 28 19 15 42 41 34 24 23 28 33 31 19 19 28 26 25 27 28 26 23 22 21 20 19 17 17 19 25 27 25 26 28 29 34 35 30
49 52 57 64 69 62 45 50 45 38 33 31 25 34 43 33 29 29 25 26 23 21 17 14 25 26 25 25 25 25 24 21 19 16 16 17 16 22 20 21 22 18 21 25 30 29 35
46 47 52 58 63 57 40 48 45 30 23 34 36 36 26 31 27 25 24 23 21 12 12 10 16 23 23 22 21 20 18 17 15 15 15 14 18 16 16 17 17 19 21 22 23 26 36
43 43 47 52 57 52 39 41 43 29 26 40 36 23 23 17 22 22 22 17 12 7 8 8 11 19 22 20 17 16 14 14 13 11 12 15 12 12 11 7 10 16 18 16 17 23 28
39 40 42 45 49 49 34 28 35 19 26 20 15 13 13 15 20 19 14 11 8 9 7 4 8 14 17 15 15 14 14 12 12 12 13 10 10 9 7 7 7 6 11 15 19 21 28
34 36 37 40 43 44 37 24 25 24 17 19 17 15 12 12 13 15 11 7 6 5 3 2 2 9 15 18 17 15 14 14 13 12 9 8 9 5 6 3 4 5 11 15 16 21 26
30 32 34 36 39 41 37 24 17 14 11 10 7 6 4 7 9 11 10 9 9 10 10 9 7 7 13 17 17 17 17 15 14 11 9 11 10 6 3 2 3 5 9 15 16 21 21
26 27 30 32 34 35 37 27 14 11 8 2 15 13 7 7 11 9 12 13 14 15 13 13 10 9 11 14 16 18 17 15 12 10 11 12 8 5 4 4 2 4 8 12 13 16 18
26 25 27 29 32 31 32 32 23 9 10 7 11 10 17 17 10 11 14 16 16 17 16 12 11 11 11 15 17 19 18 16 13 12 14 11 9 8 6 4 5 6 7 10 13 14 16
24 25 26 26 31 30 29 31 26 19 12 20 17 15 19 18 18 18 20 20 17 16 16 14 14 13 13 14 16 17 18 17 16 14 14 13 12 11 10 8 9 8 7 9 11 13 15
27 25 26 25 30 33 31 30 32 26 19 17 22 27 21 25 22 17 15 17 14 12 15 15 16 16 16 14 14 16 16 17 17 16 17 16 14 12 12 11 10 9 8 8 10 11 12

GFSGBSN_500_spd_027.txt.gz
Wind_Speed
56 55 53 52 53 56 56 57 58 58 59 63 57 50 53 51 45 46 46 45 44 42 38 35 39 37 42 35 37 46 51 51 52 51 48 47 48 49 49 48 48 46 45 43 41 40 40
56 57 56 56 60 61 62 64 65 66 68 73 71 62 56 56 54 50 48 47 47 44 42 37 36 40 38 39 35 37 42 48 50 51 50 49 47 47 48 49 50 48 46 44 40 40 42
58 58 59 61 64 65 69 71 74 76 82 77 68 68 67 65 63 60 55 51 48 47 44 41 36 37 39 38 38 35 36 39 44 48 47 48 49 48 46 47 47 46 45 42 40 39 41
58 61 62 66 66 70 74 79 82 87 78 68 61 57 54 52 52 60 65 60 52 49 46 44 41 37 35 39 37 33 35 35 37 40 43 45 45 46 46 46 47 46 46 43 38 41 41
59 63 65 69 71 75 81 85 90 81 73 62 57 50 46 41 41 38 47 67 59 51 48 39 45 38 37 39 34 34 32 33 34 35 34 40 43 46 46 46 47 46 45 42 40 42 43
59 63 67 71 75 81 87 92 88 75 64 55 44 36 31 28 29 28 31 47 66 53 48 45 45 41 35 32 33 32 32 32 32 31 31 32 36 45 45 45 43 40 43 44 41 43 45
59 65 70 74 77 85 91 93 79 66 58 42 28 20 17 14 16 19 21 42 58 53 44 47 43 38 35 34 35 34 31 31 31 31 33 34 31 33 37 39 41 42 42 42 41 42 43
62 67 73 76 80 88 95 87 71 63 48 26 14 11 17 22 17 14 19 40 54 55 53 45 38 39 34 34 33 35 32 29 27 29 31 35 37 34 29 35 37 40 38 36 37 40 44
65 71 74 77 83 89 92 76 68 60 39 18 10 10 10 13 20 23 19 36 53 59 57 51 49 42 33 33 30 31 31 28 28 28 28 31 33 34 33 34 30 32 35 35 37 36 37
66 71 73 77 83 90 85 68 62 60 45 20 13 11 16 12 13 16 15 39 52 43 52 48 43 39 35 33 31 31 32 30 28 27 27 29 31 30 30 30 28 28 28 28 28 29 33
65 69 72 76 83 88 77 64 57 53 42 27 22 21 17 18 11 4 22 42 57 53 46 46 41 35 34 33 29 30 30 28 25 25 25 25 26 26 25 24 26 24 22 22 25 27 27
65 67 70 75 82 85 70 63 56 50 42 35 30 24 25 18 5 12 38 45 41 42 34 38 40 36 34 33 30 30 29 27 25 26 24 24 25 24 22 22 20 18 18 20 21 22 27
61 65 67 73 81 82 69 64 57 50 38 35 30 20 18 6 11 35 53 47 52 21 34 41 38 34 29 28 30 27 25 24 24 22 23 19 21 20 21 20 18 16 16 19 22 24 26
59 62 64 71 79 79 69 68 59 47 37 30 24 22 15 17 31 53 45 38 25 30 39 39 36 31 26 27 29 26 26 24 24 22 22 20 22 21 18 17 17 17 17 20 24 26 29
56 59 61 67 75 75 70 69 59 50 31 22 22 18 20 30 47 50 36 25 24 31 36 37 34 27 26 29 26 27 26 24 23 20 19 20 18 18 17 16 16 15 19 22 26 30 35
53 57 58 64 72 74 68 70 60 48 28 22 22 15 28 54 50 32 33 28 24 32 33 30 29 27 26 24 28 28 25 23 20 18 20 18 18 16 15 15 17 19 19 23 27 34 36
50 54 55 60 68 72 68 73 62 45 25 25 27 38 60 46 36 40 37 27 24 32 30 28 25 21 24 28 26 24 24 22 20 20 19 17 16 12 13 17 16 18 22 26 28 29 33
47 50 51 56 62 68 67 72 61 38 32 36 49 50 37 34 38 39 36 32 24 20 20 18 22 26 25 26 22 22 23 22 21 19 16 15 11 12 14 15 19 20 21 23 25 28 28
44 47 48 52 57 60 64 64 52 35 44 51 42 44 38 36 33 33 30 18 26 21 17 19 20 23 28 24 22 23 23 22 19 18 14 12 12 13 15 17 17 18 19 22 24 26 19
42 42 44 47 51 53 54 54 44 39 46 42 31 32 33 34 32 29 32 24 21 15 11 19 18 21 25 24 22 21 20 20 19 16 14 12 12 16 16 15 15 16 17 18 20 17 16
39 37 39 42 45 49 44 41 35 27 30 28 29 25 25 28 28 27 23 16 15 8 10 10 19 20 23 24 23 21 20 18 16 14 11 12 14 13 14 14 10 8 9 10 9 15 21
34 32 35 36 39 42 38 35 27 20 26 19 18 19 18 14 18 17 15 16 13 10 8 7 15 16 17 17 19 18 17 15 14 14 14 13 11 9 11 9 7 7 4 5 9 13 18
28 28 31 31 32 35 36 29 24 11 11 8 10 10 11 9 10 7 6 8 9 9 8 7 6 11 14 15 16 16 15 15 14 13 11 7 7 8 7 7 4 1 3 5 7 14 16
23 26 26 27 27 29 30 28 20 11 4 6 4 4 4 1 1 2 4 4 3 2 7 7 6 2 9 17 14 14 14 13 11 10 7 6 5 6 9 8 5 2 2 5 7 11 14
22 23 23 23 25 24 25 25 20 15 6 3 4 5 4 5 4 2 5 8 10 13 8 9 9 6 6 11 19 15 14 13 12 11 8 8 4 7 7 4 4 4 2 3 7 10 14
19 19 20 21 21 22 21 21 20 16 10 1 3 11 6 9 9 10 12 12 12 13 14 13 12 11 7 12 15 16 14 14 15 12 9 7 5 8 8 7 5 3 2 5 9 10 10
18 18 18 21 19 20 22 21 19 19 12 10 11 13 17 22 21 20 16 17 17 16 16 16 14 13 10 12 17 19 19 18 16 12 8 7 8 8 6 6 5 5 7 7 10 13 14
19 20 18 21 21 21 23 24 20 18 19 14 11 17 20 22 23 23 25 22 21 19 17 17 16 14 13 13 16 18 19 18 16 13 10 9 9 8 7 9 7 7 8 8 10 11 13
23 20 21 22 24 24 25 26 24 22 22 23 22 16 17 27 25 25 27 25 24 21 18 16 14 16 15 14 15 16 17 17 17 16 13 12 10 10 11 10 8 8 8 7 9 11 13

GFSGBSN_500_spd_030.txt.gz
Wind_Speed
44 50 56 54 57 61 63 65 66 71 73 78 80 76 73 68 63 62 58 51 52 49 45 41 38 38 42 41 39 46 55 56 55 54 52 50 49 50 49 48 49 47 44 42 40 40 40
45 50 56 58 62 65 68 70 75 79 85 81 71 66 63 58 54 57 66 59 54 50 47 42 37 35 37 43 38 39 44 54 55 53 53 51 48 49 50 51 52 50 49 48 44 41 40
47 53 57 63 68 69 72 77 82 88 79 70 67 62 54 47 43 43 53 63 60 51 48 45 42 42 37 38 41 33 38 44 52 53 51 51 50 49 48 50 52 52 50 48 45 42 43
48 55 60 66 71 74 77 82 90 78 71 72 59 48 37 32 33 35 40 51 63 54 49 44 43 39 36 40 37 39 33 36 41 48 50 50 51 49 48 50 50 51 51 49 44 47 46
50 57 64 68 73 76 81 87 84 71 70 69 50 35 25 20 20 21 26 37 61 60 50 44 38 35 39 39 37 34 34 33 36 37 43 48 49 51 50 50 49 49 49 48 45 46 46
53 58 64 69 74 78 83 89 74 70 65 66 39 20 16 14 14 12 14 31 49 62 51 45 45 46 35 33 39 35 34 31 32 33 35 37 47 50 50 50 49 48 47 47 46 47 46
55 59 65 69 74 78 86 84 74 66 62 60 34 17 16 13 15 15 7 27 41 59 54 50 46 41 36 35 39 37 34 31 32 32 33 31 33 45 47 45 45 47 47 48 44 44 45
53 60 65 69 73 79 87 81 71 62 60 49 33 27 18 17 18 18 7 25 43 60 56 46 36 37 35 33 35 35 36 33 32 31 30 31 30 27 30 38 43 45 44 41 41 43 45
54 60 65 70 73 80 88 81 68 60 51 39 31 24 24 17 18 22 7 21 44 59 56 49 39 33 33 31 32 31 27 30 28 30 30 29 26 31 34 31 32 34 40 39 41 42 43
54 58 64 69 72 79 88 81 67 59 45 38 33 25 20 17 17 16 2 23 47 59 54 53 44 38 31 31 32 32 32 29 28 28 30 31 33 35 33 33 32 32 32 32 34 37 40
54 57 64 68 71 79 88 81 66 53 42 35 31 23 16 17 10 4 17 38 59 63 38 43 34 37 36 33 31 30 32 28 27 29 23 26 28 31 32 32 32 31 28 27 29 32 34
52 55 62 66 71 79 87 82 65 50 39 29 28 27 16 8 3 19 33 53 64 43 42 43 39 42 37 32 30 28 28 29 28 28 28 25 25 25 25 27 27 26 25 26 26 25 29
50 53 60 63 69 77 84 80 65 47 31 26 27 21 11 11 25 41 44 53 43 45 51 37 44 39 34 29 29 26 26 26 26 24 22 22 23 22 22 23 23 21 23 24 23 21 19
47 51 57 61 66 75 82 77 63 39 29 26 23 24 30 30 44 51 48 48 31 39 50 42 39 34 31 28 26 23 25 26 24 21 18 18 20 22 23 24 23 23 21 18 18 16 18
46 49 54 58 63 71 79 70 49 34 33 32 38 47 49 55 47 42 31 22 33 38 42 42 36 30 29 27 24 24 24 23 23 21 15 19 20 21 21 21 20 17 17 18 17 19 21
43 46 52 55 59 67 74 53 38 42 50 59 52 48 45 44 42 38 32 32 32 38 33 32 31 30 24 24 22 24 22 21 17 17 17 18 19 20 19 19 17 17 16 15 16 21 23
40 44 48 50 54 61 65 43 55 50 46 47 48 37 39 46 44 38 27 28 29 34 29 30 25 21 20 22 20 21 21 19 18 20 19 20 21 18 17 18 16 13 13 15 18 22 26
37 38 43 44 48 55 54 28 41 35 38 41 37 36 37 34 37 37 37 31 23 23 23 21 19 20 20 18 19 19 20 18 19 18 17 17 15 17 16 13 10 10 14 17 19 22 20
34 31 37 37 40 44 35 20 31 35 33 32 29 24 19 21 24 32 34 32 23 21 17 17 15 18 19 22 20 20 20 19 18 17 15 14 15 14 11 10 11 13 16 17 18 17 15
31 26 29 31 32 36 30 11 16 23 23 24 20 20 16 20 21 22 24 26 22 17 13 13 14 17 22 21 18 19 20 19 16 15 14 13 12 11 12 11 10 13 15 15 13 11 6
30 24 25 26 26 28 31 25 9 12 13 19 21 20 20 22 17 15 16 18 20 17 11 9 9 16 22 18 18 18 18 17 17 13 12 11 12 12 10 9 10 12 12 11 7 4 2
38 21 20 20 20 21 23 25 23 6 6 7 10 17 13 11 10 15 17 17 16 16 14 7 8 11 17 16 16 16 16 15 14 14 13 13 12 10 9 11 9 9 7 5 3 3 7
30 25 17 16 16 17 18 19 19 19 11 10 6 5 7 8 5 6 9 11 10 12 14 11 7 10 10 14 14 15 15 15 15 15 15 13 9 9 11 11 9 8 5 4 2 2 7
31 29 14 13 12 13 14 13 13 14 16 12 7 10 10 3 5 6 6 8 8 4 5 8 7 6 7 12 14 15 15 16 16 16 13 9 10 12 10 10 9 7 4 4 2 7 10
30 28 14 14 11 11 13 12 10 8 8 10 10 10 8 7 4 4 5 8 9 9 10 10 10 5 2 7 18 16 17 16 15 12 10 9 11 10 9 8 10 8 7 5 4 8 9
28 29 15 15 14 11 11 14 13 10 8 6 7 9 13 13 9 10 9 10 14 14 14 14 13 10 10 8 15 21 18 17 16 14 12 11 11 11 10 10 10 11 9 5 4 6 7
28 28 17 16 16 15 14 17 17 14 12 10 9 9 15 19 21 22 17 16 15 17 19 18 15 13 11 12 15 21 23 21 19 16 14 12 12 11 11 13 12 10 8 6 6 6 6
28 29 20 18 18 16 17 18 21 19 18 16 14 13 14 19 24 26 26 27 24 23 19 20 21 19 16 16 15 20 24 23 21 17 16 14 12 12 13 12 11 8 8 6 6 6 8
29 30 24 21 19 20 20 21 21 22 20 21 22 21 20 18 22 24 30 30 26 26 24 20 22 22 21 19 19 19 21 22 22 19 19 15 15 14 14 13 12 11 9 7 8 7 8

GFSGBSN_500_spd_033.txt.gz
Wind_Speed
54 51 48 51 55 59 63 66 69 74 79 83 74 69 62 62 57 53 51 58 62 58 57 53 49 45 39 40 36 43 44 56 59 58 53 50 47 47 47 45 42 43 42 40 39 40 41
54 50 48 53 57 61 66 70 75 80 84 78 70 64 64 53 36 33 38 44 57 60 58 54 51 46 37 38 42 45 44 46 57 55 55 52 48 46 48 47 45 45 44 42 42 42 43
52 48 50 54 59 63 69 73 79 85 81 72 62 57 54 37 28 23 29 35 42 62 59 54 50 48 47 35 41 39 39 45 53 52 52 52 49 48 48 48 49 48 46 46 45 43 43
49 49 52 56 60 67 72 77 84 86 77 65 59 56 36 24 18 15 20 29 35 57 59 53 51 47 42 36 41 35 36 43 44 49 52 53 52 50 47 48 49 50 49 48 44 44 45
51 50 53 55 61 69 73 80 88 87 71 58 51 48 30 20 16 12 11 17 34 46 58 53 51 47 43 35 39 33 40 36 39 44 46 51 49 48 47 48 48 51 51 49 47 48 48
51 51 54 57 63 70 76 84 91 84 62 53 43 35 24 20 13 17 17 8 27 42 56 52 52 51 46 26 36 30 39 35 36 36 44 46 50 49 49 50 49 49 47 47 47 48 48
50 53 55 59 66 72 78 86 93 74 56 48 36 30 20 19 15 21 18 15 24 41 54 51 50 46 42 30 35 31 31 38 32 35 36 38 47 51 49 46 46 49 50 47 45 45 46
49 53 54 60 68 73 80 89 90 71 49 41 32 30 27 18 14 17 19 10 29 49 52 50 47 43 40 38 37 33 32 41 35 32 33 32 30 39 45 47 48 48 48 46 44 45 47
49 53 54 61 68 74 81 90 85 67 47 34 32 25 24 14 15 19 18 5 33 56 53 48 47 32 31 32 32 32 27 34 35 32 30 29 32 24 27 37 43 44 42 43 43 44 45
48 51 53 60 68 73 81 88 77 61 41 29 29 27 19 13 17 15 5 22 44 59 53 48 41 35 33 33 32 33 28 33 31 32 30 28 26 26 24 24 30 37 39 38 37 40 41
48 49 53 59 67 72 80 85 69 49 40 34 30 25 14 3 10 4 16 34 60 58 48 43 40 32 32 34 31 36 29 29 32 31 29 30 27 26 25 31 29 27 28 27 29 33 38
48 48 52 57 64 71 77 79 56 58 43 37 28 20 13 7 9 20 36 54 60 49 45 43 34 40 35 32 31 33 29 25 32 29 30 31 31 31 29 29 27 26 27 29 29 28 34
54 50 50 54 62 69 75 63 54 61 63 51 39 33 26 27 30 44 53 55 29 52 45 31 33 33 27 26 30 30 26 24 27 31 26 26 29 30 32 29 27 25 26 28 28 27 27
52 49 47 50 59 64 68 46 45 54 56 57 55 53 45 35 48 59 39 23 38 39 38 33 31 32 28 29 27 27 28 27 21 22 21 21 21 22 23 26 26 26 27 25 22 21 20
47 43 43 45 52 56 55 45 45 45 47 48 45 44 43 38 54 32 18 33 48 40 34 34 34 30 27 25 24 26 25 26 24 20 20 21 23 25 26 24 23 23 22 20 18 18 19
47 43 39 40 45 49 49 38 37 35 42 43 51 41 38 38 22 16 16 28 40 32 35 30 28 24 22 21 22 20 21 22 24 21 20 21 22 20 22 21 20 20 19 18 17 19 18
44 39 36 34 38 41 41 31 34 35 34 36 41 39 21 17 24 21 20 20 33 30 24 27 24 17 18 18 18 18 18 18 18 20 17 17 18 16 18 18 20 19 17 16 15 17 19
38 35 34 30 31 34 35 29 25 28 31 34 27 33 34 29 23 29 27 30 18 17 15 17 18 16 17 17 16 17 16 18 17 17 15 15 15 16 17 15 13 13 13 13 15 17 19
32 30 32 26 26 28 27 24 21 23 28 31 24 19 25 36 29 27 24 21 15 17 15 14 12 12 14 17 17 17 15 15 15 14 14 15 15 15 13 12 13 13 14 15 17 18 17
33 35 29 21 19 22 21 21 17 15 24 28 23 19 15 21 25 28 21 17 13 11 10 9 8 10 13 14 15 14 16 15 14 14 16 15 14 13 11 12 13 15 15 17 15 17 15
43 36 28 20 14 16 16 17 16 11 13 16 18 12 12 13 17 21 23 21 17 9 8 8 6 11 11 14 11 11 13 13 13 13 12 12 12 11 11 12 14 15 16 13 12 10 6
43 28 25 27 10 13 12 12 15 13 11 10 6 7 8 9 9 12 15 16 18 18 15 7 5 9 13 12 13 13 13 14 13 12 13 12 11 11 12 14 15 15 12 10 8 8 9
39 31 27 27 15 12 9 8 8 9 8 7 5 5 4 4 3 4 5 8 12 13 16 16 10 5 12 10 11 11 12 13 13 14 13 12 12 13 14 15 14 12 11 11 11 7 5
38 33 30 24 22 13 11 5 6 6 6 7 3 3 7 9 10 9 6 5 4 4 6 6 9 10 4 13 15 13 13 14 14 15 15 14 13 15 17 15 12 12 12 8 8 3 5
36 33 27 22 24 16 14 10 7 6 7 6 7 7 6 7 10 10 10 8 6 6 8 7 8 7 5 4 11 14 16 17 17 17 17 14 15 18 15 13 12 13 10 7 5 5 6
34 31 25 24 25 19 18 15 10 9 9 8 10 10 12 12 13 13 14 12 11 12 12 13 12 12 12 13 18 20 18 18 19 18 16 16 16 16 14 11 12 14 12 8 7 8 7
30 27 25 24 28 22 20 20 15 13 12 13 13 14 14 16 18 20 22 20 19 17 15 14 15 16 15 14 17 21 26 23 21 20 19 18 17 15 14 14 13 13 13 10 11 10 7
29 28 27 25 28 26 22 22 20 17 16 15 16 17 18 18 21 20 24 26 28 28 27 24 20 16 18 18 19 20 24 29 27 23 21 21 19 17 15 15 17 15 14 13 12 11 9
30 26 29 26 29 29 25 24 23 21 19 20 20 21 21 22 25 24 22 26 30 32 31 27 24 21 18 20 19 23 22 25 29 26 25 23 21 19 18 19 17 16 14 13 14 13 12

GFSGBSN_500_spd_036.txt.gz
Wind_Speed
55 57 56 52 53 56 57 63 69 73 78 82 84 68 52 50 51 56 51 38 40 57 59 63 62 56 52 43 37 41 44 44 49 54 52 50 48 47 46 44 46 47 46 44 42 43 42
57 58 56 55 56 57 61 68 74 79 86 89 75 52 47 46 50 33 28 25 28 36 55 61 62 56 53 50 42 46 45 39 41 49 51 51 48 47 47 46 44 44 43 39 36 36 39
56 58 58 56 59 59 65 72 79 86 92 83 59 43 41 40 27 20 18 17 22 29 46 58 59 56 55 54 31 33 40 37 38 41 47 49 48 47 46 47 47 46 43 40 35 34 39
60 60 59 58 61 63 70 77 84 92 87 72 44 39 34 31 19 15 18 17 18 27 35 56 56 55 55 49 39 31 33 33 35 41 47 48 47 48 46 47 46 47 45 41 36 34 40
60 64 59 59 61 65 73 80 88 90 78 54 40 32 26 22 16 13 20 19 17 18 31 54 54 54 53 44 38 37 37 29 37 36 43 48 49 51 49 46 45 47 46 43 39 38 41
63 63 58 60 63 67 74 82 89 78 66 49 32 31 25 21 16 15 15 15 20 20 34 53 52 51 47 49 28 32 37 27 34 33 36 44 48 49 51 49 47 46 45 43 41 40 41
62 61 60 60 62 68 74 83 81 73 65 48 28 24 26 23 14 13 15 19 17 21 37 51 49 47 45 44 31 41 38 29 22 27 30 38 47 50 48 49 47 44 43 43 43 44 43
60 58 62 59 61 67 73 81 74 70 67 49 34 26 25 19 11 12 15 15 6 29 46 49 48 48 49 48 27 38 37 34 29 32 27 42 40 43 46 46 47 47 46 42 40 40 43
59 62 59 58 59 66 73 75 69 74 75 50 34 26 19 12 10 13 17 9 20 37 49 48 48 48 45 31 26 30 26 35 27 34 35 22 34 36 44 45 44 44 44 39 39 40 42
59 60 59 56 59 64 70 64 65 76 77 50 37 23 15 10 9 8 8 21 36 55 49 43 42 42 40 25 36 29 21 29 31 27 25 20 24 24 26 37 40 40 39 38 39 41 42
55 63 55 55 57 61 66 58 62 74 79 53 43 34 22 11 6 10 27 38 56 52 45 42 36 38 34 24 35 29 19 26 34 27 29 30 27 27 22 22 28 34 38 39 39 39 41
57 59 53 52 53 58 60 52 58 67 70 63 48 50 37 29 31 36 46 51 46 45 49 47 27 37 28 30 28 23 21 23 34 27 25 20 17 20 24 25 18 22 26 29 33 34 38
58 58 54 48 49 53 54 46 55 60 58 56 63 67 64 43 50 55 42 29 43 47 46 30 29 33 30 25 27 22 17 19 28 31 28 29 29 23 25 25 25 25 20 23 25 27 31
53 56 49 49 44 47 49 44 49 55 48 46 46 54 57 41 46 27 24 45 40 41 34 23 24 25 27 28 25 23 22 15 25 30 27 26 25 23 27 28 23 23 22 24 25 23 23
52 47 44 44 39 41 44 40 46 47 47 35 33 41 43 37 18 19 28 36 36 26 33 26 29 25 24 22 22 24 23 18 19 28 23 22 22 25 27 28 26 24 24 23 23 21 20
48 42 42 43 39 34 38 41 38 40 37 43 28 28 32 26 17 19 14 28 22 20 24 20 19 18 16 16 19 19 18 20 17 19 20 20 22 21 22 22 21 23 22 22 23 22 21
37 38 40 43 36 29 30 35 33 39 31 33 43 32 32 24 17 23 23 20 13 16 17 17 15 9 10 11 15 16 16 17 20 14 17 16 19 21 21 24 23 23 22 23 21 19 17
36 36 39 39 37 25 24 27 26 31 28 26 31 36 36 33 22 22 21 22 16 10 10 10 7 9 11 14 14 15 15 16 18 17 15 14 18 20 19 18 19 19 18 16 16 16 15
42 37 34 38 31 25 18 20 21 18 23 19 22 27 32 31 23 14 13 9 10 10 11 10 8 9 12 14 16 15 13 14 13 14 16 13 14 16 15 13 14 15 16 16 15 15 15
37 33 32 33 28 27 11 13 14 14 15 15 15 19 21 24 25 16 11 8 7 9 9 6 4 5 10 11 11 12 12 13 13 14 16 15 14 13 14 13 13 14 14 14 14 16 16
36 35 32 32 27 25 12 9 9 11 10 9 9 9 12 13 14 18 21 20 13 7 2 4 6 7 9 8 11 12 12 13 13 14 15 13 12 12 12 11 12 13 14 13 13 14 13
38 34 31 32 26 23 20 10 6 5 6 7 3 5 5 6 7 10 12 15 14 18 11 6 1 5 7 12 11 10 13 14 14 14 14 12 11 10 10 10 12 13 13 12 13 11 11
39 34 34 33 27 23 22 13 11 4 4 4 4 5 8 6 4 3 2 6 8 11 12 15 7 2 6 7 8 9 8 10 12 13 12 12 11 11 11 13 13 13 13 12 11 11 11
38 33 32 32 26 22 21 18 15 10 7 8 7 6 5 6 8 9 8 6 3 2 2 2 4 7 2 11 10 9 10 10 12 13 13 13 12 13 14 14 12 11 12 12 13 13 11
34 30 30 31 25 23 23 23 19 15 10 10 10 10 10 9 9 9 8 8 11 13 9 6 6 6 7 6 6 15 15 13 13 14 15 14 14 15 16 15 13 12 14 14 14 13 10
35 31 29 28 24 22 25 25 23 20 16 13 13 13 13 13 14 13 13 14 13 11 12 12 12 11 11 12 13 14 15 18 19 19 17 17 16 18 17 14 13 14 16 15 15 13 10
32 30 28 26 22 23 25 27 27 24 21 18 16 16 16 16 18 18 19 20 20 19 17 15 13 12 14 15 16 17 18 21 20 19 19 19 19 19 19 15 13 15 17 15 16 12 10
30 31 31 30 27 25 26 27 32 28 25 23 20 19 19 19 23 21 22 23 25 26 26 26 25 21 20 19 19 18 19 20 24 22 20 21 23 21 19 16 17 16 17 17 17 12 12
30 32 33 29 28 27 27 28 34 31 28 26 25 23 21 22 25 27 25 28 28 29 29 30 28 26 27 24 22 24 21 21 21 26 27 25 25 24 21 19 19 20 20 20 18 15 13

GFSGBSN_500_spd_039.txt.gz
Wind_Speed
55 57 61 63 60 59 60 63 68 74 80 79 74 71 52 37 35 36 40 44 46 46 53 60 55 57 63 59 52 48 46 46 45 57 53 50 51 47 49 51 55 52 48 47 44 44 43
56 58 62 61 60 59 61 66 72 78 76 76 78 62 37 36 27 29 26 20 22 26 35 42 63 54 62 59 51 48 43 44 41 45 52 49 50 46 47 46 47 55 47 46 45 44 44
59 60 64 62 65 62 62 67 74 75 75 83 72 49 28 23 21 19 12 16 19 17 23 37 47 53 60 56 48 45 43 39 39 39 49 48 49 48 46 48 45 50 49 44 40 40 42
59 62 62 63 62 60 63 70 76 73 81 81 61 36 25 25 16 16 10 21 14 9 23 27 37 52 56 56 50 37 30 41 37 38 48 47 49 49 46 48 46 48 48 44 39 39 38
56 63 60 64 60 59 65 72 71 76 84 73 55 34 21 19 17 15 13 12 13 16 15 22 40 53 56 53 45 44 24 38 33 38 47 47 49 50 47 46 46 46 47 44 39 37 35
59 60 61 65 61 60 65 70 71 79 84 66 51 35 20 18 18 11 12 10 14 16 10 23 48 54 55 50 45 31 32 30 29 34 41 46 46 51 48 47 47 44 43 44 41 37 35
58 58 66 65 60 59 63 68 72 79 76 66 46 32 21 17 10 6 10 12 14 10 23 37 50 51 50 50 52 34 22 21 23 30 36 39 47 49 46 46 46 46 44 42 40 38 37
56 61 64 61 60 57 61 64 68 73 70 80 50 30 20 11 11 9 9 11 10 17 30 46 48 47 48 44 40 38 29 26 22 24 27 34 40 43 44 43 43 43 41 40 39 40 40
60 58 59 57 55 56 57 61 67 67 70 81 52 39 19 13 11 11 11 5 19 30 45 43 43 45 47 44 37 34 34 28 22 22 28 26 38 44 47 46 45 44 42 41 39 38 39
57 61 55 55 53 54 53 58 64 64 67 77 51 43 35 22 15 16 22 31 40 50 48 43 42 41 42 39 27 36 36 28 20 15 28 25 32 38 42 44 43 42 41 40 38 39 38
56 63 54 51 52 52 53 55 59 64 60 70 50 49 59 47 36 35 42 50 49 48 47 34 41 42 44 25 31 36 32 26 23 22 23 27 28 25 34 35 39 40 39 38 39 39 39
59 61 52 48 49 50 50 49 52 57 53 59 49 55 55 39 44 48 49 48 44 44 41 40 38 39 31 25 25 22 22 28 22 22 20 19 25 25 21 21 31 36 38 38 39 38 39
63 59 50 45 48 44 45 44 45 49 51 48 40 48 54 35 37 42 45 47 46 43 36 34 41 32 17 31 26 23 18 24 23 25 21 22 17 23 25 24 24 30 32 35 36 37 37
60 59 49 43 44 42 39 38 40 42 51 45 32 30 39 30 33 32 37 45 33 30 30 31 28 23 21 29 21 21 18 23 24 20 20 25 22 26 25 26 26 23 26 25 26 26 26
59 59 49 43 40 39 34 33 34 35 39 43 35 28 35 28 30 33 29 25 29 28 28 25 25 21 20 21 16 21 15 17 24 27 20 26 27 23 24 25 24 20 22 22 20 21 21
60 61 49 39 34 37 31 28 27 27 32 38 34 24 28 23 34 28 23 12 21 22 22 22 19 17 15 13 18 13 13 11 18 24 22 20 23 24 22 26 25 21 20 22 20 20 20
61 59 48 30 32 30 27 23 20 20 25 30 34 22 20 15 18 17 20 15 13 14 16 15 15 13 12 12 15 12 11 11 11 18 21 17 17 19 23 23 23 22 22 24 23 22 20
58 53 43 29 31 27 23 18 14 13 16 22 27 24 19 18 21 13 13 15 13 15 14 13 9 9 11 12 14 13 14 14 15 13 17 15 16 21 23 22 24 22 20 20 19 16 15
60 45 37 31 31 27 19 13 17 8 9 13 17 21 19 13 16 13 13 12 10 9 9 9 7 7 8 12 12 13 14 14 15 16 13 17 12 17 18 18 19 20 22 18 17 15 14
53 42 35 28 27 27 20 14 14 8 2 5 8 11 15 17 15 10 7 6 7 8 8 5 4 5 8 9 10 10 12 13 13 14 15 12 12 12 14 15 16 16 17 16 14 14 15
45 38 34 30 26 25 23 14 11 12 5 3 2 3 6 8 10 12 14 11 6 4 4 3 4 5 7 9 10 12 11 11 12 12 15 15 11 12 14 13 14 15 15 13 14 15 14
46 38 34 32 28 23 22 16 12 15 11 8 7 7 4 1 2 8 11 11 12 10 6 3 3 6 8 9 11 12 11 12 12 13 13 12 12 12 11 12 12 12 12 12 13 13 13
48 39 34 29 28 25 21 18 15 17 16 12 7 8 12 10 8 5 3 5 5 6 7 8 4 4 5 9 8 8 9 11 12 12 12 13 12 12 12 12 11 11 11 11 12 12 12
45 38 32 32 30 29 22 21 21 20 19 17 14 11 9 9 12 13 11 9 7 5 3 1 2 3 5 7 6 8 9 11 12 13 13 13 13 13 12 12 11 11 11 11 12 12 14
43 36 31 30 30 32 25 22 24 22 23 21 18 16 13 12 10 10 10 11 13 13 10 8 8 7 7 6 7 13 11 11 11 12 13 14 14 14 13 13 12 11 11 13 13 15 15
38 32 27 28 29 30 28 22 25 25 27 25 22 19 17 15 15 14 13 12 11 11 11 12 10 10 12 12 11 12 14 18 17 15 15 15 16 16 15 14 12 12 13 14 15 18 16
31 34 30 28 32 30 30 22 25 28 28 30 27 23 20 19 18 18 17 17 16 17 17 18 15 13 11 13 14 14 15 17 20 20 19 20 19 18 19 16 14 12 13 15 17 16 16
31 31 28 28 32 34 28 24 24 29 29 33 32 28 23 21 21 21 21 21 21 21 21 22 23 20 22 20 19 17 17 17 17 20 22 21 21 21 20 16 16 14 15 17 18 17 17
31 26 26 29 31 29 25 24 27 30 31 32 34 32 27 23 24 22 22 25 26 27 27 27 24 24 27 26 25 24 22 20 19 19 22 24 23 22 21 18 16 17 18 20 19 20 20

GFSGBSN_500_spd_042.txt.gz
Wind_Speed
59 61 60 58 63 57 55 57 62 68 72 76 75 78 51 30 27 24 23 21 26 30 35 40 46 52 52 69 66 62 58 53 53 55 61 56 54 49 51 53 52 57 52 47 44 43 45
60 63 58 59 65 55 55 60 66 73 74 76 81 65 36 27 21 19 17 9 6 11 25 38 41 55 45 51 64 61 50 50 49 45 59 58 55 49 49 53 52 55 55 46 44 45 46
61 63 59 60 60 56 58 62 68 73 73 75 82 51 36 22 19 21 14 9 11 10 12 22 38 42 48 47 58 56 53 43 43 44 45 56 53 52 46 50 48 54 57 52 43 43 44
62 64 63 58 60 57 59 66 68 71 73 82 66 39 31 24 17 16 15 14 14 9 11 14 25 35 45 48 54 53 44 47 37 38 43 49 52 57 50 51 48 47 51 48 48 41 42
64 63 66 59 60 60 58 66 68 68 76 71 58 39 22 26 13 15 9 11 12 10 9 13 24 28 49 48 51 49 43 41 40 37 38 47 55 55 52 52 49 48 47 46 46 43 41
61 60 63 62 58 57 57 64 63 68 74 65 60 44 20 16 13 9 9 10 11 11 9 21 24 36 48 50 49 47 42 39 36 36 37 41 41 53 54 54 46 44 44 44 45 43 39
60 63 62 64 57 56 56 59 62 66 65 71 72 53 24 13 12 11 12 12 13 11 8 23 29 54 50 48 50 41 38 32 39 36 32 42 40 48 50 49 46 44 43 40 41 42 38
62 62 59 65 55 56 53 55 59 62 59 70 73 54 38 15 15 13 11 14 5 15 23 38 50 51 52 53 51 46 31 29 24 29 38 42 39 44 53 51 46 44 45 43 40 41 40
63 63 61 64 55 53 50 53 57 59 53 63 66 53 42 34 18 12 16 25 28 40 48 42 45 54 51 48 42 39 36 23 24 27 37 37 39 42 51 50 48 45 43 42 39 37 36
64 63 58 63 53 49 47 50 52 54 49 56 55 52 47 42 41 43 46 47 48 51 47 41 47 50 57 54 49 33 22 24 29 22 26 33 34 39 45 47 47 45 44 43 41 38 37
61 63 55 61 49 45 44 46 46 51 42 46 42 46 47 47 49 53 55 49 45 43 47 38 38 48 46 36 30 26 15 17 24 25 28 26 31 37 42 43 44 44 42 40 38 35 37
61 62 61 59 45 41 39 39 43 48 39 37 36 39 40 42 45 42 38 41 41 42 33 35 42 42 40 27 27 33 8 21 20 13 32 22 27 28 37 39 41 40 39 38 37 37 38
63 60 59 53 40 37 35 32 35 43 38 31 33 35 36 41 41 33 32 35 39 36 41 42 38 32 20 23 27 24 20 18 19 24 26 24 29 24 23 33 35 37 37 38 39 41 42
63 61 52 45 35 33 30 26 26 34 33 24 24 30 33 35 38 40 26 22 25 33 38 38 35 19 19 27 24 18 17 25 20 16 23 20 32 23 26 25 26 32 37 41 41 41 40
59 55 51 38 30 29 25 22 18 27 29 21 21 24 25 22 25 27 28 21 30 33 36 26 18 20 19 16 19 16 14 17 18 18 20 24 27 25 27 28 24 26 31 34 35 37 34
59 52 45 35 29 24 22 18 11 17 22 16 16 19 25 21 21 19 20 22 24 24 19 15 17 18 16 12 14 12 6 8 19 19 24 27 26 28 28 30 29 26 22 26 25 26 26
55 51 40 32 29 23 19 14 9 8 14 13 15 11 11 13 17 18 12 17 15 15 15 14 14 14 13 13 13 13 12 10 16 20 21 22 25 24 25 27 27 26 23 23 24 24 22
52 47 38 31 28 27 17 12 9 3 6 8 6 8 11 9 9 15 11 8 9 14 13 10 9 10 11 14 15 12 11 11 11 19 22 19 17 20 22 23 25 23 23 21 23 22 21
53 46 37 33 27 27 21 14 9 4 5 7 4 5 4 5 7 8 9 9 9 10 9 7 8 8 8 11 13 12 13 13 12 10 15 18 17 18 20 21 21 21 22 21 21 23 21
54 49 41 34 25 24 24 14 11 10 8 10 7 3 4 6 6 4 5 5 6 9 9 8 7 7 8 11 10 10 11 12 13 14 12 18 15 12 15 19 21 22 23 23 19 18 21
57 54 46 34 22 21 23 20 13 15 11 13 12 10 6 3 2 5 5 7 6 5 5 3 4 5 8 9 10 11 10 12 12 12 15 15 14 11 13 16 18 18 18 18 19 21 19
58 56 47 30 21 21 23 23 14 18 18 15 14 14 14 9 5 4 4 4 5 5 5 6 7 9 9 10 10 10 12 12 14 14 14 16 13 13 12 14 14 15 16 17 18 17 18
60 58 47 31 24 21 21 23 19 20 23 20 17 17 17 16 14 12 8 7 4 3 4 1 4 7 9 10 10 11 13 13 13 12 13 14 14 14 15 15 15 14 13 14 15 16 17
63 59 43 31 23 21 22 25 20 19 27 26 22 19 17 18 17 18 16 15 12 9 5 3 1 3 6 9 9 9 10 13 14 14 14 14 15 15 16 16 14 13 13 13 14 15 16
59 52 35 25 22 18 23 27 24 19 27 30 27 23 21 19 17 14 15 18 19 17 14 11 10 8 7 6 9 11 10 12 13 15 15 15 15 16 15 14 14 13 13 13 13 15 16
55 47 29 23 21 23 22 27 26 20 24 31 31 28 24 21 21 19 16 15 14 13 14 16 16 13 12 12 12 10 12 17 14 14 15 16 18 18 17 16 15 13 14 14 14 16 17
56 39 24 23 24 27 27 29 26 22 23 31 31 32 28 25 22 20 19 18 18 17 16 16 15 14 14 14 13 12 13 14 16 20 20 19 20 20 20 18 16 14 14 14 16 17 18
52 25 24 24 26 30 31 29 24 23 24 25 32 32 32 28 25 23 21 20 19 19 19 20 21 19 20 19 19 18 16 14 15 16 20 25 25 24 24 21 19 15 15 16 17 19 15
32 26 28 26 26 30 33 31 26 23 25 26 30 32 35 32 29 26 24 25 23 24 23 23 22 22 25 25 24 24 24 24 21 17 18 19 24 25 25 24 22 19 18 18 18 20 19

GFSGBSN_500_spd_045.txt.gz
Wind_Speed
58 62 66 65 68 60 56 57 62 65 71 73 72 69 53 36 32 23 20 18 15 18 21 30 35 37 55 74 73 66 63 60 54 50 51 54 54 53 51 52 53 52 54 56 54 41 40
58 63 64 64 69 61 58 61 60 66 69 71 74 66 37 32 23 23 21 18 14 13 17 24 29 35 36 58 69 71 60 59 55 50 49 53 51 50 52 51 51 51 57 55 53 41 43
58 64 66 62 66 62 58 58 59 67 69 70 71 62 39 25 20 18 16 14 15 8 10 14 29 33 30 41 58 68 56 53 54 51 47 51 53 51 48 49 52 52 55 50 55 45 44
60 65 67 63 70 61 56 56 59 64 67 69 69 59 39 18 21 17 14 13 16 13 11 10 21 32 28 39 47 52 53 46 51 45 47 43 55 52 49 47 49 50 52 54 49 46 45
61 63 66 62 71 59 56 54 57 60 62 66 66 57 38 16 12 14 11 6 10 10 10 4 15 24 35 37 37 46 49 46 43 45 43 43 46 57 53 51 50 50 48 51 46 47 44
61 62 64 60 67 56 53 50 56 53 60 64 65 58 42 18 14 13 10 10 10 11 8 4 14 20 33 41 40 44 46 44 37 36 40 43 42 46 58 56 52 49 47 47 47 47 45
60 63 63 65 61 54 49 47 54 49 56 60 63 57 51 29 16 15 15 12 12 9 4 14 22 30 40 46 47 43 42 45 40 34 35 39 40 37 41 51 52 49 46 46 44 45 51
61 63 63 63 56 51 47 44 52 47 50 53 57 58 57 46 33 25 20 16 14 16 18 23 29 42 45 50 49 47 40 43 40 42 37 35 33 38 45 55 55 51 48 48 41 39 40
60 64 61 58 51 47 43 40 47 44 43 46 50 53 60 54 53 52 52 47 43 37 33 41 41 49 52 47 51 50 46 39 37 37 34 32 31 33 46 51 54 53 47 46 41 35 37
62 65 61 51 46 42 38 36 42 39 38 41 44 45 50 46 43 48 53 44 40 40 38 38 41 42 38 31 34 42 42 33 36 33 29 29 33 30 35 44 52 53 49 45 41 36 36
65 65 60 45 41 38 35 30 37 34 32 36 42 41 44 39 34 34 34 34 33 39 40 20 30 33 30 38 40 33 17 25 28 26 26 28 36 36 38 36 49 51 47 43 40 39 37
65 64 54 41 37 35 32 24 29 30 25 27 35 41 44 37 33 33 34 30 27 26 26 27 44 35 36 30 26 23 7 21 25 22 31 29 27 30 37 41 45 47 44 40 39 38 38
65 65 54 38 35 33 28 23 22 24 21 16 27 32 33 32 27 23 27 22 26 32 33 38 37 36 31 25 14 15 18 22 22 24 28 27 24 27 30 39 44 42 40 38 38 37 36
66 63 57 40 33 33 26 22 17 17 16 13 17 24 27 27 24 19 18 18 27 31 30 28 25 16 8 11 14 14 10 18 18 15 25 23 26 26 27 36 35 36 36 37 37 38 38
64 62 58 46 34 35 24 19 13 12 9 9 9 17 17 20 21 16 18 16 27 25 18 13 12 13 11 14 12 10 8 15 15 19 29 19 29 24 23 23 36 36 35 36 36 39 40
57 63 59 47 38 31 28 17 12 9 4 7 5 10 12 10 14 17 14 16 20 14 12 12 16 15 12 13 12 8 8 13 12 13 18 23 25 25 22 24 25 30 32 37 38 37 39
53 60 60 53 46 31 31 20 13 9 7 1 2 3 5 7 8 11 14 7 11 2 4 7 7 8 9 9 11 13 10 11 15 16 18 21 24 27 21 26 26 21 30 25 31 33 32
53 57 62 59 52 29 27 27 17 13 11 6 3 2 2 5 5 7 8 8 7 6 5 6 6 5 4 4 8 11 10 11 16 21 20 25 23 29 22 27 25 26 25 23 24 26 23
51 57 60 60 58 30 29 27 20 16 14 13 8 6 4 4 3 3 6 10 11 10 7 6 7 8 8 9 10 10 9 10 11 18 23 22 19 23 26 26 27 27 27 25 21 20 21
51 54 60 63 56 30 29 26 26 19 19 18 14 10 6 4 3 5 7 8 10 12 10 8 9 9 9 10 11 11 10 10 10 9 14 21 20 18 19 23 25 25 24 25 25 22 21
52 52 57 62 55 30 29 25 27 18 21 21 22 16 13 9 6 3 6 8 10 13 12 10 9 8 9 10 11 10 10 10 11 13 13 13 17 16 14 18 22 23 25 23 23 23 25
52 53 57 61 53 32 25 25 26 24 21 25 23 24 21 17 13 9 6 6 9 10 12 13 12 12 11 12 12 12 12 11 12 12 14 15 15 16 15 17 19 20 20 20 22 24 20
50 55 59 59 54 40 24 24 23 26 20 27 27 25 24 23 20 16 12 9 7 4 1 3 9 11 12 12 13 14 13 14 13 14 14 14 15 16 15 15 16 16 15 17 18 20 23
53 54 57 60 58 38 19 24 25 28 18 25 31 30 27 26 26 24 22 18 15 12 9 6 4 4 7 11 12 11 12 14 14 14 14 14 15 15 15 17 15 13 15 16 18 20 19
54 56 57 60 58 37 22 23 27 27 21 23 30 34 31 28 26 27 27 26 24 21 18 15 12 9 7 6 10 10 11 12 13 14 15 16 16 16 17 18 15 14 15 15 18 18 19
57 55 58 63 58 27 26 23 27 29 24 21 25 33 34 31 29 26 23 23 25 26 25 23 20 17 15 13 12 12 12 16 14 13 15 17 18 17 17 17 17 14 16 16 17 17 18
51 53 60 59 46 26 25 28 31 32 28 22 26 25 34 35 32 30 27 25 23 21 20 19 17 16 16 15 16 15 14 14 14 17 18 17 19 20 21 21 19 16 17 17 18 16 18
54 55 60 50 34 33 27 30 32 29 26 24 25 28 29 31 36 32 29 26 26 25 24 21 22 19 19 20 19 17 18 17 16 15 17 22 24 22 23 23 21 20 19 19 17 18 18
50 54 52 39 34 39 38 31 30 28 27 25 24 28 28 32 33 36 32 29 27 25 24 24 23 24 26 24 23 25 23 23 24 22 20 20 22 23 28 27 26 24 23 21 21 20 19

GFSGBSN_500_spd_048.txt.gz
Wind_Speed
61 64 66 69 68 68 60 56 57 62 66 64 69 69 58 41 29 26 23 23 17 14 12 17 27 34 32 58 63 69 65 60 55 53 50 49 51 51 50 46 55 49 48 45 45 47 46
60 64 65 67 72 64 58 54 59 64 62 65 69 67 57 31 19 19 22 18 14 10 12 13 19 29 34 34 58 65 64 62 57 53 49 47 48 49 48 50 49 51 47 47 50 48 43
61 66 66 69 73 61 56 53 57 63 59 64 69 67 57 25 16 18 22 13 11 8 3 8 10 26 42 30 48 58 64 49 55 52 47 46 47 50 49 49 48 52 57 45 50 46 39
62 66 69 73 70 59 54 51 54 57 56 62 69 66 55 27 15 13 13 13 7 8 9 11 10 20 28 34 39 49 61 48 55 45 47 45 45 48 49 48 48 49 53 51 44 49 46
63 67 70 73 65 57 51 49 52 51 52 57 64 61 62 41 19 15 12 9 6 6 6 10 4 22 33 28 31 47 55 53 45 49 44 43 42 44 47 45 48 49 46 48 44 42 45
63 68 71 72 60 55 48 47 50 45 50 54 60 56 58 63 46 20 14 9 7 7 5 1 12 21 29 28 39 44 48 49 42 41 43 42 41 43 47 45 44 40 38 40 43 44 44
63 69 74 70 55 53 46 44 47 40 47 51 54 56 54 55 54 51 27 10 5 7 6 13 14 31 26 30 46 43 43 45 38 33 38 39 39 35 32 37 40 43 40 39 40 44 47
63 69 72 66 53 50 44 42 44 36 44 48 47 42 52 59 57 54 47 32 26 19 18 24 24 34 31 41 49 45 44 41 38 36 35 32 31 32 32 35 49 47 45 39 41 43 42
63 67 71 65 50 47 42 39 40 32 38 43 45 36 38 44 51 40 44 44 39 32 28 29 42 43 47 42 38 36 39 38 31 24 25 29 29 32 31 34 44 51 48 46 43 42 40
60 66 71 66 51 45 45 38 36 31 31 36 40 37 35 45 48 36 32 48 45 35 34 37 42 46 33 27 26 38 36 37 34 27 28 29 26 28 29 35 37 47 52 49 46 39 39
58 64 70 67 55 46 45 36 32 31 26 30 33 31 33 38 37 31 27 29 19 22 31 38 41 40 46 19 39 41 37 32 33 35 35 32 28 26 27 26 34 41 49 50 47 43 44
56 62 69 67 57 51 44 39 32 29 22 22 26 29 29 31 32 25 21 21 19 26 27 20 19 24 27 26 32 36 35 35 36 34 29 26 26 24 24 25 31 37 43 48 47 45 43
54 61 66 66 58 52 46 40 29 27 19 18 20 23 24 23 24 24 24 25 20 28 31 32 30 23 18 23 35 38 7 20 34 28 25 23 21 28 22 32 29 33 37 44 44 44 41
52 57 62 65 63 50 45 37 32 23 20 13 16 16 20 15 16 17 19 18 20 22 27 26 25 18 11 10 18 14 11 22 21 22 25 19 25 26 29 33 34 37 30 39 41 40 38
49 54 59 63 63 57 38 32 35 23 19 13 8 9 12 13 9 12 20 16 16 14 13 8 9 7 8 10 6 10 9 19 14 22 24 25 20 24 25 25 29 34 34 35 36 36 37
47 52 56 62 63 64 38 30 34 26 20 16 10 4 4 4 5 8 8 5 12 14 11 10 8 9 9 8 10 9 13 16 13 16 22 26 24 23 25 24 24 31 28 32 33 32 32
46 50 54 61 63 64 53 32 32 33 21 18 12 8 3 2 2 6 7 7 1 8 6 5 4 6 7 7 6 6 9 10 7 14 14 18 15 26 16 20 17 22 32 30 32 33 33
44 48 52 58 62 63 58 36 26 34 28 22 15 13 9 6 7 7 7 11 10 5 6 4 3 2 1 1 2 5 5 7 10 12 14 15 18 18 19 19 17 19 26 28 33 33 35
41 47 51 58 59 62 61 47 28 29 30 21 20 15 12 10 8 10 11 11 11 10 7 5 5 6 5 5 5 6 5 6 8 13 15 17 19 18 21 21 21 21 22 24 26 18 22
41 44 53 57 58 61 61 51 33 23 34 21 23 19 16 14 12 11 11 12 12 12 11 9 8 10 10 9 7 8 7 7 8 8 13 20 20 21 20 22 21 19 22 26 27 23 17
40 44 50 56 60 60 66 57 42 24 32 22 22 25 20 17 14 10 12 12 12 12 13 12 11 10 11 10 9 8 9 9 10 11 10 13 18 22 20 19 20 25 26 26 25 21 25
39 42 46 53 55 59 60 55 39 32 27 28 22 27 27 23 20 16 13 11 11 11 12 13 13 13 13 11 11 11 10 9 10 11 12 13 12 16 17 16 17 19 23 27 25 27 28
42 43 45 51 55 59 62 59 36 27 27 32 21 25 30 30 28 24 18 15 11 9 9 9 10 11 13 13 13 13 11 11 12 11 12 12 14 15 17 17 17 15 17 19 22 23 26
43 46 48 50 53 58 61 57 35 24 30 31 21 22 30 32 32 30 26 21 18 14 11 8 5 3 5 8 12 14 15 14 14 13 13 12 13 14 16 18 18 13 16 17 16 18 17
43 46 49 49 51 57 61 52 31 25 31 36 24 24 25 35 35 33 30 29 26 23 20 16 13 11 8 5 6 8 10 10 11 12 12 13 13 13 13 13 13 12 13 14 17 18 19
44 48 49 50 54 56 60 55 29 28 31 36 29 24 26 30 35 36 35 34 33 30 28 25 22 21 18 16 13 10 10 12 13 12 12 13 14 14 15 15 14 11 13 13 14 15 17
46 50 53 53 56 59 57 53 42 30 33 33 28 22 24 27 32 36 36 35 32 32 30 30 29 26 25 23 22 19 15 14 12 12 15 15 15 15 17 16 14 12 15 15 14 14 15
47 49 47 50 56 60 57 46 35 31 34 30 27 24 25 26 30 36 38 37 35 32 28 21 24 21 21 19 17 16 15 16 16 16 15 17 19 19 19 18 17 18 18 17 15 16 16
47 49 45 53 56 57 51 41 31 29 32 31 31 26 25 25 30 33 34 39 36 34 32 28 26 26 24 23 22 22 21 20 18 19 18 19 18 18 21 23 23 22 22 20 18 18 18

GFSGBSN_500_spd_051.txt.gz
Wind_Speed
59 65 70 75 77 70 63 63 59 59 57 61 66 70 75 62 27 16 16 18 18 17 13 11 15 29 28 39 54 64 60 61 57 52 49 45 45 48 47 48 47 52 52 43 54 49 50
59 66 71 76 76 67 61 60 57 58 55 59 60 69 78 67 25 16 18 20 14 10 9 12 14 35 30 33 34 53 62 60 55 53 49 44 41 45 46 47 46 45 52 49 56 57 51
57 64 70 75 75 66 60 58 54 55 54 54 58 66 72 77 55 18 18 14 10 5 1 5 3 25 30 40 27 40 54 58 53 49 48 45 43 44 47 46 47 48 48 51 42 62 55
57 63 68 74 75 64 57 56 51 51 53 55 53 66 68 70 74 28 16 11 10 4 2 6 5 15 31 34 28 38 50 53 50 48 46 45 44 43 45 45 46 49 45 52 42 43 45
58 63 67 73 75 62 57 55 47 47 51 52 51 61 68 66 68 49 16 8 8 6 5 7 4 20 41 29 35 40 51 56 40 38 48 51 44 42 43 44 45 47 44 40 47 37 35
58 62 67 72 73 64 55 54 47 45 46 49 47 54 60 57 57 61 34 14 12 9 4 5 9 23 34 31 36 46 54 57 48 46 32 37 42 42 41 42 41 38 35 37 38 46 36
56 61 67 73 74 70 56 52 45 42 40 44 44 50 51 45 57 66 53 34 20 14 14 14 21 21 27 26 31 51 47 50 43 35 42 36 38 36 34 36 37 36 37 39 35 38 42
55 59 65 70 72 70 55 52 45 41 37 41 42 44 42 34 48 58 56 40 26 26 24 25 27 23 21 28 44 51 61 51 54 38 34 33 34 33 33 32 35 37 36 35 38 37 38
53 57 63 67 70 69 61 53 48 40 34 36 38 40 38 34 40 50 41 38 35 31 33 31 26 26 48 45 36 45 52 42 42 28 35 31 30 32 32 29 31 34 35 36 37 36 36
55 55 61 65 70 70 65 50 49 38 32 34 34 35 37 31 35 38 29 31 34 32 37 46 47 39 31 26 21 31 44 47 38 30 31 25 27 28 26 25 25 26 34 41 41 35 34
53 54 57 63 67 69 67 51 44 42 33 28 29 28 31 34 38 33 32 32 27 29 28 28 29 34 29 19 31 47 40 32 28 23 26 26 26 24 24 24 27 29 33 42 44 43 42
47 51 56 60 65 68 67 52 42 43 31 24 23 21 23 27 30 26 28 33 29 24 25 21 25 20 24 24 31 35 27 28 28 25 23 24 25 25 25 26 27 29 35 36 43 48 48
45 48 53 59 63 66 67 62 38 44 34 22 18 13 13 18 21 20 22 26 32 32 28 23 29 25 26 26 33 30 28 25 26 24 22 20 23 23 25 27 27 26 29 32 37 47 47
45 46 48 55 59 64 66 61 48 37 37 24 16 11 5 9 16 16 18 21 18 25 21 28 21 13 12 19 31 19 16 20 24 27 23 26 28 29 29 26 30 28 23 23 27 33 38
40 43 45 52 56 61 67 64 58 37 35 28 17 11 6 4 8 5 10 13 16 15 10 3 10 17 14 20 15 11 13 25 26 26 26 26 24 20 26 24 27 31 26 26 26 26 33
36 40 42 48 52 57 63 64 60 39 32 32 21 11 11 9 7 9 4 4 10 15 12 12 11 11 13 13 13 18 17 24 17 21 24 25 20 14 18 22 24 26 29 28 31 31 29
33 38 40 43 48 52 60 65 64 53 30 30 24 16 12 13 11 10 12 9 6 9 6 6 7 8 7 7 10 14 14 12 9 17 22 21 19 21 19 25 23 27 32 34 33 28 26
32 37 42 40 44 50 57 63 66 59 36 26 28 18 14 13 15 13 13 15 13 10 6 2 2 3 5 4 4 5 7 8 6 4 9 15 17 17 21 18 21 21 24 30 33 27 26
32 37 39 40 43 50 56 62 64 62 39 24 29 18 16 15 15 15 17 16 17 14 9 5 3 2 1 2 4 4 5 5 7 10 14 15 14 14 18 19 16 17 17 18 21 23 26
32 37 39 44 43 46 55 59 65 63 52 20 28 19 19 18 17 20 17 15 17 16 12 10 8 6 4 4 3 6 7 6 7 8 12 15 17 18 17 17 20 18 20 18 25 24 20
34 38 39 41 41 46 53 59 62 64 55 26 27 19 17 22 20 18 16 14 15 15 14 12 12 9 8 6 5 7 9 9 9 10 10 10 16 20 18 17 18 19 22 19 21 18 25
33 34 35 37 37 43 51 58 62 65 58 40 26 24 17 23 25 23 18 14 12 14 14 13 13 12 11 9 7 8 9 9 9 10 11 12 11 11 16 18 20 19 20 23 22 22 23
35 34 34 36 39 45 51 61 61 64 56 36 27 27 19 19 29 29 23 19 16 11 12 12 12 13 13 12 12 10 11 10 12 11 11 12 13 14 13 15 17 15 17 19 22 25 28
38 34 35 39 42 46 50 58 63 64 55 34 27 26 20 18 25 30 28 26 20 18 13 11 8 6 7 7 9 11 12 12 12 12 12 12 13 13 14 15 16 14 15 16 16 19 24
40 39 40 42 45 49 52 57 63 64 59 41 26 24 15 16 19 29 30 34 30 27 21 18 15 11 8 6 5 6 7 8 9 11 12 12 12 12 12 13 13 13 14 14 15 16 14
39 42 42 44 46 49 51 57 64 65 59 40 30 24 15 15 22 22 31 34 36 32 30 24 22 19 17 16 13 9 8 8 9 9 9 9 10 11 12 12 13 10 12 11 10 12 16
39 40 41 45 46 46 52 58 64 64 57 39 31 19 15 15 20 23 25 35 36 36 34 32 28 27 26 24 23 19 16 14 12 11 11 13 12 11 12 12 12 11 13 13 12 11 11
41 40 42 48 48 47 54 59 64 62 54 42 34 26 19 17 18 25 24 29 35 36 36 31 32 31 28 24 22 20 18 17 16 15 15 15 14 14 16 13 12 13 13 14 14 14 14
40 42 42 49 50 50 53 61 63 57 43 40 33 30 19 19 19 20 23 29 36 31 36 33 31 29 26 22 20 20 18 18 17 15 15 18 18 16 15 15 16 18 17 17 17 16 17

GFSGBSN_500_spd_054.txt.gz
Wind_Speed
55 55 65 72 75 78 78 68 64 56 53 55 57 60 64 73 80 53 18 15 22 23 18 14 12 13 32 31 38 60 64 63 55 53 57 52 47 48 48 48 51 51 57 55 48 47 45
55 58 67 73 75 79 77 66 62 54 52 51 54 56 62 71 80 69 21 16 18 11 10 11 12 10 28 28 32 54 62 60 59 46 53 50 46 44 45 45 49 48 53 60 55 51 45
53 61 65 69 74 78 76 68 62 52 48 50 52 55 55 67 77 71 34 14 15 5 2 5 4 13 25 34 34 48 60 58 53 50 50 47 46 43 43 43 46 48 48 55 57 53 53
53 58 63 67 73 77 77 68 60 50 46 47 51 56 61 65 70 69 45 21 10 5 4 4 6 8 29 31 34 36 59 56 51 47 50 44 44 43 41 43 46 49 46 48 53 51 52
50 58 59 65 73 76 77 67 58 48 44 45 49 55 58 59 59 60 50 31 17 9 5 7 5 13 27 32 36 39 56 55 47 47 43 43 44 42 41 40 44 45 45 45 42 53 41
50 55 59 63 70 75 78 72 58 50 44 43 45 50 55 48 49 53 49 40 23 16 10 7 7 19 34 32 30 41 54 55 45 39 48 42 44 43 41 38 38 38 39 39 37 40 49
49 50 55 61 67 72 77 75 58 51 41 41 42 46 50 49 47 45 52 43 30 23 20 17 18 26 30 32 37 44 48 52 48 44 40 42 37 38 38 35 35 33 36 38 36 37 44
45 49 53 60 65 71 74 73 58 51 42 37 37 41 43 41 46 46 44 41 33 30 24 23 23 31 32 33 45 57 42 42 35 43 38 39 36 34 33 32 30 33 36 36 34 37 36
43 47 50 55 62 67 72 74 62 49 44 33 31 33 36 36 43 44 39 42 41 34 34 30 23 27 25 38 58 45 33 51 37 48 34 30 30 35 36 31 30 31 32 34 34 36 36
44 44 49 53 58 62 70 73 73 50 42 30 26 24 29 31 36 41 33 31 34 36 32 36 41 31 34 59 35 34 33 38 28 27 35 32 34 33 32 30 29 27 33 34 34 32 33
42 42 45 50 55 60 67 72 70 54 39 31 21 19 22 27 29 34 37 25 31 30 29 26 30 27 39 33 19 41 36 37 30 31 35 34 33 30 29 26 26 26 28 29 32 34 34
40 40 40 48 51 55 63 68 71 65 43 35 18 15 18 23 20 25 30 29 28 35 30 29 30 17 23 31 20 38 38 38 27 29 25 27 27 28 27 25 25 24 24 25 30 36 41
38 39 36 45 49 52 59 65 69 70 54 34 23 13 14 16 14 17 20 23 22 26 32 22 18 19 27 38 32 25 28 19 25 19 23 26 26 24 24 25 24 26 27 29 33 37 38
36 39 37 41 47 49 56 61 68 72 69 41 26 12 10 13 7 9 14 17 13 13 21 20 17 20 32 29 16 24 28 19 25 21 23 25 27 25 24 24 23 26 29 29 29 35 32
35 37 38 40 45 47 53 60 64 70 72 54 29 16 12 13 13 7 6 9 11 15 17 15 16 18 24 23 15 11 18 22 22 20 18 18 18 20 21 20 24 27 29 25 22 22 24
36 36 37 38 44 45 50 58 62 68 72 65 34 24 10 14 15 12 8 1 3 8 11 12 13 14 14 12 12 15 17 19 17 17 18 18 18 16 17 22 26 27 28 29 26 28 25
36 40 36 36 39 43 50 54 58 64 72 69 45 28 16 13 15 14 13 9 4 1 5 6 8 9 11 9 8 9 15 15 14 18 20 20 20 21 20 20 22 26 19 29 30 30 28
37 39 34 34 35 40 47 51 55 62 70 72 56 27 21 13 16 16 14 14 11 9 7 2 2 4 8 11 11 11 17 15 13 20 22 25 28 24 23 21 21 25 25 26 27 31 34
39 39 34 32 34 40 44 49 52 60 71 76 62 32 19 14 17 16 15 14 14 12 11 11 4 4 7 7 10 13 15 16 16 14 18 23 24 23 19 21 24 20 21 23 24 27 31
38 41 37 31 32 42 43 46 51 58 69 75 60 37 20 15 17 19 18 16 15 14 13 12 10 7 7 9 10 11 13 13 12 12 14 15 16 16 17 17 20 22 20 22 23 20 17
39 42 39 33 33 40 41 42 49 57 66 74 67 45 25 16 16 22 19 15 13 14 13 13 11 10 8 8 8 11 15 13 13 12 13 15 19 21 21 22 22 22 21 23 18 18 19
48 46 39 35 33 39 40 43 48 57 63 68 64 52 31 18 15 22 21 16 13 13 12 13 13 12 9 8 8 10 13 15 15 14 14 15 15 14 17 21 22 21 19 18 18 23 19
52 45 38 35 35 38 38 42 48 55 62 68 70 62 43 21 16 19 24 20 17 14 13 13 13 13 12 12 13 13 12 15 15 14 14 15 16 16 13 14 16 16 17 20 21 21 22
50 45 41 36 33 36 37 41 51 53 60 67 71 61 40 21 16 18 24 27 25 19 15 13 13 13 12 12 12 13 14 15 15 14 15 15 16 15 14 16 15 12 15 16 14 18 22
55 45 42 37 34 36 37 41 50 54 60 65 71 61 42 21 15 20 19 28 32 27 22 18 16 13 10 9 7 8 11 13 15 15 15 16 15 15 16 15 13 14 15 15 14 15 16
52 47 42 40 38 37 40 48 49 54 59 64 72 58 35 16 13 17 20 22 31 33 29 27 22 19 15 13 10 7 7 10 12 12 13 15 14 14 14 13 13 12 13 14 13 13 13
54 49 43 42 43 43 45 48 47 53 59 65 70 52 32 22 14 18 18 22 27 34 33 33 28 26 23 21 18 16 15 15 13 12 13 14 13 12 12 11 13 15 13 13 14 11 11
49 45 41 43 44 42 45 47 50 53 57 62 66 55 43 29 17 18 19 17 25 30 34 35 35 32 29 28 24 23 22 22 20 18 17 15 13 13 14 13 13 13 14 16 14 15 15
45 42 38 41 43 44 48 49 52 49 57 58 66 55 39 28 17 18 20 17 19 28 33 34 35 33 32 30 27 23 18 18 20 16 17 17 16 15 14 13 14 16 17 17 17 19 19

GFSGBSN_500_spd_057.txt.gz
Wind_Speed
44 48 51 58 67 73 79 82 72 65 57 52 55 58 58 55 61 69 66 34 19 19 17 16 15 15 18 24 36 61 69 67 62 61 54 58 52 50 49 46 47 52 55 49 51 49 49
42 48 49 56 64 70 77 81 76 65 54 49 53 56 55 54 64 67 64 40 22 22 8 8 11 13 13 23 24 52 65 65 58 53 56 54 52 48 48 45 46 49 60 48 48 53 45
40 49 48 55 61 69 75 81 76 64 55 49 49 51 56 54 63 64 59 46 25 16 8 7 8 13 13 31 25 38 59 63 53 47 55 47 52 49 46 45 45 50 55 48 39 41 53
40 46 46 52 58 67 74 79 79 65 55 46 45 45 51 49 54 59 59 47 32 20 10 9 5 6 12 27 36 20 57 63 54 43 49 50 54 49 47 45 44 46 48 54 53 40 44
39 43 45 49 56 63 69 77 80 68 58 43 41 43 46 48 49 54 60 53 40 29 15 8 5 5 22 28 36 30 58 62 58 57 35 40 54 51 47 46 46 46 48 43 44 52 45
37 42 44 48 52 60 64 73 79 68 52 41 35 38 43 46 45 48 52 55 46 34 26 10 5 20 30 26 19 33 58 61 57 58 34 37 50 51 45 44 37 33 45 43 39 40 46
38 42 44 48 48 56 63 72 79 71 62 47 33 33 41 42 40 44 44 50 48 38 26 17 20 28 23 22 21 33 51 54 51 43 42 34 40 46 42 39 36 30 35 38 38 38 45
37 41 43 46 49 53 60 67 75 76 70 45 32 29 36 37 41 36 44 41 44 42 25 23 23 24 25 27 27 36 48 46 44 41 31 31 36 41 38 36 35 31 30 33 34 35 38
37 39 44 45 47 51 58 62 71 75 68 52 37 28 29 32 35 37 42 38 36 41 30 17 16 20 22 25 35 48 48 24 32 38 31 32 34 40 36 33 29 28 30 30 31 33 36
34 38 41 43 42 49 55 61 68 76 72 61 40 27 25 26 26 34 35 42 34 29 34 22 14 16 28 51 40 39 32 33 40 36 31 36 33 35 36 32 31 28 28 30 29 31 32
31 34 39 42 41 45 52 57 64 73 78 56 49 30 23 23 21 25 28 31 38 34 29 32 31 35 47 30 29 27 33 35 34 39 36 28 31 31 31 31 30 29 27 27 29 29 31
28 32 39 41 41 42 48 54 61 70 75 68 54 35 19 19 15 22 26 25 28 31 26 23 22 16 16 11 26 25 24 31 39 33 34 23 28 30 34 34 30 27 25 23 25 29 32
23 31 39 41 41 39 46 53 59 66 72 76 61 44 22 17 15 17 20 22 24 25 19 15 8 13 16 3 14 20 25 34 39 35 31 27 29 26 28 32 29 25 24 25 24 25 24
24 33 37 41 41 38 41 50 55 61 69 75 63 47 29 18 15 14 13 16 19 20 18 18 13 19 11 7 15 19 26 32 32 30 27 26 29 27 26 25 23 23 23 23 25 27 27
25 30 34 39 42 37 39 48 51 58 64 72 75 58 31 21 16 14 10 8 11 15 15 14 20 21 24 18 22 17 9 20 20 24 28 26 25 26 25 24 25 24 27 27 29 30 30
25 27 34 40 43 36 37 44 48 54 60 70 77 66 35 26 17 14 12 5 4 7 9 10 12 14 13 13 11 13 17 16 20 16 20 22 22 22 22 22 24 23 22 27 29 30 25
20 27 31 38 43 38 36 41 46 50 60 69 76 68 39 23 18 16 11 9 8 2 3 5 9 8 6 10 15 18 19 20 18 18 19 21 20 21 22 22 20 23 24 25 24 28 30
20 26 30 39 44 42 36 39 41 51 58 64 74 73 51 28 23 18 14 12 9 11 7 1 1 4 5 4 7 9 25 23 22 19 19 20 20 20 20 20 20 22 24 26 27 24 30
24 28 32 39 43 43 35 36 40 47 55 63 70 71 57 35 21 19 17 14 13 11 9 9 7 5 5 6 6 7 12 15 13 13 15 17 19 22 24 24 23 21 18 19 25 28 28
27 31 35 38 43 44 35 36 37 45 54 59 66 76 69 48 19 19 20 17 15 14 13 13 13 12 11 11 11 13 15 17 15 13 13 16 20 20 22 25 25 25 29 28 26 27 20
31 32 37 41 44 46 36 33 35 41 54 55 62 73 77 59 22 15 18 21 16 15 16 15 16 17 18 19 17 17 18 20 20 19 20 21 18 19 22 24 26 23 24 26 24 19 24
32 33 38 41 46 44 41 36 37 41 52 56 63 72 79 67 22 14 17 19 20 17 17 17 18 18 18 18 20 21 21 21 19 17 17 18 20 23 25 27 27 25 25 25 23 24 24
34 36 39 43 43 50 41 39 38 42 48 55 63 74 80 66 31 12 15 21 21 20 19 19 17 19 21 20 19 19 18 20 23 22 20 19 18 18 17 18 18 22 22 25 26 25 24
36 39 42 41 45 51 45 41 38 43 49 55 64 74 78 68 38 14 16 18 28 25 22 21 19 19 19 21 21 19 19 19 20 21 20 19 19 19 16 18 16 13 15 21 21 18 20
38 42 45 46 49 54 46 40 38 41 48 52 61 69 76 65 41 14 18 21 24 29 27 23 20 19 19 19 18 17 18 19 19 19 19 19 19 18 18 18 15 15 16 16 13 15 21
46 47 49 49 53 52 46 39 37 41 47 51 54 64 74 66 41 19 21 21 21 24 31 28 24 21 19 18 16 13 13 13 17 18 20 21 21 20 19 18 17 16 15 14 13 16 16
52 51 49 51 52 52 43 37 35 39 43 46 51 61 70 68 45 23 17 22 20 22 29 33 30 28 24 21 19 16 13 11 11 12 15 15 15 16 18 16 15 17 16 16 15 14 13
56 52 51 49 52 42 37 36 36 39 41 42 51 58 61 64 48 26 15 20 18 18 24 32 35 35 31 29 24 21 19 18 15 16 16 15 14 16 17 15 14 16 16 17 16 16 17
55 53 50 49 42 36 34 34 38 39 43 48 49 54 55 59 48 32 16 15 17 18 18 27 34 38 38 34 30 27 24 23 22 21 21 19 19 17 16 16 16 18 19 19 18 19 20

GFSGBSN_500_spd_060.txt.gz
Wind_Speed
36 38 44 46 52 55 63 68 76 83 82 69 53 45 47 56 54 59 62 66 53 33 17 11 11 15 17 16 26 55 68 64 65 59 66 65 57 55 52 49 47 43 50 63 63 48 49
35 38 43 48 51 55 59 65 75 81 84 67 56 42 47 54 52 58 60 63 57 35 17 8 5 11 15 15 23 44 66 66 65 57 59 60 56 53 52 48 47 43 46 54 61 50 46
34 36 42 48 52 53 58 64 73 80 79 69 61 45 46 50 51 59 58 60 59 40 17 8 6 11 13 10 20 36 62 65 62 55 50 59 54 53 50 47 47 43 47 47 53 55 43
34 36 41 47 52 53 56 62 70 78 82 77 65 48 43 46 49 55 57 58 58 45 24 7 6 9 7 12 16 33 57 64 59 50 51 54 50 55 49 47 46 41 41 45 49 47 46
33 38 40 47 51 51 54 60 66 75 80 75 59 49 40 43 47 50 55 55 55 46 26 11 5 2 13 22 29 19 48 60 56 46 42 51 47 54 49 45 45 41 33 39 47 50 35
32 37 39 45 47 50 50 58 64 73 80 77 66 50 40 39 43 46 52 53 53 43 25 19 13 15 24 33 17 27 38 54 53 43 42 49 48 51 53 46 41 37 29 35 39 45 40
31 36 37 42 45 47 48 54 61 71 78 80 67 49 40 35 37 45 50 51 49 40 21 21 20 21 20 22 4 18 41 53 49 41 44 44 44 43 45 45 41 40 35 32 38 35 54
31 35 36 38 43 46 46 50 59 67 75 79 78 54 39 35 33 39 44 50 45 39 15 17 15 14 12 8 14 20 51 55 47 45 37 42 37 44 43 46 42 37 34 33 31 34 31
31 32 32 36 43 46 44 48 56 63 72 79 83 68 43 34 29 35 40 44 42 38 28 14 13 7 7 9 15 32 51 57 48 42 23 28 33 43 43 44 38 34 31 31 29 31 34
30 30 28 35 41 45 43 44 50 59 67 76 82 76 45 31 27 29 36 36 32 31 31 26 8 6 5 11 29 38 48 53 33 40 28 24 26 38 42 40 34 31 30 32 33 33 32
28 31 27 33 41 43 44 42 48 54 62 70 79 77 52 35 25 24 28 30 26 23 23 26 32 32 29 37 38 27 31 37 34 33 29 27 29 36 38 34 32 29 32 31 27 27 29
28 31 29 32 38 40 43 41 47 51 58 67 75 77 48 35 25 21 21 25 25 20 10 11 17 26 25 19 8 15 33 35 34 30 24 24 22 33 34 32 33 32 29 25 26 26 26
25 29 29 28 35 38 41 40 44 48 55 63 69 77 58 39 28 18 15 19 21 21 17 13 4 5 10 16 12 13 23 35 36 27 26 27 24 27 30 34 33 31 28 27 24 24 22
24 27 26 25 31 39 43 40 42 44 50 57 65 74 65 43 30 18 13 11 15 16 16 15 15 6 4 10 13 18 17 22 33 25 23 23 27 27 29 31 28 28 27 26 24 22 20
21 22 20 22 29 36 42 39 41 42 45 53 61 69 74 55 38 20 12 7 9 13 10 15 12 11 2 5 11 21 23 21 27 25 30 17 17 23 23 25 28 27 25 24 23 22 22
20 18 18 21 28 32 39 40 40 40 43 49 59 65 73 70 55 24 12 8 5 5 7 8 12 15 6 4 2 6 15 27 23 20 22 19 23 23 22 22 24 24 23 24 24 25 27
19 14 16 20 25 30 36 40 42 43 42 47 55 64 70 74 61 38 16 10 7 5 2 3 8 14 14 7 5 7 8 14 21 14 17 21 21 22 22 23 23 24 25 25 24 27 27
17 14 18 20 22 28 33 38 45 46 43 47 54 61 69 76 62 49 25 15 9 10 9 5 5 7 13 17 16 15 15 18 17 20 21 22 22 22 23 22 24 26 29 30 31 28 25
16 18 19 20 20 27 32 38 43 47 44 44 49 57 66 71 65 45 31 16 13 13 13 13 10 9 9 12 13 21 23 24 24 21 23 24 26 26 25 27 28 28 23 21 25 27 26
17 18 19 20 21 27 31 37 43 47 44 42 47 52 63 67 70 58 29 15 16 18 16 17 16 15 14 14 15 14 19 25 24 24 22 23 25 25 26 26 24 24 22 23 25 28 23
23 22 21 19 22 23 30 36 43 45 44 42 45 52 57 67 66 59 23 14 17 20 21 20 21 20 18 17 16 16 18 21 21 19 19 18 18 21 24 24 26 26 27 28 29 25 27
23 21 21 22 21 24 31 36 40 45 44 40 45 47 55 67 71 60 28 16 19 23 22 23 25 23 22 20 20 19 18 20 20 18 17 17 16 19 19 21 23 24 24 24 24 22 28
24 22 23 24 21 27 33 37 43 44 43 37 42 47 54 64 70 63 38 14 18 25 26 24 25 26 25 24 22 23 21 19 19 20 19 18 17 18 18 19 21 23 21 26 27 26 28
26 24 22 23 23 29 35 39 44 42 40 37 42 47 55 59 67 64 37 16 22 25 23 24 24 25 26 26 26 25 24 21 20 20 20 18 18 18 17 19 21 18 18 20 23 22 26
39 31 28 29 28 31 35 38 43 41 37 34 40 45 53 56 64 61 38 16 21 19 24 25 23 24 24 25 26 27 25 23 21 21 21 21 20 19 20 18 18 18 17 19 19 20 22
41 38 36 34 33 29 35 38 42 38 32 34 38 43 48 51 59 61 46 21 19 17 18 29 26 24 23 23 25 25 25 24 23 21 20 20 20 20 20 20 19 18 19 18 18 20 19
36 34 36 36 32 32 36 41 38 36 31 34 39 41 44 47 55 57 45 27 15 16 13 24 30 26 24 22 21 21 20 20 18 16 16 19 18 18 19 20 17 19 17 19 18 17 17
42 39 41 44 39 37 43 43 37 31 31 33 36 39 39 44 52 54 45 34 17 12 11 15 27 33 30 25 23 22 21 19 16 14 14 15 15 16 17 16 16 16 17 18 18 19 18
43 44 49 47 47 44 46 42 33 29 30 31 34 35 38 44 48 49 48 36 21 14 11 12 17 30 36 33 29 26 24 23 21 19 19 18 19 17 16 17 18 19 20 20 19 18 19

GFSGBSN_500_spd_063.txt.gz
Wind_Speed
32 32 34 39 44 49 50 52 57 65 71 79 86 76 61 52 50 56 60 64 66 58 37 22 10 13 16 15 20 29 61 63 62 36 57 58 65 60 56 56 51 56 52 53 54 58 47
33 34 34 39 44 48 49 49 56 62 69 78 86 80 60 50 47 52 59 64 65 56 37 19 9 5 12 14 14 19 56 60 57 35 51 52 58 60 55 54 52 49 49 50 52 60 47
32 34 34 39 42 47 49 48 54 60 66 77 84 82 68 47 46 51 58 61 64 53 39 19 8 5 11 15 17 21 48 62 53 44 41 52 52 64 57 52 51 51 46 38 47 55 51
32 33 32 38 41 44 49 49 51 58 64 73 82 81 61 47 43 48 55 57 58 48 39 22 13 11 5 17 14 24 45 59 58 53 36 46 55 62 53 53 49 48 48 42 40 55 57
31 33 33 35 39 42 47 48 48 55 61 70 80 79 64 48 42 45 51 52 50 37 36 30 16 9 8 3 7 25 47 61 57 50 42 45 47 58 51 51 49 47 44 42 39 43 53
29 31 32 35 37 41 46 46 48 53 59 65 75 80 69 49 42 42 46 45 46 37 29 29 17 12 16 14 15 7 43 59 56 51 38 41 47 49 50 48 48 46 42 38 35 40 43
29 30 30 33 34 39 45 45 46 51 56 63 73 79 71 50 39 39 41 40 40 38 22 22 12 7 11 18 12 13 37 53 54 50 47 40 38 46 50 50 46 40 38 32 30 37 42
27 30 30 31 33 38 42 44 45 47 51 58 69 78 74 58 41 35 38 38 34 37 26 11 10 10 15 13 11 19 37 47 51 45 39 34 37 40 42 47 46 41 38 35 30 33 37
27 28 27 29 32 36 39 42 43 45 49 55 64 73 74 66 44 34 35 35 34 31 34 24 8 7 7 7 9 35 39 40 44 34 38 38 37 37 37 39 45 38 36 35 27 27 35
26 26 29 29 30 33 35 42 43 44 45 52 59 68 72 72 48 35 30 33 32 27 33 32 22 15 6 7 23 41 39 43 38 37 29 30 37 32 34 34 41 36 32 31 30 28 31
25 24 27 28 28 29 34 39 40 41 44 48 56 64 70 74 61 37 27 29 30 25 26 31 32 36 31 22 36 40 43 44 38 23 24 32 33 32 34 36 36 35 31 31 29 28 26
22 22 24 26 24 25 32 37 39 40 43 47 53 59 67 72 66 43 23 21 24 24 15 18 22 20 24 23 20 44 35 35 31 30 23 20 29 33 35 38 34 33 32 32 28 26 23
21 21 25 24 20 24 29 35 37 39 42 44 49 55 64 71 67 48 26 15 19 20 16 6 10 11 14 10 14 23 25 29 30 22 24 22 20 30 36 34 32 33 32 30 28 26 22
19 21 23 21 17 22 25 29 33 39 42 43 46 52 59 67 66 50 37 14 12 14 15 5 5 11 18 8 15 21 25 27 24 26 24 23 24 29 32 33 31 33 31 28 27 25 21
20 22 21 18 13 19 22 26 33 36 41 42 44 49 57 63 62 54 41 13 7 9 11 6 4 1 9 8 17 24 21 22 24 20 22 21 19 22 27 29 29 31 30 28 26 24 20
20 20 20 15 10 17 21 24 29 34 39 41 43 46 53 59 59 57 39 20 4 2 6 3 3 2 6 9 10 24 21 22 29 17 17 19 17 19 21 25 28 28 25 26 25 24 24
20 20 19 15 10 14 18 22 27 31 37 40 42 44 51 56 59 59 39 23 7 8 4 5 6 5 3 7 10 5 18 22 21 18 21 17 18 20 21 23 24 27 29 27 23 25 24
22 20 20 17 12 12 16 20 25 29 36 39 41 42 48 54 60 62 46 27 10 12 12 8 9 12 8 8 10 6 15 21 18 18 23 22 19 21 22 21 22 24 25 25 26 25 26
24 21 19 18 13 12 13 18 21 27 34 37 39 40 47 52 58 61 54 29 15 15 16 13 12 10 12 14 15 14 14 18 22 16 18 19 20 22 23 24 25 27 25 25 26 28 32
25 21 19 18 17 10 13 16 20 24 33 35 37 38 44 49 56 60 59 34 19 14 19 17 17 15 14 15 17 20 22 22 24 23 22 23 23 24 25 24 25 26 26 28 29 31 24
26 22 21 20 17 14 12 18 21 25 32 33 34 37 42 47 53 59 62 42 20 13 21 21 20 19 18 18 18 18 19 23 26 23 25 24 23 25 27 28 28 29 29 28 30 23 26
30 25 21 20 19 19 12 16 20 25 31 33 33 35 40 44 49 57 60 42 20 16 19 22 23 22 21 20 20 21 21 20 19 23 24 23 22 23 26 27 28 27 29 29 28 26 27
32 26 21 19 18 17 13 15 21 25 31 33 31 34 37 42 47 53 58 48 20 18 18 25 24 25 26 24 21 21 21 22 22 22 24 24 23 23 21 21 21 18 20 25 25 24 26
39 26 23 19 17 16 16 17 21 25 31 32 29 33 35 39 45 50 56 47 28 18 19 18 25 25 26 26 25 22 21 21 20 21 24 23 22 21 19 21 21 18 19 22 20 21 24
40 37 29 25 25 22 19 18 21 28 31 29 26 30 34 38 42 46 52 48 28 15 17 13 22 24 24 25 25 23 24 21 18 19 20 22 24 23 22 20 19 17 16 17 19 23 22
43 38 30 28 26 23 16 21 25 32 34 27 27 28 33 37 38 43 48 47 34 15 13 10 20 23 21 22 22 22 24 24 22 19 19 19 18 19 18 18 17 17 17 18 19 22 20
42 35 30 28 27 23 19 25 28 34 29 26 29 28 31 34 34 38 42 45 39 22 10 8 14 23 24 21 22 21 22 23 23 21 19 20 19 18 17 18 16 21 19 19 19 19 19
47 39 36 33 31 31 28 26 30 30 31 32 24 26 27 28 31 34 37 42 39 26 15 9 11 18 26 23 22 19 20 21 19 18 18 17 16 17 17 16 16 17 17 18 18 17 18
41 43 40 38 36 33 30 28 27 32 33 24 21 22 23 24 28 30 34 38 38 34 22 11 7 13 23 31 26 23 21 21 21 19 17 16 15 15 15 16 17 18 18 19 17 18 18

GFSGBSN_500_spd_069.txt.gz
Wind_Speed
31 31 32 34 34 35 34 38 41 45 47 46 49 53 58 64 71 76 62 58 56 52 47 38 41 42 23 14 22 21 27 34 35 43 59 43 53 55 68 69 41 58 54 56 40 48 55
30 30 32 32 34 35 33 37 41 45 47 46 48 53 57 64 69 74 62 55 54 49 46 30 36 41 32 10 16 22 25 34 39 56 57 38 42 47 67 61 58 54 57 53 45 56 56
28 30 29 31 31 34 34 36 40 43 45 43 47 51 56 62 68 72 63 53 51 47 45 25 31 36 37 11 12 18 28 42 33 49 54 34 49 56 50 60 52 50 50 53 51 30 63
28 30 29 30 30 31 33 33 38 41 43 41 46 50 55 60 66 71 63 50 49 45 43 31 27 31 34 16 3 13 29 51 37 50 45 39 44 45 54 60 46 56 50 50 55 53 46
31 29 29 29 29 29 31 33 35 38 40 39 43 47 53 59 64 69 63 49 45 41 46 38 24 25 28 15 15 9 41 51 36 51 36 40 50 47 47 58 46 50 50 56 37 53 51
32 29 28 29 28 29 29 31 34 35 38 37 41 46 51 57 62 66 61 43 41 39 44 45 25 19 20 13 13 22 49 45 49 41 48 35 36 40 41 55 54 59 44 39 40 34 45
32 29 29 28 28 30 28 29 31 33 36 34 38 43 48 55 60 64 59 42 38 37 43 46 29 17 17 16 14 47 42 53 57 46 44 35 29 43 47 43 50 56 48 34 44 27 29
34 30 28 28 28 28 26 27 27 31 34 32 35 41 46 52 57 61 56 42 36 35 40 44 34 14 15 8 12 37 47 43 42 38 45 40 29 30 46 50 48 51 45 39 41 42 29
36 31 28 27 28 28 24 24 25 28 31 30 33 38 44 50 54 58 56 42 32 33 35 40 33 18 13 6 5 48 57 39 39 41 34 32 32 28 42 40 40 44 46 46 38 36 30
36 32 29 28 27 26 21 22 23 27 29 29 31 36 42 47 52 57 54 41 28 29 29 34 31 23 14 9 22 44 57 44 42 43 33 29 28 21 34 43 42 42 40 45 37 34 32
35 30 30 29 27 24 19 20 19 25 26 27 30 34 38 43 51 55 56 39 25 25 24 27 25 20 19 22 36 46 47 50 35 31 26 19 23 23 22 34 40 39 33 34 37 28 33
37 33 31 32 29 24 19 18 17 23 23 25 28 32 35 40 47 53 55 37 27 21 16 19 19 20 19 24 28 34 37 40 27 25 20 21 22 21 23 27 31 32 33 31 31 32 31
38 31 31 34 30 25 19 16 15 21 21 23 26 29 33 38 43 50 53 39 24 14 9 14 14 15 13 19 25 34 37 38 31 26 22 19 18 20 23 25 29 35 31 27 31 33 33
39 34 27 35 31 25 20 16 14 18 20 20 23 26 30 35 41 47 52 43 25 10 5 9 12 13 11 19 27 28 29 35 23 23 15 18 21 20 23 23 27 30 31 36 36 34 32
43 35 30 36 33 26 21 16 15 17 18 17 22 23 27 31 37 43 49 47 33 6 3 2 7 11 15 26 27 26 25 25 18 17 16 20 21 26 24 23 24 25 26 33 35 35 33
46 38 32 36 32 28 22 17 15 15 16 17 19 20 23 28 33 39 46 49 34 8 2 4 1 7 15 21 22 16 15 17 18 19 15 13 15 19 21 26 27 27 29 27 30 30 30
46 40 34 38 32 28 25 20 15 13 15 16 16 16 21 25 31 37 43 49 43 21 6 6 7 5 8 19 19 18 23 17 15 15 13 13 12 16 24 25 22 27 28 26 27 30 30
49 43 37 39 32 27 28 22 16 14 14 13 13 14 19 23 28 34 40 47 47 26 7 12 11 9 7 10 19 20 23 16 17 10 14 15 14 14 19 20 22 24 26 24 27 27 28
53 41 41 36 36 29 29 23 16 13 14 12 9 11 16 21 25 30 37 45 46 32 12 17 15 12 13 14 14 16 23 24 21 16 18 15 17 15 15 19 20 24 22 24 25 29 29
54 50 37 39 29 29 29 22 16 14 12 9 7 8 15 19 22 27 33 39 45 37 21 9 20 17 16 18 18 18 17 23 23 23 26 21 22 18 19 19 21 21 24 26 31 33 27
56 57 43 40 29 30 30 25 17 13 11 8 7 7 13 18 19 23 29 35 42 39 27 10 18 22 19 18 19 21 19 21 22 24 25 25 25 23 22 21 21 21 22 25 27 21 30
58 53 36 42 31 29 30 29 22 14 11 5 6 7 10 15 17 20 25 32 37 37 31 12 9 22 25 21 21 19 24 23 24 26 25 23 22 22 23 23 22 22 22 23 25 25 29
55 46 47 36 31 31 29 24 25 16 13 4 2 7 10 12 14 17 22 27 31 34 32 19 6 15 25 23 21 21 20 22 24 24 31 28 25 23 23 22 23 24 24 28 29 32 34
61 51 45 39 38 30 26 22 25 19 13 4 4 7 8 9 11 13 17 22 28 32 32 27 14 5 18 24 23 22 22 21 21 22 26 26 25 25 26 28 29 29 27 28 30 31 32
66 55 44 42 41 34 28 25 18 17 10 5 4 6 7 7 10 12 14 17 24 29 30 30 20 8 11 21 23 24 24 23 21 21 21 23 23 23 25 27 29 28 26 26 29 32 31
57 49 40 43 36 34 30 29 19 15 11 4 3 6 5 7 9 11 13 17 21 27 29 28 24 11 6 16 21 21 22 24 25 23 21 21 23 25 25 27 29 32 28 28 28 33 28
56 51 42 45 41 36 33 26 20 13 11 7 3 6 7 9 9 10 12 14 17 22 26 27 26 17 5 10 18 19 21 21 23 25 23 23 23 24 25 28 28 28 28 29 30 32 28
62 54 35 40 44 40 35 29 24 17 11 5 3 7 8 10 10 9 10 12 14 18 23 25 25 20 9 9 17 17 18 19 20 24 24 27 27 26 26 27 28 28 28 29 30 30 29
69 55 39 38 41 42 38 31 24 15 13 8 5 7 9 11 10 10 11 11 12 13 18 23 24 22 13 5 11 19 17 20 22 22 24 25 26 26 28 29 28 27 29 28 29 28 27

GFSGBSN_500_spd_072.txt.gz
Wind_Speed
31 29 29 30 30 30 31 37 34 35 40 45 47 45 48 50 55 61 67 73 63 61 49 53 46 35 39 33 6 22 23 20 34 33 53 57 45 61 63 62 59 58 54 46 56 55 52
34 32 28 30 30 32 31 36 34 33 39 43 45 45 46 49 54 59 66 70 61 57 49 52 47 30 33 27 19 24 18 26 27 37 49 52 39 51 46 65 63 52 46 63 36 52 59
35 36 33 32 29 31 33 33 36 33 38 40 44 43 46 48 53 59 64 67 57 55 50 50 49 26 26 23 21 12 21 24 32 35 46 50 47 51 51 69 65 54 44 42 57 53 51
37 37 38 34 31 30 33 33 35 33 36 38 43 41 44 47 52 58 62 65 56 54 50 50 49 24 21 25 23 9 23 30 33 41 47 53 42 41 50 61 63 59 31 45 31 48 57
40 39 39 36 34 31 33 34 32 32 35 37 41 40 43 46 50 57 61 63 53 52 48 49 49 22 17 19 24 21 21 38 44 39 35 54 35 39 52 59 62 54 39 57 56 45 39
43 42 40 36 35 32 33 33 32 31 33 36 38 40 41 44 49 54 59 60 53 49 46 49 44 25 15 15 10 12 24 41 39 37 40 49 33 39 39 48 49 34 37 51 55 46 47
48 43 41 36 35 34 33 33 32 29 31 34 36 39 39 42 48 52 57 59 50 44 44 48 42 26 18 14 16 9 29 34 29 47 32 41 38 43 30 33 52 35 35 36 46 49 48
60 48 43 37 30 36 35 33 31 27 30 31 33 36 37 40 46 50 55 55 46 41 40 44 40 27 17 16 9 24 40 35 42 46 39 35 33 35 38 35 52 49 36 36 47 37 41
62 61 45 38 30 36 34 34 30 26 30 29 31 34 35 37 44 49 53 53 45 35 36 40 37 28 16 11 20 41 35 33 50 37 31 29 26 32 39 38 43 51 38 37 28 23 31
68 59 56 42 33 33 34 34 30 24 28 28 28 32 33 34 41 47 51 53 42 32 30 33 33 29 13 14 32 40 34 35 31 30 22 25 23 36 29 38 36 42 46 44 33 28 33
73 66 64 44 34 34 34 34 31 22 28 26 26 30 31 31 38 44 49 51 41 31 26 31 29 27 13 11 36 28 34 37 26 32 30 26 21 24 31 35 38 37 34 33 36 31 36
75 74 61 47 42 33 29 37 32 21 27 24 25 27 28 29 35 41 46 47 40 28 17 24 21 20 15 38 32 27 31 38 39 30 28 24 21 18 20 33 32 31 29 26 34 38 35
88 73 66 56 42 32 28 36 32 21 25 22 23 24 24 26 32 38 43 44 39 24 16 19 19 16 16 49 34 25 31 31 23 18 26 25 20 18 16 24 33 32 24 27 25 27 32
86 76 71 62 44 33 25 33 33 22 24 22 21 22 21 22 29 35 40 42 41 30 9 11 16 10 20 51 39 27 28 22 17 18 19 20 18 20 20 19 24 28 26 25 28 28 32
73 71 68 63 48 38 23 30 33 23 23 22 19 20 17 19 24 31 37 41 42 30 8 5 9 6 16 37 41 34 24 15 11 14 11 11 13 15 17 15 21 26 29 28 29 31 27
68 65 61 60 53 42 27 26 30 25 23 20 17 18 14 16 21 28 33 38 41 30 5 2 3 5 14 24 31 28 24 22 14 15 12 11 14 15 16 18 19 23 25 26 28 29 29
63 64 60 59 53 39 31 27 26 25 24 19 17 16 11 13 18 25 30 36 39 35 11 2 3 6 13 19 22 19 19 24 15 11 11 9 11 14 17 20 19 21 23 23 23 28 27
63 64 61 61 59 41 31 26 24 26 24 19 16 13 8 10 15 22 27 32 36 37 23 4 8 8 14 18 14 11 14 16 12 11 13 9 8 8 16 19 18 18 21 23 25 24 26
65 62 62 63 57 37 30 29 27 27 25 20 16 14 7 8 12 18 22 28 32 35 27 7 12 11 13 14 21 20 15 17 14 14 10 12 12 12 9 16 21 21 18 20 21 21 23
64 62 65 64 58 42 38 32 29 26 26 18 15 12 9 7 8 13 18 23 29 32 30 22 7 18 16 17 16 20 23 24 24 19 17 13 12 13 13 10 11 13 18 19 24 26 19
63 63 64 66 51 41 33 32 28 29 26 19 14 11 10 6 6 10 13 20 25 30 30 27 16 13 19 17 20 19 19 21 24 24 24 20 21 17 18 15 14 15 18 21 25 18 24
59 62 63 61 48 36 34 32 29 32 26 21 15 12 11 8 5 7 11 16 21 27 28 27 20 8 19 22 19 21 22 21 19 24 25 23 21 23 23 21 17 17 18 19 18 18 21
57 63 54 55 44 30 34 28 31 33 29 24 17 14 11 7 4 5 9 12 18 23 27 29 26 14 10 19 22 22 21 21 23 20 22 25 24 23 22 19 19 20 18 20 20 20 22
61 56 67 52 49 30 33 31 33 35 31 28 18 14 10 6 4 4 7 9 14 20 24 27 28 20 10 16 23 22 22 21 21 24 23 25 27 27 26 22 23 22 21 22 22 23 25
66 64 53 56 48 40 33 34 32 38 33 27 21 14 12 9 6 4 6 6 11 15 21 23 25 26 16 10 18 23 23 23 22 22 23 24 25 30 31 29 26 24 22 23 25 27 27
66 51 58 56 40 41 38 33 29 31 36 26 19 15 13 10 7 4 5 6 7 13 16 20 22 26 24 15 14 20 21 25 25 23 21 21 22 23 27 29 27 29 25 26 27 30 29
60 57 57 51 38 40 41 36 28 31 33 25 20 17 14 11 7 7 6 6 6 9 13 17 20 23 24 21 14 12 20 22 23 24 23 23 24 23 24 26 30 33 26 28 30 32 31
65 54 59 37 33 40 37 33 31 30 31 26 23 17 12 11 9 9 7 8 7 8 10 13 19 18 21 22 19 11 14 17 20 21 21 25 26 26 28 28 28 29 26 28 29 29 29
64 54 58 51 39 38 38 34 30 32 29 25 18 14 11 10 9 9 9 8 8 8 9 10 13 15 18 20 22 16 13 13 21 20 20 21 23 26 27 29 29 30 29 29 29 30 30

GFSGBSN_500_spd_075.txt.gz
Wind_Speed
39 37 38 35 34 33 35 34 35 36 36 38 41 40 41 47 46 49 54 60 66 61 59 56 53 55 39 24 24 22 21 14 15 38 28 40 54 58 58 62 66 72 65 46 51 57 55
39 42 43 38 37 35 34 35 36 37 38 36 40 40 41 46 47 49 54 60 65 60 58 55 52 49 34 22 23 29 22 19 21 31 30 42 56 59 55 58 64 71 65 51 46 52 56
41 40 43 46 40 38 34 36 35 36 37 37 38 39 39 45 46 49 54 59 63 59 57 52 52 49 31 20 20 22 17 24 23 29 34 45 51 51 46 50 60 71 54 60 40 53 44
45 42 44 44 42 42 37 36 36 37 37 37 39 39 38 43 45 48 54 58 61 58 55 50 50 48 27 17 16 21 9 24 21 33 31 48 46 47 35 49 60 71 62 47 48 54 47
51 48 49 48 49 41 44 37 36 36 38 38 38 37 39 42 44 46 52 57 59 57 51 47 51 47 28 18 12 21 15 25 26 35 35 52 48 37 50 41 55 65 55 59 51 37 37
53 56 59 55 52 51 43 36 34 40 37 38 38 36 39 40 42 44 51 55 58 54 49 47 47 44 25 18 15 18 7 30 31 35 38 48 46 34 27 47 48 63 59 52 48 59 43
54 58 58 59 56 54 51 38 31 37 36 38 37 34 37 38 39 43 49 53 55 48 46 45 47 40 26 25 15 7 18 26 23 32 41 45 37 32 39 37 47 55 59 39 40 33 41
59 58 59 62 60 62 54 50 39 31 34 38 35 33 35 36 37 41 46 52 52 48 42 41 41 33 23 19 18 21 21 12 17 25 44 37 31 33 29 32 45 53 50 47 34 28 37
58 59 60 59 59 58 55 57 40 28 35 39 35 30 32 35 35 39 44 50 49 44 38 38 39 27 17 18 25 30 22 16 25 37 46 32 23 27 27 33 41 45 29 30 33 35 46
58 61 58 58 62 63 61 58 34 31 30 40 35 27 30 32 32 37 41 47 45 42 34 34 34 16 16 26 26 24 23 25 26 37 34 29 22 30 26 24 33 37 39 27 32 26 33
68 70 70 65 68 69 62 63 44 36 28 38 36 25 28 28 28 33 38 44 42 40 29 34 30 11 20 24 24 19 30 33 16 41 28 19 25 29 27 25 26 30 46 31 27 24 30
70 72 74 70 76 75 69 66 62 37 27 33 35 23 25 25 24 29 35 40 41 36 24 27 26 14 16 22 17 18 27 22 25 23 23 22 22 25 25 23 19 19 20 35 27 24 19
83 83 80 81 80 78 74 75 62 43 29 31 34 20 23 22 21 26 32 36 38 33 29 22 21 12 22 21 22 24 19 14 13 12 14 23 21 21 17 20 25 27 24 21 25 27 25
93 95 90 83 77 70 66 63 53 46 27 29 30 17 20 20 18 22 28 32 35 34 22 14 17 11 24 23 30 34 25 19 14 17 18 17 18 20 17 20 25 26 27 25 22 22 24
93 88 78 64 59 60 54 53 52 34 27 26 27 16 19 17 15 19 23 29 32 33 24 8 11 10 31 32 29 24 26 21 22 19 17 16 15 14 15 17 20 25 25 23 19 19 20
72 61 46 46 48 55 52 49 50 31 21 19 23 15 17 15 13 16 19 25 29 32 21 5 6 5 28 29 25 25 19 16 13 15 15 13 13 15 14 14 18 23 24 25 24 23 23
43 43 38 40 47 55 54 51 50 33 28 27 21 18 15 14 11 12 17 21 27 31 25 5 4 2 16 39 29 23 13 7 6 8 8 6 9 11 13 14 15 18 24 24 24 24 24
34 42 37 38 51 56 55 53 48 35 32 22 18 19 16 13 10 9 13 19 24 28 28 10 6 9 14 33 31 23 20 15 13 11 11 9 9 11 14 16 18 15 18 22 26 25 24
40 42 31 49 58 51 54 54 48 38 33 23 18 19 17 13 8 7 10 14 20 25 27 21 5 13 16 21 26 20 18 19 20 14 8 8 8 7 6 11 18 17 17 18 21 20 20
41 38 32 63 57 54 43 52 44 35 34 23 20 22 19 15 9 7 6 11 18 22 26 23 8 13 18 20 23 22 20 17 18 12 12 7 8 6 7 7 8 15 16 17 20 23 18
38 26 54 64 54 48 48 48 35 34 29 24 24 23 18 15 10 7 2 7 14 18 23 25 20 2 15 19 20 18 21 23 21 21 18 15 13 12 9 9 9 10 13 16 18 15 23
25 26 65 65 44 46 52 47 35 31 31 29 28 23 19 16 11 7 2 4 10 15 20 23 22 18 0 14 17 18 19 19 21 23 23 22 20 20 17 15 15 13 14 14 15 17 17
27 51 62 50 51 44 42 47 29 32 28 29 32 24 20 17 13 8 4 2 7 12 17 21 23 24 14 1 16 21 20 19 19 19 19 22 22 22 20 20 18 16 15 17 16 16 16
50 68 66 48 47 56 38 41 31 32 34 32 33 26 20 17 14 10 6 3 3 9 11 17 21 24 22 21 6 16 23 20 19 20 22 20 21 22 21 21 22 18 18 17 18 20 20
61 76 54 46 48 48 50 36 36 34 26 34 33 27 21 18 15 12 8 6 2 7 11 12 18 23 24 23 17 8 11 21 22 20 19 21 23 22 24 24 26 24 19 19 20 22 22
73 52 57 52 42 44 42 37 37 36 30 38 35 29 23 18 16 14 10 8 5 4 7 10 13 18 24 25 23 17 8 9 22 23 22 21 20 21 22 23 24 29 30 26 24 25 24
55 53 60 54 45 40 40 35 39 33 30 42 38 29 25 19 17 16 11 8 6 1 3 7 9 13 17 21 24 23 17 9 9 19 24 24 23 21 21 22 23 26 27 28 28 29 30
46 52 55 48 38 40 38 38 37 34 34 36 32 28 24 22 19 16 12 9 6 4 1 2 8 11 14 15 17 21 20 18 12 8 18 24 25 24 26 26 25 26 28 29 29 30 31
46 50 48 50 39 47 36 41 39 29 27 38 33 29 26 19 19 17 13 9 6 5 5 3 3 7 10 14 15 16 18 21 19 9 9 14 20 23 25 27 30 32 31 32 33 33 34

GFSGBSN_500_spd_078.txt.gz
Wind_Speed
41 37 36 37 38 39 39 41 37 36 37 37 38 39 42 42 41 44 46 48 53 60 65 64 63 57 56 49 26 19 23 18 14 24 28 22 24 50 56 60 68 67 44 64 66 56 58
45 45 44 39 38 35 38 39 41 38 38 37 38 38 42 42 42 43 47 48 53 60 64 63 60 56 52 43 28 15 21 19 21 26 32 19 36 47 53 61 69 58 57 60 62 55 56
48 47 48 46 43 44 43 41 43 42 40 38 39 39 40 43 42 44 47 48 53 61 62 61 57 55 52 40 22 12 17 16 20 27 34 25 38 51 56 59 65 53 49 66 46 51 57
50 52 52 49 48 47 47 48 43 45 46 35 37 40 40 42 41 43 46 49 54 59 62 59 56 54 51 36 22 16 10 12 18 26 23 30 37 48 50 55 60 56 50 71 56 51 59
51 50 50 50 48 49 50 50 46 44 48 38 31 34 38 41 41 42 45 48 54 58 58 56 55 52 47 33 22 15 9 10 20 25 25 35 42 46 47 52 56 57 48 58 54 43 42
51 51 51 51 51 50 48 49 49 46 45 47 31 32 35 42 39 40 44 46 53 56 55 54 54 52 38 29 20 11 11 17 21 31 28 37 42 46 44 42 51 47 58 58 58 47 34
48 48 49 49 48 46 45 45 49 49 41 45 43 31 34 43 36 38 42 45 51 53 52 50 47 43 29 24 25 22 12 22 19 22 26 36 40 49 33 34 38 50 52 62 52 57 38
49 50 48 48 45 45 44 44 44 51 45 45 33 27 35 44 32 36 39 43 49 52 46 45 43 30 20 26 30 27 16 10 14 23 33 43 34 30 33 27 29 40 50 59 54 45 33
54 55 54 53 48 45 46 40 45 49 48 43 34 30 34 42 28 33 36 40 46 48 41 38 36 21 18 25 27 20 13 15 24 24 35 38 25 29 22 27 31 31 51 50 43 23 19
56 56 57 54 54 51 44 46 45 46 49 43 42 38 32 40 26 31 33 37 42 43 38 33 28 12 15 14 18 14 14 14 24 29 34 27 17 25 24 26 26 28 40 49 37 24 22
60 63 62 59 60 59 53 49 51 47 50 47 45 46 30 36 25 29 30 34 39 40 33 31 20 11 17 13 10 11 18 19 30 33 32 24 25 23 19 17 16 21 32 27 31 27 27
63 66 67 66 65 60 54 55 51 55 52 49 49 46 34 32 24 26 27 31 35 35 29 22 11 10 14 12 5 11 19 25 29 18 10 15 22 25 21 13 11 26 35 26 25 20 22
74 73 75 76 72 69 63 61 62 57 56 55 47 48 40 30 22 23 24 27 31 32 29 20 7 10 11 13 12 17 20 31 24 12 19 14 17 19 13 14 10 16 23 23 21 21 15
76 73 66 71 67 73 77 70 64 64 61 60 50 49 30 27 20 19 20 23 27 31 26 14 5 16 12 17 23 12 16 21 10 18 19 17 16 16 14 13 13 15 20 17 16 19 18
76 78 74 70 65 60 69 74 72 67 66 60 47 38 26 26 17 16 16 19 22 28 24 10 3 18 18 25 22 13 9 4 6 16 14 15 12 13 11 14 19 22 20 16 12 16 19
80 75 68 46 41 39 40 45 52 52 57 47 45 35 21 25 14 13 11 15 19 24 22 13 4 19 22 29 21 15 15 15 17 14 10 9 12 13 11 14 17 20 20 21 16 15 16
74 68 54 35 23 21 27 31 44 42 48 32 43 34 24 24 13 11 8 10 15 21 21 14 3 19 29 30 24 22 20 15 12 11 10 9 8 8 8 8 10 16 20 22 21 20 18
66 62 44 27 28 24 31 43 56 49 43 47 45 31 25 24 14 10 6 6 11 17 20 16 0 14 31 32 26 26 22 13 11 8 4 5 6 9 9 9 9 10 15 18 20 20 20
64 60 33 26 25 21 36 61 52 53 44 47 35 31 25 24 14 11 5 3 8 13 17 16 6 8 14 30 30 26 19 13 9 8 5 7 7 7 8 10 11 11 10 13 18 23 23
64 53 26 25 20 20 57 59 59 48 41 36 34 31 22 22 16 12 7 3 5 10 14 14 9 8 14 20 30 29 27 19 16 12 12 8 7 7 7 6 9 14 16 18 18 19 20
62 43 17 21 17 49 56 54 53 44 40 31 34 29 21 22 17 14 9 5 6 8 12 13 12 4 16 21 22 23 23 20 18 19 15 14 9 7 5 5 6 8 14 18 17 16 22
55 26 15 22 36 50 54 62 54 41 35 35 31 27 24 24 19 16 12 8 10 9 11 14 13 9 8 19 20 24 22 24 24 23 21 19 16 15 12 9 9 8 8 8 10 15 16
40 12 22 47 61 63 58 60 43 44 43 32 27 23 31 25 21 18 15 10 8 9 10 12 14 17 11 15 21 23 23 22 18 17 19 22 22 20 18 18 16 13 13 14 15 15 18
22 24 47 67 64 64 60 51 50 46 35 25 18 30 35 26 24 21 17 13 8 10 10 12 16 17 15 15 5 13 22 22 22 21 19 18 17 18 19 21 21 16 17 18 18 20 21
11 42 66 59 49 55 46 45 45 38 40 30 30 32 36 27 24 22 19 15 11 9 10 12 16 19 19 20 17 11 3 15 20 20 19 19 18 19 21 19 20 19 20 21 21 21 23
22 58 57 53 58 58 45 36 39 38 36 33 29 34 34 26 25 22 19 17 14 10 9 9 10 15 18 20 21 18 11 5 2 13 20 22 20 19 19 24 25 23 25 27 25 25 25
53 66 51 42 40 47 43 41 37 36 41 34 29 35 32 25 24 23 21 18 16 12 9 9 8 8 11 16 17 18 18 15 7 2 7 16 22 23 23 22 23 25 24 24 26 27 29
69 54 42 36 38 40 39 34 31 37 36 35 33 35 35 30 25 24 21 18 17 13 10 8 8 7 8 10 9 12 15 14 13 12 6 2 5 16 24 28 27 28 28 29 30 29 31
72 49 44 38 43 38 35 35 29 33 33 33 37 35 35 27 25 23 20 18 14 13 11 8 5 4 5 6 8 8 7 9 10 12 11 4 3 5 10 13 18 22 29 32 34 35 36

GFSGBSN_500_spd_081.txt.gz
Wind_Speed
48 48 47 44 43 41 40 38 35 36 37 36 43 43 40 39 40 41 43 44 45 50 53 58 62 68 68 65 58 52 36 25 28 23 21 19 15 26 42 53 59 61 60 73 42 53 51
52 51 50 49 47 45 43 43 42 39 34 35 35 43 42 38 37 39 42 43 45 51 56 59 63 66 66 63 57 45 28 21 26 22 21 18 18 33 25 46 54 55 57 73 42 56 43
50 49 53 51 49 47 48 46 45 45 42 39 35 38 42 35 35 38 42 44 45 52 57 59 64 63 63 60 50 37 20 18 18 20 20 19 20 38 30 39 52 52 59 71 38 56 52
50 50 48 52 52 50 48 48 46 48 43 41 39 36 37 40 35 36 41 42 44 52 57 58 63 59 59 52 45 32 16 14 13 15 29 24 16 30 32 44 51 52 61 68 36 60 60
55 58 53 52 52 51 50 48 47 48 41 40 39 35 35 42 43 36 40 40 43 53 54 58 58 57 50 42 34 24 14 11 14 15 24 17 27 40 26 45 50 50 63 36 32 54 56
60 57 52 49 51 49 46 44 43 42 39 38 35 33 32 37 36 37 38 38 43 51 52 56 53 50 39 27 31 20 1 4 13 19 27 19 31 39 34 46 49 49 60 32 43 53 56
57 55 52 49 48 49 47 46 45 43 39 39 37 32 31 35 40 40 39 37 42 49 50 52 47 40 27 22 26 22 11 10 11 22 21 21 29 25 33 43 51 50 62 26 47 53 60
57 55 51 49 50 48 51 49 47 47 43 42 41 39 35 29 38 42 39 40 42 46 47 46 41 29 19 17 20 10 10 6 8 15 22 26 25 26 30 29 37 48 64 27 37 57 39
58 54 52 49 51 52 51 50 49 48 38 40 45 42 36 31 37 40 38 39 40 42 45 42 33 22 13 17 18 16 12 6 11 11 21 22 27 31 35 28 26 39 49 49 36 53 49
62 61 57 56 55 56 57 55 53 52 49 45 43 44 41 35 37 37 38 38 38 39 40 35 26 15 6 13 16 19 15 17 18 26 25 21 19 33 16 20 26 24 39 37 37 31 29
62 62 63 62 59 63 60 59 58 53 53 50 45 46 43 39 35 36 36 37 35 36 38 31 21 9 1 6 15 15 15 23 36 29 23 15 21 22 16 17 19 16 25 35 38 33 14
65 63 64 66 69 66 65 63 62 59 53 55 52 45 43 40 35 38 38 34 32 33 29 26 14 6 3 4 9 11 17 21 24 21 24 18 16 13 17 10 12 14 14 28 41 32 18
68 67 67 67 67 66 65 60 57 56 54 51 54 50 45 38 35 39 37 32 29 29 28 20 10 2 9 5 9 24 21 17 13 15 16 27 20 20 14 14 12 13 18 26 29 21 21
72 70 69 70 70 70 69 68 60 56 54 54 55 50 43 38 34 40 36 26 24 24 24 14 3 2 8 7 18 23 15 12 5 13 15 16 15 9 11 11 9 17 28 23 15 16 19
72 71 73 71 68 66 62 47 48 57 56 55 55 50 43 38 34 41 32 22 20 20 20 8 1 6 11 15 19 20 14 11 15 15 14 16 15 12 9 10 8 10 22 22 12 11 15
73 72 66 64 64 66 32 14 12 33 55 55 48 48 43 40 37 37 22 19 17 17 15 6 6 15 16 25 22 22 4 8 13 12 11 11 12 10 8 13 13 12 10 10 5 8 13
76 69 61 63 63 40 9 38 35 27 53 64 52 44 43 38 41 26 14 16 14 13 9 6 6 19 18 26 23 14 14 15 14 10 10 9 8 6 5 4 7 14 16 18 15 11 10
74 63 59 60 51 15 31 42 34 34 52 54 47 45 35 41 34 20 15 14 9 8 6 1 7 20 25 23 19 17 16 12 11 7 6 4 4 4 5 5 3 5 13 15 19 17 17
67 61 57 54 37 12 39 39 40 44 57 58 51 46 43 42 27 19 17 11 7 4 5 4 9 15 27 26 22 21 20 15 11 6 3 1 1 3 6 5 4 4 6 13 15 16 19
64 57 54 50 24 20 36 43 46 57 63 50 53 48 39 34 23 22 17 11 6 2 5 8 5 15 29 32 28 25 22 16 10 6 3 2 2 2 3 3 4 7 10 10 11 14 17
61 55 49 37 12 24 35 42 49 62 51 56 51 45 37 26 23 24 18 12 7 4 6 10 8 10 20 27 34 28 27 20 18 11 8 4 4 4 1 1 2 3 5 7 7 11 13
60 55 37 14 13 24 36 55 62 51 56 53 46 43 28 21 29 23 17 14 11 9 9 12 11 9 11 17 24 39 35 27 22 18 12 12 10 7 7 4 2 3 3 2 7 11 13
64 38 20 8 19 38 57 62 50 51 55 44 38 30 28 24 25 25 22 18 16 12 11 12 13 11 10 14 20 24 26 25 22 19 19 18 16 15 15 12 12 11 10 9 9 11 12
51 25 8 17 34 56 62 40 46 57 45 40 29 33 30 28 29 28 23 20 18 14 12 15 14 13 11 11 11 14 24 25 23 21 21 22 23 22 20 18 19 17 17 17 15 15 16
35 13 11 33 51 57 39 39 54 47 45 35 30 30 26 33 33 27 24 22 20 18 15 17 18 16 17 17 15 14 11 11 19 21 22 21 19 18 19 20 22 18 17 19 19 22 20
24 6 27 54 46 46 45 50 39 44 38 34 32 29 24 35 31 28 25 23 21 21 17 16 16 17 18 18 17 14 14 13 8 11 18 22 22 21 20 21 20 20 20 18 19 23 24
5 23 56 52 52 52 52 38 41 36 36 32 30 29 28 35 31 29 27 24 20 19 17 15 13 13 13 15 15 15 13 12 10 10 8 9 15 19 21 23 21 19 20 22 23 26 28
14 51 51 52 55 49 45 38 36 35 33 30 31 33 37 34 31 28 28 26 22 18 17 15 13 12 10 10 10 10 11 11 12 9 8 5 4 6 9 15 18 21 24 27 29 29 29
40 58 52 51 50 45 40 38 37 30 31 29 35 35 39 33 30 27 25 25 22 19 16 14 12 10 10 8 7 5 4 4 5 6 5 4 4 2 1 5 8 14 20 23 27 31 32

GFSGBSN_500_spd_084.txt.gz
Wind_Speed
51 49 45 45 43 45 47 47 50 50 46 46 41 41 42 34 34 36 38 38 38 41 46 47 51 54 58 63 65 67 65 58 44 26 28 27 23 23 24 17 49 56 50 58 54 50 47
50 50 47 45 47 47 49 51 50 51 48 47 47 46 43 40 35 34 37 40 41 41 44 47 51 54 59 65 63 62 56 49 29 23 29 17 18 19 18 27 38 48 50 52 54 59 65
48 49 47 48 47 47 49 48 49 50 50 46 47 45 49 39 32 36 35 43 45 42 45 48 51 55 59 63 60 54 49 39 17 20 11 16 15 15 15 40 38 40 47 51 52 65 45
53 55 53 52 51 51 51 47 45 47 48 47 44 40 45 38 37 31 35 41 41 42 47 48 52 54 59 56 52 48 42 26 10 9 11 14 12 9 14 39 44 48 42 49 49 66 39
57 56 56 54 53 53 55 52 45 44 46 45 43 40 37 39 42 36 35 35 44 44 48 47 51 52 53 47 39 41 33 6 6 6 13 18 13 15 18 26 42 43 37 45 45 56 63
58 55 55 54 54 55 56 51 48 44 45 46 45 42 40 40 43 40 37 38 46 49 47 46 47 49 46 35 35 39 27 11 3 5 15 14 11 21 18 30 38 32 33 41 45 70 40
60 59 56 57 56 56 55 52 50 44 45 45 46 43 45 44 41 44 40 40 45 47 45 43 45 44 38 26 31 31 16 8 3 5 14 12 23 18 7 27 34 30 33 35 43 65 34
64 64 60 57 57 57 57 55 52 48 45 45 42 44 44 45 42 44 38 37 41 47 43 43 42 37 27 20 30 27 10 5 5 11 18 7 8 17 18 21 31 28 31 35 53 50 28
68 64 59 60 60 60 60 58 55 55 50 47 47 44 44 41 41 41 38 36 42 44 43 42 34 30 20 19 28 18 7 5 4 9 10 9 12 16 23 22 23 30 27 48 40 33 24
67 64 64 65 63 63 63 62 60 58 54 49 48 48 47 44 46 39 38 32 42 41 40 42 26 20 14 18 24 15 14 10 13 13 12 13 16 20 23 17 16 28 28 48 15 27 39
69 71 75 72 68 64 66 63 64 58 55 50 48 49 50 44 48 41 33 35 38 40 42 29 26 16 7 13 13 15 23 23 20 16 15 18 25 20 16 13 17 20 32 41 33 13 22
76 76 78 72 68 63 61 61 60 59 58 50 48 50 51 47 46 44 33 29 38 37 37 27 18 11 3 6 9 19 24 25 21 20 19 15 15 15 19 17 9 8 20 26 34 21 21
78 81 76 70 65 65 65 64 61 62 58 57 49 51 54 51 44 41 34 28 37 32 31 23 16 8 2 9 13 9 10 14 15 22 19 18 13 20 13 16 10 9 8 14 19 20 20
82 79 74 69 70 67 61 58 59 62 56 61 53 54 55 48 44 38 36 31 30 31 29 22 11 2 9 11 14 11 9 7 17 20 17 24 21 18 21 17 12 15 17 16 15 22 19
85 78 73 74 69 59 56 59 57 30 15 24 50 53 54 48 43 37 34 30 27 32 23 16 9 6 14 18 15 15 14 12 13 12 10 13 16 17 16 16 15 21 16 17 16 18 16
83 76 77 70 61 55 55 48 13 24 13 14 50 52 48 45 40 36 33 24 27 26 21 14 9 12 18 23 19 13 10 14 14 13 14 15 11 14 15 12 14 19 17 16 18 15 16
79 78 74 63 57 55 43 20 25 17 16 21 46 49 47 44 42 36 26 21 24 23 18 12 9 14 19 24 20 10 11 14 15 13 13 11 10 9 14 11 12 7 5 5 10 14 14
79 78 71 59 56 44 32 18 23 14 18 30 44 48 49 47 42 32 21 23 20 16 15 9 10 20 22 23 21 13 13 11 13 12 11 10 8 10 12 9 6 7 8 6 7 7 9
79 74 66 63 50 36 15 27 23 17 29 39 47 51 51 46 39 29 24 21 17 12 12 9 12 25 25 25 22 15 16 12 10 9 6 7 7 4 6 8 9 8 10 9 12 13 13
78 72 65 60 32 27 19 32 30 27 35 46 50 52 46 44 32 28 19 14 16 10 7 9 11 22 28 24 23 20 18 16 12 9 7 6 4 4 4 4 6 9 9 11 14 16 17
76 67 65 41 28 17 34 34 32 33 41 51 53 50 44 39 30 22 14 18 13 7 5 7 5 15 28 26 20 22 21 17 13 7 3 3 3 5 6 4 4 5 5 6 6 11 14
73 65 62 35 15 9 42 37 35 36 43 52 52 48 38 35 30 20 20 18 11 11 10 9 9 12 18 29 30 28 25 22 16 13 10 7 3 3 5 5 5 5 3 4 3 6 8
70 64 52 20 5 28 38 38 34 43 48 52 50 43 36 33 29 23 21 19 15 14 14 12 13 12 18 24 27 31 28 26 24 16 16 16 11 8 7 7 6 5 4 2 1 2 5
71 58 34 7 3 30 38 34 36 48 48 46 43 40 35 28 27 29 23 18 18 16 17 17 13 11 11 13 17 18 24 28 26 27 21 18 18 16 14 13 12 12 12 12 10 10 11
68 48 19 7 7 22 31 36 41 41 42 43 42 36 31 30 33 26 20 20 20 17 17 19 20 18 18 18 12 16 21 23 25 24 22 22 22 22 23 23 19 17 16 17 17 17 17
58 32 4 8 13 32 41 28 25 43 46 41 33 32 33 33 30 23 20 22 22 21 20 18 21 20 17 17 17 17 15 14 15 19 22 21 22 21 20 19 19 21 20 20 22 21 26
41 15 10 28 39 31 27 30 43 38 35 33 35 33 32 33 30 24 22 23 25 23 22 20 18 18 17 16 15 14 13 13 11 10 9 11 14 17 19 20 20 21 23 23 22 22 27
24 3 29 39 35 23 28 33 38 31 28 30 33 30 37 32 30 26 25 26 26 24 21 17 14 14 13 13 13 13 13 12 10 8 6 5 4 3 4 7 14 18 21 22 23 22 25
3 22 30 36 30 31 32 23 32 29 27 24 23 31 37 30 30 28 26 26 24 22 18 14 12 11 10 9 7 7 7 6 6 4 3 2 2 0 2 3 6 9 11 15 17 19 23

GFSGBSN_500_spd_087.txt.gz
Wind_Speed
46 44 45 44 47 45 44 42 43 44 48 49 51 52 48 47 45 43 43 46 39 35 46 49 47 46 48 46 49 51 55 60 63 61 55 41 30 28 23 23 30 29 29 34 38 46 53
48 45 48 48 50 50 49 45 43 45 50 51 51 50 48 47 44 42 40 42 40 38 43 45 47 47 46 48 48 51 54 57 55 51 41 25 23 15 16 24 23 22 24 37 43 44 51
50 49 49 51 55 54 50 50 50 48 48 53 52 48 46 46 43 41 39 40 42 46 39 44 50 52 46 46 49 49 47 47 50 40 19 12 8 15 17 17 17 38 27 26 40 43 48
52 52 54 56 59 61 57 56 50 52 53 52 54 50 44 44 40 40 38 39 40 42 46 46 52 48 45 44 45 43 42 46 45 19 8 6 10 11 8 9 17 37 26 31 40 46 48
53 55 57 62 64 60 60 56 56 53 53 57 55 50 45 46 42 41 39 40 39 39 45 49 52 48 42 40 38 35 40 39 28 7 5 7 7 6 2 19 25 21 26 27 39 46 47
58 59 62 66 65 63 60 59 60 58 56 57 57 53 48 44 42 41 40 40 42 39 41 48 43 46 37 32 29 32 35 27 19 0 7 7 2 5 8 23 29 14 23 33 34 41 39
62 64 67 71 69 64 63 63 64 60 57 59 57 53 50 46 42 41 39 38 40 39 40 43 47 47 31 27 26 35 23 15 7 4 10 3 8 8 2 22 19 22 18 19 30 33 42
64 68 72 73 70 67 68 68 66 61 57 57 55 53 50 48 42 40 38 37 34 36 37 40 45 32 26 20 28 24 12 7 2 5 2 4 8 2 9 18 16 14 16 15 29 32 38
69 72 72 71 69 70 71 70 67 61 57 54 51 51 49 49 46 41 39 37 35 35 32 38 39 27 20 19 22 18 5 7 3 4 4 7 6 5 16 8 18 13 14 14 23 31 43
72 72 72 71 72 73 72 70 63 57 53 51 48 47 44 49 46 42 40 37 36 33 36 36 27 22 14 14 18 15 11 8 10 7 5 11 6 6 12 15 15 10 13 13 11 23 30
75 74 73 73 74 74 70 65 62 61 56 50 49 45 39 44 45 42 39 35 34 31 33 22 25 14 8 9 8 14 19 20 13 10 9 15 23 15 16 10 6 11 11 15 16 27 25
76 76 75 76 76 72 71 69 65 56 52 52 51 47 39 40 43 41 39 34 33 30 31 27 18 11 4 5 10 14 15 17 19 15 14 16 21 16 8 15 11 13 14 23 21 20 23
78 77 77 78 75 74 73 61 58 49 47 46 48 49 42 43 40 39 39 34 30 26 26 24 15 4 10 15 16 12 14 14 16 14 10 9 14 14 13 17 16 13 22 21 12 6 10
80 79 81 77 76 74 63 56 54 44 47 31 36 50 50 45 41 39 40 31 29 25 23 15 11 2 13 18 10 7 12 17 16 23 26 24 22 19 15 15 14 15 18 22 17 6 9
83 83 82 78 75 68 61 54 41 38 8 13 10 43 52 43 39 42 39 30 27 22 26 16 3 8 18 16 12 7 9 16 13 15 19 22 24 21 20 18 19 13 11 13 10 10 11
86 83 79 76 70 60 60 38 31 15 9 10 5 16 46 41 42 42 36 29 24 18 21 16 2 13 20 19 15 12 11 13 14 11 14 15 16 22 23 21 19 17 18 14 9 13 12
86 82 79 72 69 66 40 30 18 7 2 14 15 26 41 42 44 39 33 27 20 15 18 7 5 16 24 24 18 14 14 16 15 17 15 15 14 17 17 18 19 21 19 20 18 16 14
83 80 76 71 63 57 34 22 10 7 12 20 31 33 44 42 39 37 30 23 14 11 18 7 9 21 26 25 19 18 19 18 19 18 17 17 15 12 10 12 9 8 11 16 18 16 14
80 79 73 70 63 43 31 5 17 15 17 27 31 36 40 39 38 33 27 18 12 13 14 7 15 22 29 30 19 18 18 16 17 15 16 16 16 14 14 12 8 11 12 14 16 15 12
78 77 70 70 58 32 15 20 21 22 26 33 31 32 37 38 35 30 23 17 14 13 13 6 16 24 28 29 23 17 13 12 16 13 13 12 12 12 12 11 10 12 14 14 16 14 13
76 74 71 63 35 24 3 28 24 26 30 32 35 37 38 34 30 25 19 18 14 11 10 3 14 21 25 28 24 18 15 16 15 12 8 11 11 12 12 12 11 12 15 13 13 14 13
76 71 70 40 22 19 17 31 24 26 30 32 35 35 34 32 27 22 20 18 11 8 6 9 15 19 26 26 26 23 22 22 16 11 4 5 8 10 13 13 12 12 14 13 11 11 13
74 72 50 26 20 10 30 27 21 23 29 35 38 35 33 30 25 22 22 13 12 9 9 11 18 20 25 25 24 26 25 20 15 10 7 4 2 3 7 8 9 10 13 12 10 9 9
72 60 37 24 17 11 22 18 10 20 28 32 34 31 28 26 23 19 13 14 10 11 11 13 15 19 24 28 26 24 23 22 19 16 13 10 11 8 5 5 4 3 4 5 5 7 8
67 49 32 22 20 18 19 13 22 30 32 32 31 28 22 23 18 14 15 13 11 13 14 15 17 16 15 16 19 21 23 21 23 22 19 17 14 13 14 13 12 10 11 11 13 15 15
60 38 22 19 18 21 24 26 33 34 34 32 29 26 21 18 16 19 18 18 16 17 19 20 23 22 21 18 16 15 14 13 12 14 17 16 16 16 14 15 15 15 17 17 17 20 22
50 25 17 25 24 27 30 33 34 32 28 26 22 23 15 18 20 19 21 22 23 23 25 24 23 23 22 20 18 16 14 13 10 7 5 4 4 4 5 6 7 10 9 12 15 15 18
41 8 23 24 24 26 30 31 27 26 24 23 19 16 16 21 20 21 25 25 26 26 25 24 22 21 20 19 17 16 16 14 13 12 11 9 8 5 3 2 5 6 7 10 12 13 16
30 4 14 22 25 26 25 24 22 19 16 16 14 16 19 21 20 22 24 24 24 23 20 17 19 17 17 16 14 13 12 10 9 8 6 6 5 3 2 2 4 7 10 12 13 15 18

GFSGBSN_500_spd_093.txt.gz
Wind_Speed
53 54 53 51 53 57 59 57 57 57 57 56 57 57 55 53 52 52 50 50 49 49 49 41 40 42 44 44 40 39 41 37 39 39 40 42 44 46 47 49 53 57 57 64 67 70 72
57 56 56 54 54 56 59 56 56 55 54 54 56 56 55 54 53 53 53 49 48 49 48 42 39 40 41 40 38 38 41 45 45 38 40 42 43 42 43 45 47 45 46 42 44 49 49
59 57 57 57 56 58 56 54 54 56 56 57 58 59 58 57 55 55 54 51 48 46 46 41 39 38 38 39 39 37 40 44 44 39 41 43 38 34 28 22 21 26 30 34 35 37 42
61 59 59 59 58 59 59 59 60 61 62 61 59 59 59 57 55 54 52 50 47 45 42 39 39 38 37 37 37 37 38 41 39 39 42 33 16 9 8 13 17 22 26 25 17 21 28
62 63 61 61 60 60 61 63 67 67 66 64 60 59 59 58 54 52 50 46 47 44 38 36 37 35 31 32 32 34 36 33 36 37 25 6 5 5 6 14 15 13 11 8 5 6 12
65 66 63 62 62 64 68 72 74 75 76 72 67 61 57 56 51 47 44 44 41 40 35 33 32 30 27 26 31 32 29 31 31 17 4 3 6 4 7 5 2 2 2 9 5 6 5
67 65 64 64 67 71 73 73 73 76 72 65 60 54 49 45 39 31 32 29 37 33 29 31 26 24 22 24 29 22 25 21 9 6 1 3 0 3 2 2 5 2 2 7 5 4 10
70 68 68 71 75 76 75 74 77 70 67 69 57 49 44 40 36 28 29 28 28 28 30 23 21 20 21 23 14 14 15 1 9 6 3 4 5 8 2 7 4 5 5 7 2 7 11
70 70 73 76 78 80 76 80 73 69 67 54 48 40 36 35 33 29 25 19 24 26 24 20 16 16 19 10 6 12 3 11 8 6 3 4 2 3 8 11 8 11 6 5 3 4 13
70 73 79 85 80 76 80 84 76 73 61 50 39 33 30 24 28 27 25 25 22 22 17 17 12 14 10 7 2 3 19 12 9 5 3 2 7 7 9 16 6 13 10 9 3 10 3
76 80 78 75 74 77 82 80 81 71 48 30 25 24 19 22 20 22 25 25 28 16 13 13 12 11 8 9 9 17 11 7 5 3 7 6 7 13 14 17 15 15 20 17 6 9 6
76 73 68 71 76 78 85 75 78 52 26 19 10 6 9 18 20 25 26 24 24 17 13 11 12 9 16 12 11 10 8 4 6 7 12 6 12 13 15 16 16 16 12 13 10 12 11
76 67 63 71 75 83 76 80 62 24 17 2 5 13 6 19 26 31 26 33 26 21 15 13 8 16 20 13 12 11 7 6 9 11 10 6 13 10 9 15 15 18 16 11 12 10 7
76 73 69 67 73 73 76 61 21 14 7 12 12 19 7 30 35 37 38 31 30 22 17 12 7 21 21 14 10 9 6 5 7 11 12 11 12 7 12 16 16 17 19 13 11 7 8
79 77 74 70 67 67 49 21 17 15 17 22 17 10 10 39 41 37 41 34 24 20 16 13 17 25 21 12 10 14 12 12 9 9 13 10 12 11 12 18 22 22 20 17 15 14 15
82 79 76 71 58 41 26 15 15 19 24 18 14 15 41 38 40 39 37 30 24 17 13 10 24 28 22 13 19 22 18 17 14 11 7 12 12 17 19 22 19 16 20 19 19 23 19
84 81 75 58 43 27 22 18 18 27 17 20 32 41 40 39 38 35 33 30 21 16 6 10 30 31 22 16 18 15 14 12 12 11 12 13 16 17 19 20 17 17 18 17 17 18 24
87 78 62 50 30 26 22 21 31 27 37 44 39 39 38 38 31 28 27 23 18 14 10 16 28 30 23 19 19 16 14 11 10 11 14 20 19 16 19 20 19 19 20 20 20 19 20
81 68 53 41 29 30 29 32 32 30 37 40 36 38 35 33 27 22 20 17 13 8 6 29 34 31 23 22 22 21 17 14 12 13 14 12 18 20 21 19 21 20 19 19 18 17 16
74 57 43 36 36 36 30 37 28 33 34 33 32 37 34 29 24 18 15 13 7 8 13 31 35 30 24 25 25 22 20 17 14 16 17 15 14 13 14 17 20 17 20 21 20 19 16
68 56 43 38 39 39 34 37 34 33 27 28 25 28 27 24 19 15 11 5 8 10 23 31 35 31 29 28 26 23 21 17 14 13 13 13 13 11 11 19 19 18 18 18 20 18 17
67 58 50 42 37 33 37 35 34 32 30 27 23 22 20 17 13 10 8 7 9 11 25 32 35 31 29 27 25 23 23 19 16 14 14 14 13 13 11 12 17 20 21 19 16 14 14
67 62 52 43 35 29 32 32 32 31 29 27 23 19 17 13 11 13 12 13 10 10 25 33 36 33 30 27 22 21 18 16 15 15 13 13 13 13 12 10 12 17 19 18 17 15 14
47 56 48 39 29 26 26 26 27 26 24 22 20 19 17 17 18 19 17 12 12 14 22 30 35 30 29 24 18 14 11 7 5 9 8 9 7 7 9 11 10 8 7 13 17 16 16
40 26 41 37 25 22 21 20 21 21 20 20 21 21 21 23 22 22 20 17 14 16 19 24 26 26 26 24 20 16 12 9 10 11 7 5 4 6 6 6 6 7 8 9 8 9 9
54 13 28 29 22 18 17 15 16 17 19 20 22 22 22 23 24 24 20 17 16 18 19 17 18 19 19 20 24 21 17 14 16 16 14 11 11 10 10 9 8 9 10 10 9 8 9
44 32 14 20 17 14 12 10 12 12 15 15 17 18 20 21 21 21 20 18 22 24 24 22 18 15 15 15 13 12 10 8 7 10 11 11 11 10 8 7 6 5 7 7 6 6 4
39 42 30 14 15 12 9 6 9 11 12 10 10 13 15 17 16 17 18 19 23 25 24 25 23 23 21 18 18 17 17 15 15 16 15 14 12 11 9 7 6 7 6 2 3 4 6
33 29 38 24 21 15 12 12 11 10 13 7 2 6 9 11 14 15 17 17 18 18 20 21 21 21 20 20 18 18 17 16 14 14 13 11 10 8 7 6 4 3 4 6 8 10 13

GFSGBSN_500_spd_096.txt.gz
Wind_Speed
56 56 57 59 59 58 59 59 59 59 59 59 57 55 55 55 56 56 57 56 55 54 54 51 49 47 45 41 41 38 43 41 41 40 40 43 39 40 40 43 47 49 52 53 55 59 63
60 58 57 58 58 59 59 57 57 58 58 57 56 57 57 58 57 57 57 56 55 55 54 52 50 44 43 38 38 38 39 39 38 38 38 42 44 44 41 44 46 49 50 52 53 57 61
63 63 63 64 62 59 57 56 55 56 57 60 62 60 57 58 58 60 58 58 54 54 52 50 47 43 39 37 35 37 36 37 38 39 40 40 44 45 45 47 46 44 42 43 44 50 54
68 67 65 62 60 58 57 58 60 60 61 61 61 62 62 63 56 54 54 51 49 48 46 43 42 38 33 33 33 34 34 35 36 37 39 37 41 46 42 33 30 28 31 33 31 33 36
71 70 67 64 60 59 61 64 64 64 67 68 64 69 70 47 42 44 49 49 45 41 35 35 35 30 29 29 30 29 32 32 35 37 38 37 35 27 19 15 20 19 11 8 5 13 16
75 71 67 64 65 65 65 68 63 68 68 68 74 63 57 51 64 49 39 39 39 35 34 32 31 29 26 25 25 25 27 32 32 33 29 18 12 11 10 12 7 3 6 2 7 8 6
72 67 65 69 68 68 69 72 68 66 68 64 76 74 67 72 41 33 30 27 29 29 28 31 26 24 21 21 24 24 29 27 25 19 5 3 4 8 7 3 4 3 3 2 3 7 2
74 71 73 65 68 73 77 73 79 68 64 73 75 67 40 29 26 21 23 21 24 33 32 26 22 19 18 19 20 26 22 18 7 6 5 3 2 6 7 6 4 2 4 3 6 3 2
70 72 59 57 62 66 73 79 73 64 58 77 64 32 19 15 12 20 26 24 29 20 18 20 20 15 14 15 22 17 12 10 10 9 6 4 5 2 10 8 3 5 5 4 6 2 6
73 68 53 50 64 65 71 73 69 68 79 57 27 21 12 13 12 23 36 31 26 22 20 19 19 16 15 14 10 13 13 13 10 6 5 5 4 5 13 8 6 10 3 6 3 3 8
74 64 64 66 64 72 67 70 75 73 51 24 17 7 10 9 20 28 35 34 22 25 22 21 19 16 14 10 7 17 16 10 6 2 3 3 7 10 14 9 12 10 5 7 9 5 6
72 73 68 75 74 65 55 61 62 31 15 9 8 14 10 11 23 29 31 34 25 26 19 21 19 16 14 14 15 13 8 5 2 4 7 10 12 13 16 12 12 8 9 9 6 8 9
87 80 78 72 60 51 42 24 20 17 15 14 16 12 9 27 33 34 29 29 34 25 16 18 18 16 20 17 15 10 6 5 8 10 3 7 6 13 13 15 15 11 7 5 12 10 7
90 84 75 63 44 39 34 27 28 25 23 20 12 5 30 39 40 35 34 39 21 12 13 15 16 24 21 15 14 9 5 5 10 8 4 8 9 8 12 14 14 3 4 5 10 4 13
86 71 57 46 48 46 40 35 27 21 17 20 20 45 46 42 46 48 37 18 17 16 17 15 29 26 20 15 14 10 9 6 6 4 3 6 6 11 14 13 13 17 16 12 10 10 23
78 78 67 53 53 52 50 51 46 43 46 52 54 49 45 51 41 35 23 28 25 21 14 23 27 24 18 19 17 16 11 14 10 9 5 5 9 13 15 17 17 18 16 17 17 21 25
78 77 67 66 58 57 58 58 56 55 53 50 47 49 52 43 38 35 36 29 19 13 10 28 27 22 19 22 20 17 15 12 10 9 8 8 13 14 12 14 17 16 17 19 22 24 28
75 72 71 63 58 55 54 54 54 53 52 50 44 41 41 36 34 28 24 21 16 14 11 29 26 19 20 23 15 12 11 9 11 13 10 11 11 12 15 15 16 17 21 21 17 24 23
72 65 67 61 56 52 51 50 49 47 43 40 34 34 34 30 26 21 18 13 10 7 4 29 28 19 19 18 16 15 13 10 8 14 15 12 15 13 14 16 17 19 20 24 23 24 24
65 62 63 56 54 50 46 44 43 41 38 34 31 31 29 25 21 17 14 11 7 7 18 36 26 20 20 20 19 18 15 14 12 10 11 16 14 15 13 15 16 14 18 19 23 23 25
58 57 55 52 49 48 43 41 39 37 34 33 29 26 24 21 18 18 13 13 7 11 33 31 25 22 21 22 20 18 15 14 13 13 13 10 6 7 11 13 13 15 16 17 18 17 19
57 51 50 49 47 46 45 41 36 33 31 27 24 23 24 24 21 19 16 14 10 21 33 30 24 25 24 24 20 19 17 14 15 13 12 10 9 7 8 13 14 15 13 15 16 17 15
58 43 45 45 43 44 44 43 40 38 35 35 34 33 32 29 27 22 17 17 15 26 33 28 24 25 23 22 21 19 18 16 15 15 12 11 12 12 8 8 10 11 12 11 10 11 13
49 44 36 38 38 38 39 41 41 40 40 38 37 38 38 38 34 31 24 19 22 25 31 29 25 22 21 19 15 13 11 9 9 12 10 9 10 9 11 8 5 3 3 6 5 4 2
44 45 35 29 31 33 34 34 36 39 39 38 36 38 38 38 35 33 29 24 23 26 30 32 26 22 20 16 12 7 2 0 2 5 5 7 8 8 8 7 7 2 1 2 3 5 7
37 40 43 27 24 26 27 28 30 32 32 32 31 31 34 34 32 32 31 29 24 19 21 21 23 21 19 17 15 14 11 10 7 9 9 7 7 7 7 7 7 8 7 8 7 6 7
35 28 37 39 23 21 23 26 25 25 26 26 24 22 24 26 28 29 30 31 30 27 22 17 14 11 11 10 9 10 8 6 6 10 12 11 11 9 6 8 8 8 8 8 5 3 4
34 32 27 28 34 20 18 21 26 24 21 19 18 15 15 17 19 21 23 25 26 25 24 23 20 20 18 14 11 10 8 6 7 7 8 10 9 11 10 9 8 9 9 4 4 6 9
31 32 31 25 25 32 21 16 19 24 28 22 15 12 7 8 10 12 12 14 16 17 18 18 18 18 17 17 15 15 15 13 12 11 11 10 11 11 10 10 8 6 4 3 3 4 6

GFSGBSN_500_spd_099.txt.gz
Wind_Speed
68 64 63 63 63 61 57 55 55 57 58 59 59 58 56 54 51 49 49 49 48 50 50 52 48 49 48 47 45 41 40 40 39 39 39 39 42 42 42 43 43 37 38 41 46 50 53
71 69 68 67 64 61 59 56 54 53 53 55 55 55 56 53 51 52 51 50 49 45 47 43 46 48 42 43 40 38 38 38 37 37 37 38 40 41 39 42 43 41 40 41 46 51 53
76 75 72 68 62 59 57 57 57 56 56 54 52 53 48 55 56 52 51 51 51 46 41 43 41 40 39 41 37 36 35 34 35 34 37 38 39 41 40 39 41 44 44 46 52 53 53
81 82 78 68 63 62 58 55 56 52 52 49 53 52 53 62 58 54 55 50 41 44 46 35 37 43 31 36 35 31 32 32 33 33 35 36 38 40 42 43 42 41 42 45 48 48 49
87 83 76 69 61 56 55 59 62 57 52 56 55 54 59 62 50 49 42 39 34 29 36 35 29 29 39 32 29 26 27 29 29 30 32 35 38 42 42 33 30 29 31 33 31 31 33
87 85 74 60 53 55 54 60 71 67 64 68 61 53 57 49 55 63 52 45 38 34 31 31 36 35 32 27 24 21 24 25 26 31 34 37 36 27 21 14 16 16 8 7 5 9 12
84 81 67 61 52 55 63 54 63 65 65 50 50 54 54 51 63 63 25 25 32 34 32 37 32 31 25 25 19 21 20 24 28 31 31 25 12 10 9 8 4 5 8 8 4 8 4
76 75 72 63 58 58 60 59 57 57 52 57 68 63 63 43 32 13 16 21 24 23 29 29 27 27 21 19 19 18 21 23 26 23 13 7 8 7 9 6 8 5 8 3 5 3 1
79 74 69 64 58 53 44 41 42 50 59 53 25 23 19 11 10 19 30 25 29 30 31 31 27 22 20 18 18 19 19 18 15 8 7 8 9 8 5 9 8 6 7 5 2 2 6
83 82 76 67 58 52 44 33 28 30 28 16 13 7 9 2 18 26 37 26 24 26 28 28 25 22 21 19 17 15 12 8 13 9 6 7 5 3 7 11 11 10 6 3 2 4 12
90 87 78 74 65 50 43 36 30 26 24 19 12 14 11 19 28 34 27 23 19 28 29 28 28 24 21 13 9 10 12 13 8 4 4 5 3 11 11 9 11 8 3 2 3 8 11
84 84 78 78 77 65 45 33 30 28 23 19 22 19 15 33 32 37 26 32 29 21 21 24 23 18 17 14 12 17 13 8 4 6 1 6 8 17 9 9 9 6 2 7 7 8 6
76 80 74 76 77 80 70 48 33 31 28 20 15 34 43 39 43 42 41 42 24 26 24 21 21 22 21 18 18 11 8 9 11 10 10 4 12 13 8 8 8 6 6 9 7 12 7
70 75 70 69 72 72 74 72 68 64 61 56 51 49 46 42 36 30 36 22 30 24 19 21 22 26 22 20 15 11 8 12 11 5 9 10 7 7 13 9 7 4 5 9 12 11 11
64 69 67 65 64 65 63 64 66 66 61 55 52 49 49 45 35 30 31 28 24 24 18 22 31 24 21 17 14 11 11 8 9 6 9 8 5 4 8 7 2 4 9 8 11 20 28
57 62 63 61 60 60 59 60 59 57 55 53 49 42 40 36 37 33 28 28 21 13 22 30 28 24 21 20 13 15 13 10 11 10 11 10 9 10 7 7 9 9 6 9 21 24 21
50 57 58 58 55 57 54 52 51 51 49 45 38 32 36 35 30 29 23 21 21 24 28 26 24 24 23 17 15 16 12 9 9 9 8 14 13 12 9 13 12 12 12 19 30 28 27
47 50 55 55 54 53 51 47 44 46 46 41 36 34 32 28 25 22 20 19 20 19 26 22 17 20 21 17 17 15 13 14 14 9 13 12 13 12 14 14 16 16 18 18 23 30 27
50 45 49 51 53 53 49 46 42 39 39 36 31 28 27 24 21 20 15 13 14 21 25 23 19 22 17 13 12 14 13 16 16 12 12 13 15 13 15 17 18 16 19 20 19 23 29
54 43 43 47 50 53 52 50 43 39 38 34 29 25 21 19 19 15 14 10 7 21 28 21 17 18 15 15 16 17 16 15 15 11 13 14 12 12 13 15 17 16 19 20 21 25 23
52 47 37 40 45 49 53 53 50 44 38 36 31 27 24 20 16 14 10 9 13 32 27 18 20 20 17 18 21 18 19 17 15 13 12 9 8 10 11 13 15 16 15 16 18 24 19
49 49 42 34 38 43 47 52 53 51 46 43 45 42 34 28 24 19 20 21 35 36 23 21 21 22 23 20 18 17 16 16 15 13 10 7 6 9 10 11 14 16 15 14 13 14 18
42 44 47 35 29 33 39 44 49 51 49 48 49 49 47 41 31 26 26 31 37 28 22 23 24 22 22 21 19 18 16 16 16 15 13 8 5 7 8 11 13 12 13 14 13 11 11
36 38 41 44 32 28 30 34 39 43 43 43 44 46 47 45 40 32 27 33 31 26 21 24 24 22 18 16 14 13 13 12 12 12 12 12 9 6 5 7 6 12 14 14 11 7 4
32 35 34 40 43 29 25 26 29 32 36 34 36 39 41 43 42 39 33 26 23 26 23 21 19 17 15 11 5 3 8 5 3 4 5 6 7 8 10 8 9 7 11 9 8 6 5
29 32 30 29 36 38 26 24 23 25 28 31 27 29 32 35 37 37 34 32 28 22 16 13 13 12 10 9 7 6 6 4 3 6 7 6 5 5 5 5 8 7 5 3 2 1 1
28 28 30 27 28 32 36 23 20 22 20 21 24 19 21 24 26 28 30 29 28 26 22 16 10 6 7 5 3 3 2 3 6 11 13 12 12 11 11 10 7 7 7 8 7 4 5
28 26 28 28 24 24 24 31 27 19 16 17 16 18 14 14 17 18 20 21 22 22 21 19 18 14 12 9 6 6 7 8 10 10 12 13 13 14 13 11 8 12 13 8 6 4 2
32 25 25 28 30 25 23 22 23 26 19 14 15 12 12 9 8 11 12 12 13 14 14 14 13 13 12 12 11 11 10 9 10 9 9 8 9 8 9 9 8 7 5 3 2 2 4

GFSGBSN_500_spd_102.txt.gz
Wind_Speed
76 68 59 63 64 62 59 56 56 54 54 52 50 47 44 43 42 39 39 38 38 36 30 35 37 34 42 44 44 45 48 43 39 38 40 40 40 40 41 43 45 43 44 46 49 46 46
62 65 71 72 68 59 47 52 51 55 53 57 44 41 40 33 29 33 32 27 29 32 35 28 31 38 32 35 39 41 42 43 40 36 36 37 39 39 40 43 45 44 44 44 47 51 47
68 74 74 71 66 54 48 45 55 53 56 57 44 41 42 37 32 34 29 31 34 34 34 31 34 39 39 29 33 35 36 33 32 32 33 35 36 37 39 42 44 43 43 43 49 50 49
74 77 76 74 67 60 50 47 34 43 40 45 47 46 43 43 38 34 33 30 33 33 33 37 32 32 32 28 27 31 34 30 29 28 31 33 34 37 39 41 40 40 42 45 52 47 49
74 78 79 79 72 57 50 39 45 45 38 46 48 45 45 43 44 45 42 40 30 31 30 34 28 38 34 33 30 32 31 26 24 25 28 31 32 34 36 39 39 43 45 46 42 44 46
78 80 81 81 76 60 46 35 26 37 28 38 44 48 42 38 42 34 40 38 35 34 30 33 28 32 31 34 25 26 26 25 23 24 27 28 30 35 38 40 39 39 37 31 25 27 31
81 84 83 81 76 57 50 45 15 23 24 30 41 43 42 39 40 46 45 39 35 39 33 33 28 31 29 27 30 26 22 18 20 21 24 27 31 34 30 28 26 21 17 13 10 14 6
84 84 81 81 79 65 42 41 36 25 28 33 26 24 27 20 15 20 24 28 31 21 27 30 21 28 32 25 23 19 17 16 18 22 22 26 25 16 15 14 12 11 10 12 9 12 9
82 81 80 80 84 72 46 35 32 27 23 26 21 18 17 6 9 17 25 31 28 19 25 30 29 17 30 21 18 18 17 16 17 18 17 13 9 11 12 11 13 9 13 7 8 8 12
78 78 74 78 83 79 65 43 33 29 24 24 25 21 24 36 38 36 32 28 23 23 25 17 15 19 20 23 20 17 13 11 12 10 10 9 9 9 8 12 10 6 9 9 9 11 11
69 71 69 71 75 75 79 81 62 40 26 33 48 53 49 45 40 30 25 24 25 30 32 27 22 24 25 21 15 11 8 8 11 8 7 7 10 11 9 10 6 9 6 3 6 7 7
64 66 65 64 67 68 69 70 70 68 64 62 53 48 47 43 40 38 34 29 23 26 26 23 24 22 15 13 9 10 14 14 8 5 3 4 7 9 8 6 7 7 4 13 6 6 8
57 59 62 59 61 63 61 64 63 61 60 56 50 45 42 43 40 31 27 22 27 26 27 22 22 21 18 19 20 17 15 11 8 4 5 3 10 10 3 5 7 4 6 13 5 7 8
52 53 55 54 55 57 58 58 57 56 53 50 47 44 44 32 35 31 24 25 26 27 27 24 20 23 26 21 17 16 16 14 9 6 3 10 7 7 5 6 4 6 8 10 7 6 1
50 49 49 53 50 50 52 52 53 53 51 45 41 39 37 35 33 30 26 24 26 24 20 19 29 27 21 17 16 17 16 11 8 9 8 4 4 4 6 4 2 4 7 5 2 11 15
49 48 46 46 46 45 45 46 44 44 42 41 40 36 33 32 29 26 18 18 20 21 26 30 27 24 20 15 15 15 13 10 10 12 8 5 4 5 3 2 5 4 6 4 16 16 12
54 45 45 43 45 43 41 40 39 37 35 34 32 29 29 26 27 24 24 26 33 31 27 25 24 22 17 17 17 13 12 13 12 8 9 10 8 6 4 6 7 11 13 13 17 18 15
56 47 44 43 43 45 45 42 40 38 33 29 25 20 20 22 20 19 22 28 26 25 22 22 22 20 19 17 17 13 16 14 12 11 14 11 8 8 9 13 15 16 20 20 18 18 16
51 54 43 42 42 42 43 46 44 44 39 34 26 21 17 16 13 16 18 20 23 21 20 19 20 19 16 15 15 16 17 14 15 15 13 12 12 13 13 14 18 14 14 18 17 15 15
49 49 50 39 37 37 38 42 46 46 46 41 36 28 23 16 11 9 14 20 23 21 21 19 15 14 14 19 19 18 17 14 15 14 15 13 13 11 12 14 16 18 15 17 26 23 22
45 47 47 46 36 37 39 42 43 45 47 47 48 41 36 28 21 17 19 31 25 20 17 16 15 19 18 20 20 19 16 15 15 12 12 12 11 10 10 13 14 17 20 22 16 18 14
42 42 46 46 44 32 34 38 39 42 44 46 47 44 43 37 30 30 36 34 25 22 20 20 21 21 20 19 19 17 15 14 11 9 9 10 8 8 9 8 11 13 14 16 17 21 20
40 37 42 46 42 42 30 32 35 36 38 41 44 46 44 44 36 34 35 26 24 21 21 21 22 21 22 21 18 16 14 12 8 6 6 5 7 7 7 7 7 10 11 12 13 15 14
38 34 32 39 44 42 36 27 28 32 32 33 37 41 43 42 38 33 28 24 22 21 20 20 20 17 17 16 16 15 12 12 9 6 5 5 5 5 5 7 5 8 9 8 8 11 10
39 33 29 29 35 42 38 39 30 26 28 26 27 31 35 37 38 34 29 25 20 16 15 16 12 9 7 9 9 8 6 4 4 6 6 6 8 8 8 10 7 8 7 7 8 8 9
41 38 28 25 27 30 36 35 33 28 20 21 20 22 26 28 30 31 30 28 22 18 15 9 3 2 2 3 5 2 3 5 6 6 8 9 10 10 11 11 12 9 13 13 11 8 8
38 41 32 24 23 25 26 34 37 32 27 13 15 14 16 19 22 23 24 23 23 20 19 16 13 9 9 6 3 1 2 6 7 11 14 14 14 13 13 12 10 12 12 10 7 3 7
38 39 38 27 22 22 22 24 27 36 29 28 13 12 12 10 13 15 16 17 17 18 16 14 14 11 12 11 9 6 3 0 2 4 7 9 10 12 11 10 8 9 12 11 10 11 10
39 36 37 33 22 20 18 21 24 22 28 26 26 9 7 10 5 7 8 9 10 11 11 11 10 9 8 9 9 7 5 5 4 4 7 7 10 10 8 8 11 17 12 14 13 12 11

GFSGBSN_500_spd_105.txt.gz
Wind_Speed
66 71 74 74 74 75 68 60 61 44 45 45 46 46 41 32 29 24 26 31 29 34 36 36 36 33 33 34 36 40 43 43 42 43 44 41 41 41 41 40 40 40 42 43 45 46 49
69 74 73 74 75 77 74 66 52 45 38 33 40 42 39 37 29 23 19 21 20 19 17 23 27 29 29 36 35 38 40 38 42 43 43 43 43 40 40 39 39 40 42 42 44 47 49
72 73 76 76 78 79 73 47 37 19 33 32 33 34 40 28 29 23 18 13 13 11 11 13 14 24 32 32 34 28 31 32 34 33 37 38 40 40 37 38 39 40 40 42 46 48 52
73 77 77 78 79 80 63 41 16 5 20 21 25 31 30 24 23 21 20 18 18 13 12 13 15 25 25 38 23 24 27 31 31 31 31 31 32 35 35 36 38 39 41 43 49 53 55
73 79 76 76 81 83 59 40 26 16 19 19 21 30 26 27 27 21 21 22 23 19 17 16 23 22 28 29 27 25 25 25 26 29 27 28 28 29 30 34 36 38 42 45 47 51 50
73 77 74 76 83 88 67 41 36 20 19 16 20 27 29 27 31 24 22 21 23 21 20 17 24 23 23 27 28 27 27 25 26 26 23 24 24 26 29 33 36 40 43 45 46 48 48
72 75 73 73 81 88 75 49 34 31 28 21 20 24 26 30 33 37 32 22 25 25 18 20 19 22 23 29 28 25 22 23 25 22 21 22 23 26 29 33 37 39 40 39 36 39 40
69 71 70 70 76 83 80 65 63 46 38 32 27 16 14 12 18 36 41 28 30 22 22 27 22 21 25 27 27 25 20 19 18 19 21 21 23 25 29 30 29 29 26 20 19 18 15
64 65 65 66 69 73 73 67 65 62 58 54 51 44 38 33 18 5 23 30 35 31 23 18 20 23 27 16 21 24 21 18 19 18 17 18 19 20 20 17 19 16 13 14 10 16 15
61 62 62 61 61 65 64 59 61 60 56 56 52 45 42 41 40 38 32 26 28 27 27 23 19 12 21 17 19 21 20 18 13 10 13 12 11 13 11 13 8 10 11 12 14 16 17
60 58 59 58 58 57 56 57 56 56 59 56 57 56 50 42 40 35 31 42 30 25 27 18 12 15 17 23 17 18 15 8 8 8 7 7 10 11 10 7 8 11 10 7 11 14 12
57 60 57 57 55 53 53 49 48 50 52 53 51 48 46 42 36 35 29 28 29 25 21 19 16 14 15 16 15 13 12 9 9 4 3 4 6 4 3 4 9 10 7 11 14 13 11
56 57 56 55 55 52 47 47 47 47 48 50 48 48 48 41 34 30 30 30 29 28 27 21 21 18 15 11 11 13 14 10 6 3 2 2 4 5 3 7 9 9 10 8 3 6 13
62 52 55 53 52 52 49 42 39 40 39 40 41 40 40 38 34 29 22 19 21 24 25 24 20 21 21 19 17 15 12 11 7 3 1 5 3 2 4 5 4 8 11 9 7 12 8
59 56 52 54 51 50 48 44 37 33 31 31 34 35 35 32 25 23 20 20 24 23 23 26 26 21 18 17 16 16 17 12 9 10 7 3 2 3 3 3 3 7 8 6 12 4 9
59 59 50 50 52 48 45 44 40 31 29 26 27 30 28 33 30 20 10 19 23 24 28 24 22 20 19 19 18 12 9 9 13 12 7 4 3 1 1 1 4 4 4 3 4 6 7
57 54 54 46 48 48 48 45 43 37 27 24 23 25 25 32 31 28 25 31 29 27 23 22 21 24 23 19 15 11 14 12 10 11 10 9 6 5 5 4 4 5 6 7 6 7 4
53 54 50 52 45 47 47 46 45 43 36 30 27 21 20 25 25 24 27 24 24 24 22 20 21 22 21 17 15 16 16 14 13 14 11 10 8 8 12 13 13 8 7 6 10 14 20
48 51 52 50 50 42 44 44 45 43 40 36 33 28 20 19 20 21 22 21 21 24 25 20 18 17 19 18 16 20 18 18 17 14 12 13 15 17 19 21 18 10 11 10 9 13 24
50 45 48 49 50 43 39 41 40 41 42 40 35 30 28 23 19 22 21 19 18 20 20 17 18 16 18 18 17 18 20 19 18 14 16 17 18 18 19 21 21 16 11 12 9 13 24
48 45 42 45 44 46 38 36 37 38 38 40 41 36 35 26 23 27 24 23 17 15 17 19 21 21 20 19 18 16 17 14 14 13 14 16 16 16 16 18 19 17 13 17 22 20 12
44 45 38 38 41 42 43 33 32 34 35 34 36 38 35 32 29 28 24 19 15 16 19 20 20 19 20 19 17 14 13 12 11 11 11 13 13 12 12 12 13 15 13 16 14 15 13
39 38 40 31 35 40 43 41 31 29 29 31 31 35 36 37 30 26 24 19 16 16 16 17 17 17 16 15 14 12 11 10 7 6 6 8 8 8 7 8 9 8 10 9 12 12 9
36 36 36 33 27 32 37 39 38 27 23 23 25 27 28 27 28 26 22 21 19 16 15 13 14 14 11 10 8 6 6 1 2 2 3 3 3 4 3 5 3 4 3 5 5 4 2
35 34 32 35 26 24 28 33 35 34 22 20 19 20 22 24 25 23 22 20 17 16 15 12 11 10 8 7 5 4 6 7 7 7 8 9 9 8 7 6 4 5 6 6 6 8 9
40 34 30 30 31 20 22 26 31 34 30 17 16 15 16 17 18 21 18 17 15 14 13 10 7 7 7 7 6 8 9 12 13 14 16 17 17 16 17 17 15 14 13 14 14 15 17
39 36 31 28 29 23 19 22 23 27 31 28 14 11 10 11 12 14 15 15 15 14 13 10 9 8 6 5 4 4 7 10 13 17 20 21 21 20 20 21 19 20 19 17 17 12 9
36 39 33 27 28 24 19 16 19 21 25 29 26 13 10 8 7 7 8 9 10 10 9 8 9 7 6 5 4 3 2 4 5 6 8 11 14 14 14 13 15 13 14 15 12 12 11
35 34 33 27 25 22 18 15 14 14 15 18 24 24 16 9 9 9 5 5 3 3 5 5 5 5 5 5 4 2 3 4 6 6 7 7 9 9 9 9 11 12 12 12 12 12 13

GFSGBSN_500_spd_108.txt.gz
Wind_Speed
63 68 74 80 81 85 89 69 49 32 17 40 32 26 30 26 31 27 18 24 29 30 33 38 35 38 38 42 36 42 42 48 49 46 43 42 41 40 41 40 41 43 42 42 43 43 47
64 70 75 80 78 86 92 68 31 27 21 12 23 30 30 26 22 23 22 18 21 26 28 33 36 37 35 37 41 39 38 40 42 40 40 40 39 38 38 40 41 41 40 41 43 47 47
66 72 78 79 79 88 88 79 31 15 11 4 8 22 28 26 20 17 21 18 19 23 37 35 32 33 38 36 34 40 32 33 33 35 37 39 38 37 38 40 40 41 40 41 44 48 48
66 72 75 78 79 82 85 85 69 13 8 4 7 12 13 16 17 20 16 19 18 18 18 25 34 32 29 36 33 34 26 24 29 33 33 33 33 33 35 36 37 38 39 40 43 46 48
65 69 71 74 76 75 77 81 73 70 16 20 18 17 17 15 20 19 14 19 20 20 13 9 11 16 15 18 25 23 23 25 25 27 28 29 27 27 29 30 33 35 36 38 41 46 48
63 66 67 68 70 69 70 74 72 65 59 61 17 30 24 23 24 17 15 20 22 23 20 13 8 8 9 13 19 17 20 24 23 26 25 24 22 25 26 27 30 33 35 37 42 47 49
62 64 65 67 64 64 64 68 65 66 63 58 52 56 23 28 27 28 17 18 23 25 19 11 8 6 9 10 15 18 20 19 20 19 19 20 22 23 24 27 29 32 35 39 43 47 49
60 62 64 64 63 60 60 61 64 65 61 60 57 51 51 29 26 31 27 22 18 16 13 14 11 7 12 9 15 16 19 19 19 17 18 20 20 22 25 27 30 32 35 36 35 40 42
59 62 64 63 62 58 56 56 57 58 64 56 55 59 56 52 16 29 28 24 21 19 15 3 9 15 11 13 20 20 15 19 16 16 16 17 20 22 25 27 27 29 31 27 25 22 20
63 62 63 64 63 59 52 52 52 54 57 60 52 52 53 57 47 24 23 21 20 10 6 10 11 13 14 13 17 21 19 15 16 15 16 19 21 20 20 20 18 23 17 14 13 17 19
66 59 62 63 63 60 56 49 49 49 51 52 52 48 46 47 49 44 27 19 19 25 20 17 13 14 22 14 16 22 25 17 15 14 14 13 12 11 11 14 13 14 8 9 11 17 14
66 61 59 61 63 62 59 52 45 43 45 47 46 44 40 40 39 39 36 31 25 22 18 19 21 19 15 11 14 17 14 12 9 6 3 4 7 9 9 6 6 7 8 12 12 13 14
64 62 56 60 61 63 62 59 52 41 39 43 42 38 35 34 31 33 30 28 25 22 23 23 20 19 16 16 16 15 13 13 10 7 2 4 4 4 1 2 5 7 9 10 10 10 12
60 63 61 55 58 60 61 61 59 50 37 35 37 35 28 33 32 29 28 22 24 27 25 22 19 17 17 16 17 17 15 11 7 6 6 6 4 4 0 2 4 8 9 8 9 14 13
59 61 60 54 54 56 58 60 60 58 39 29 32 34 25 28 30 28 25 26 31 30 28 24 23 20 19 20 19 19 16 16 14 12 10 7 5 2 2 4 6 8 8 8 11 8 10
57 56 60 58 49 52 54 56 56 56 48 29 28 33 32 27 28 20 20 30 31 27 26 24 22 23 22 20 15 12 15 14 17 15 11 9 5 3 3 4 5 6 7 6 6 7 8
53 53 54 58 55 47 48 49 51 52 50 34 22 28 29 31 31 30 25 27 27 28 27 26 24 21 18 17 17 16 14 18 18 15 11 8 5 5 4 4 5 5 6 7 6 6 5
48 51 49 52 54 50 44 44 47 48 48 40 23 24 24 26 29 26 26 28 29 29 25 22 22 23 23 21 21 17 19 20 18 13 12 11 8 8 7 5 6 7 8 10 12 11 16
45 45 47 45 50 50 47 41 42 45 44 42 30 19 20 22 25 23 24 25 24 23 21 20 21 22 24 21 20 21 20 19 16 16 18 18 17 15 14 11 9 10 9 9 16 20 20
42 41 43 42 43 47 47 42 37 38 40 40 37 22 19 19 20 20 20 21 23 24 22 20 21 21 22 22 21 21 20 19 19 20 21 21 22 23 21 19 13 11 9 8 16 20 17
43 40 37 39 38 41 44 44 37 33 35 38 38 35 31 21 20 22 19 17 19 23 24 22 21 21 22 22 20 19 20 18 19 19 19 20 20 23 23 20 16 16 18 18 14 10 12
44 41 37 35 35 33 38 40 42 31 29 32 32 33 32 24 15 17 16 16 17 19 20 21 21 21 21 18 16 15 14 16 16 16 18 17 18 18 17 15 13 16 13 12 8 7 9
42 41 37 32 34 30 30 35 36 35 25 24 27 29 29 27 20 11 13 14 17 19 18 17 17 15 13 11 10 9 7 7 8 8 10 11 10 9 9 9 9 8 8 7 8 8 8
40 44 37 32 26 28 25 28 32 34 33 22 21 23 23 22 19 18 14 16 14 14 16 14 11 8 7 4 3 2 1 2 3 5 7 6 6 5 4 3 3 3 3 4 4 5 7
40 41 40 34 24 23 21 21 26 29 31 27 17 18 19 19 18 17 14 13 15 14 11 11 11 8 5 4 5 6 7 9 10 12 12 11 9 7 8 9 9 9 12 11 11 12 12
34 38 39 37 28 21 22 17 18 23 25 27 22 13 14 16 14 14 13 13 10 11 11 8 6 7 10 11 12 11 14 16 17 17 19 19 20 19 19 20 21 21 21 20 21 21 21
31 33 35 37 30 20 19 19 14 15 21 24 23 23 12 10 12 13 13 13 10 7 7 6 6 3 3 4 7 9 13 17 17 21 21 23 24 25 29 30 28 29 27 27 29 27 25
32 28 33 41 34 22 15 18 15 12 14 19 20 19 23 15 9 10 12 12 11 10 8 3 2 3 4 5 6 7 6 7 8 11 12 12 15 13 15 15 15 16 18 18 17 16 16
31 31 32 33 33 30 16 15 17 14 11 11 14 17 16 18 18 12 10 12 12 12 13 12 8 5 4 5 6 7 10 11 13 12 14 14 16 17 18 19 17 15 15 15 14 15 16

GFSGBSN_500_spd_111.txt.gz
Wind_Speed
58 62 69 76 78 68 74 77 81 52 36 28 14 17 16 20 18 13 19 20 16 22 25 29 33 36 32 37 42 49 55 52 54 50 47 47 45 43 42 40 40 40 39 39 39 41 43
58 63 70 74 74 64 68 70 69 73 29 19 13 1 10 14 14 10 15 13 13 14 23 25 30 33 32 28 29 39 45 41 44 49 50 44 43 41 40 39 38 38 39 39 40 42 42
60 64 68 73 71 62 63 69 61 62 57 23 20 15 12 11 15 12 8 12 11 13 20 23 27 31 29 29 28 34 40 37 36 36 40 45 45 42 37 37 36 36 36 37 39 42 43
60 66 70 74 71 61 61 65 63 53 54 51 38 25 22 14 14 10 11 12 12 14 20 19 23 27 29 30 35 34 28 37 29 28 31 36 37 35 34 34 34 35 36 37 39 41 43
61 65 71 74 73 67 57 60 63 57 53 50 51 47 15 16 14 16 19 16 14 18 37 34 29 21 27 27 29 27 26 26 26 26 23 26 28 30 31 32 32 31 32 34 37 39 41
67 66 70 74 75 73 59 56 61 59 56 55 59 57 18 22 20 19 24 23 18 13 15 26 33 25 22 20 18 16 28 23 25 27 26 26 26 24 24 23 25 27 29 32 35 37 37
71 63 69 73 76 74 68 55 56 60 56 56 59 65 31 24 26 20 19 27 22 17 16 13 15 17 16 14 15 17 21 24 26 24 23 24 24 23 23 23 23 25 28 31 36 38 35
73 67 67 72 75 74 73 58 54 56 54 54 57 69 53 26 28 26 25 29 26 16 15 16 14 9 7 5 10 20 20 21 23 22 21 21 20 19 20 20 24 26 27 32 37 39 40
70 71 64 67 73 75 73 64 54 54 55 49 54 62 62 36 27 27 21 28 23 17 11 10 12 8 5 3 6 16 18 18 17 16 15 14 15 16 18 21 24 26 29 34 37 39 40
66 71 66 66 70 74 75 67 56 51 54 46 48 53 60 31 25 25 21 23 22 17 8 1 4 3 3 4 10 15 16 14 14 11 11 11 13 16 19 21 21 26 29 31 32 29 20
63 68 70 64 67 72 74 70 59 49 53 42 44 46 48 51 40 16 14 15 17 4 4 4 6 11 8 11 15 20 17 15 14 12 10 10 12 14 17 20 22 25 23 15 13 14 15
61 63 68 67 63 68 71 70 64 50 50 38 40 43 41 38 38 37 33 26 17 17 14 12 17 22 14 15 16 18 21 15 10 9 8 9 12 15 17 16 15 10 6 8 11 14 14
60 60 63 66 60 62 67 67 65 57 48 38 37 41 39 38 33 31 28 27 27 26 25 24 21 18 17 20 21 18 17 12 10 8 8 7 7 5 4 3 3 5 8 10 9 8 14
55 59 58 61 64 57 61 63 63 59 42 42 37 34 35 38 35 32 30 30 30 30 29 25 23 22 23 22 24 20 18 13 9 5 7 7 7 4 4 1 3 6 7 7 6 10 6
53 55 57 56 60 60 55 58 58 57 44 36 39 35 31 34 36 34 33 27 32 33 32 31 28 26 26 27 23 20 16 11 11 12 11 8 6 3 0 3 5 6 6 7 7 6 8
52 52 53 54 55 58 54 52 54 54 48 31 32 33 34 33 34 33 32 36 34 33 32 30 28 26 23 22 21 17 18 17 16 16 13 9 5 3 1 2 3 4 4 5 8 8 9
51 50 48 51 51 52 55 47 49 49 48 37 27 27 33 32 33 33 28 31 31 28 26 25 25 26 25 21 19 20 22 21 17 14 10 6 4 3 4 5 7 7 9 9 8 9 13
48 48 47 45 46 47 49 48 42 44 45 43 29 24 23 29 28 28 26 26 27 27 27 27 28 26 25 25 26 23 19 16 15 14 12 10 9 9 7 10 12 12 10 13 6 10 13
45 45 46 43 44 43 45 47 40 40 41 41 38 25 23 22 26 28 26 27 27 28 28 28 29 31 30 27 24 22 25 26 24 21 22 18 15 13 14 14 13 12 15 16 18 16 14
40 43 44 42 39 40 42 42 43 34 36 37 38 36 28 22 19 23 23 27 26 28 28 29 29 28 27 25 24 26 27 25 24 24 27 27 23 20 17 15 11 11 16 18 15 10 8
35 40 42 39 37 37 36 41 39 36 29 32 34 36 35 28 21 18 18 21 24 26 26 25 24 24 22 21 21 21 21 21 21 21 21 22 22 22 21 23 19 15 13 10 11 11 8
34 36 36 37 37 31 32 33 37 38 29 26 28 31 32 30 24 19 15 15 18 20 21 19 19 19 18 17 17 17 16 16 18 19 20 19 19 19 15 15 15 11 7 7 10 10 10
33 33 35 32 32 30 28 28 29 33 31 22 21 24 26 27 26 22 16 11 12 13 12 13 13 12 11 11 11 11 11 12 13 14 15 15 14 12 10 11 11 8 9 8 8 8 10
36 29 32 32 28 29 22 24 24 25 29 27 19 17 18 20 22 22 20 12 8 7 7 6 5 4 5 4 6 7 9 10 11 11 11 13 12 10 7 6 10 12 12 12 13 15 14
33 32 29 29 29 27 24 18 20 20 22 25 23 15 12 13 15 17 17 16 12 4 1 2 3 5 6 7 6 8 11 12 12 13 14 13 14 15 14 12 13 15 16 17 19 24 27
32 32 28 29 27 31 25 18 16 19 18 20 22 21 17 9 9 11 13 12 12 12 9 5 6 8 12 14 16 15 15 17 17 17 19 19 18 18 19 20 22 24 28 30 30 31 32
34 34 31 29 28 28 29 22 15 15 17 16 17 18 18 17 9 6 7 8 8 9 9 9 10 11 9 10 12 13 13 14 13 14 12 11 10 12 16 16 18 20 25 30 31 32 32
39 35 33 30 28 28 26 29 22 14 14 16 13 13 18 17 14 12 8 8 8 8 7 9 10 11 9 10 11 15 16 16 15 16 19 19 20 16 16 18 16 17 17 17 17 18 19
41 36 34 30 31 29 29 25 24 19 17 15 17 15 11 14 16 12 10 8 7 9 12 14 12 11 14 15 15 14 16 18 20 21 24 23 23 23 23 26 27 24 21 22 22 20 17

GFSGBSN_500_spd_114.txt.gz
Wind_Speed
68 59 66 73 80 75 60 57 60 58 47 42 16 8 10 1 4 5 5 9 9 7 15 28 36 37 40 39 46 52 34 38 55 52 49 48 47 47 45 43 42 42 40 39 39 39 37
71 61 67 75 80 75 60 55 59 57 49 37 30 16 11 10 12 7 5 6 8 7 12 23 33 36 39 37 39 41 50 45 44 47 49 47 46 45 44 43 43 41 41 40 39 40 39
73 65 67 75 80 76 64 54 57 60 54 47 37 17 9 7 8 10 3 3 4 9 7 19 28 37 37 34 32 33 36 40 41 41 41 47 47 46 44 42 42 41 40 40 40 40 40
73 71 68 74 79 78 66 55 58 61 58 58 45 18 11 12 10 12 8 7 2 2 5 15 26 30 30 32 29 28 30 32 34 32 35 36 39 46 47 47 43 40 38 39 39 40 39
71 74 68 74 79 79 67 57 59 59 62 69 52 13 17 25 21 17 11 9 4 12 12 11 21 22 29 24 20 25 24 29 28 27 25 26 29 33 36 39 40 39 37 36 38 38 38
68 75 72 72 78 79 69 60 62 58 63 74 50 21 33 30 28 19 18 14 22 34 17 31 29 26 24 24 22 28 27 24 28 32 24 23 26 28 31 33 33 33 33 33 33 33 33
65 72 76 71 76 78 70 61 61 57 63 73 46 40 41 33 30 21 18 15 12 16 22 21 29 31 27 22 22 27 23 23 24 27 24 21 23 24 25 26 26 26 26 26 27 28 28
64 68 74 72 74 77 71 61 58 56 59 67 47 43 40 36 29 25 20 21 22 15 19 23 26 24 20 21 24 27 27 21 22 23 22 21 20 21 21 20 21 23 24 24 26 28 30
64 64 70 74 71 75 73 62 56 55 54 57 38 34 33 30 27 24 21 19 19 23 19 21 19 21 18 17 22 23 23 24 21 18 16 16 17 18 18 18 19 21 22 25 27 30 32
62 64 65 71 69 72 73 62 56 50 52 50 49 35 26 24 25 24 20 15 15 13 13 10 11 10 13 13 20 22 21 21 19 15 14 14 13 14 16 18 19 21 22 25 28 29 32
61 63 62 67 70 68 71 64 52 53 48 47 44 41 38 26 12 10 8 8 7 6 5 3 3 7 12 13 18 21 21 21 18 16 13 11 11 12 14 17 19 20 23 24 26 29 16
59 60 62 63 67 63 67 66 52 49 49 47 42 39 36 36 31 27 23 20 14 13 16 18 20 14 13 18 18 20 19 18 14 11 11 12 14 15 16 17 18 18 18 16 12 12 14
57 57 59 59 63 63 61 62 56 47 48 46 45 40 38 37 33 29 27 24 22 23 25 21 19 22 23 21 23 20 15 13 12 13 12 8 7 10 11 8 6 5 7 9 11 10 13
53 56 56 57 57 62 56 57 56 48 42 44 44 44 39 38 37 36 35 31 29 29 30 29 30 30 29 23 21 18 14 11 10 7 6 6 7 4 7 5 4 5 7 9 8 11 9
48 53 54 54 53 56 56 52 53 49 43 40 42 43 40 40 38 38 38 34 38 37 35 35 33 31 29 25 21 18 14 11 9 7 9 9 6 4 2 2 4 4 6 5 4 5 6
45 46 51 50 50 50 54 47 49 47 43 36 38 39 38 34 34 34 29 30 33 32 31 29 28 28 26 23 21 19 18 17 15 13 10 6 4 1 3 5 4 1 1 3 2 1 4
42 45 46 46 46 45 48 49 43 44 44 40 35 34 37 36 33 32 28 33 35 35 32 30 29 28 27 24 22 19 17 15 13 10 8 5 2 1 4 7 9 8 8 6 6 8 8
46 42 44 42 41 42 42 46 38 39 40 43 39 33 33 34 35 32 31 33 34 34 35 33 33 30 26 23 22 20 18 16 14 12 11 11 12 14 13 12 11 10 11 12 13 11 9
40 39 43 39 39 37 38 40 43 32 35 36 40 35 32 30 31 30 30 30 30 32 31 31 30 29 29 29 29 30 26 21 20 20 19 18 17 14 13 14 13 14 17 16 11 8 7
42 43 43 42 38 35 34 34 37 36 29 31 33 34 32 27 27 26 25 25 26 25 26 26 27 27 27 26 26 25 27 27 26 23 24 22 23 19 17 15 15 15 13 10 8 7 7
45 42 41 38 38 32 29 29 30 34 30 25 27 29 30 26 20 20 20 20 20 20 21 22 21 21 22 21 21 22 23 25 25 23 23 21 19 20 18 15 11 7 9 10 10 10 10
41 38 37 37 34 31 29 25 25 27 30 24 21 23 23 25 22 14 12 14 14 14 14 16 16 16 16 15 15 17 17 18 18 18 18 17 17 15 15 13 11 11 12 12 10 11 13
40 36 37 36 33 34 32 24 22 21 24 28 22 16 17 18 19 18 11 7 7 8 7 8 9 10 11 13 12 13 12 12 12 12 11 11 9 8 8 8 9 9 13 12 13 15 18
38 38 33 32 32 33 36 30 19 18 17 20 22 18 11 12 13 14 14 10 7 6 6 6 7 8 9 11 14 15 18 18 16 14 12 10 7 6 7 8 9 11 13 15 17 20 23
42 39 33 30 32 31 32 31 26 18 18 16 17 19 18 8 7 8 9 9 9 8 8 7 8 9 12 13 13 17 19 19 19 20 20 17 14 14 14 14 16 18 22 23 25 29 31
41 37 31 30 31 32 29 31 26 21 17 14 15 15 17 17 12 7 6 7 7 6 7 7 7 7 8 10 11 11 13 15 15 14 15 14 13 14 18 19 20 22 26 30 33 34 37
42 37 33 31 31 31 29 27 30 24 21 17 14 13 13 16 17 14 9 9 9 8 8 8 8 7 6 7 9 11 11 11 12 14 17 17 19 19 21 23 22 21 23 24 25 27 28
42 38 33 34 31 29 29 29 29 28 23 19 19 15 14 15 16 16 15 11 11 12 13 14 14 14 11 11 10 12 12 14 14 14 14 17 17 19 22 25 27 27 28 29 30 31 30
41 38 34 33 34 27 26 26 30 31 29 21 21 20 19 16 16 17 17 16 13 13 13 13 14 17 18 17 17 17 17 18 19 18 23 20 23 21 22 24 27 29 32 36 36 36 34

GFSGBSN_500_spd_117.txt.gz
Wind_Speed
67 73 71 72 80 78 65 60 56 58 53 40 19 18 18 9 9 13 7 8 7 6 16 28 33 35 35 35 35 39 34 38 52 50 51 50 49 47 46 44 43 43 41 39 38 36 36
66 73 75 75 80 77 67 62 64 71 65 26 11 15 16 13 8 8 8 9 8 6 10 26 30 38 38 32 35 34 31 29 36 50 49 47 47 46 45 43 43 42 42 41 40 39 38
66 71 76 75 80 75 67 66 72 80 65 16 4 3 20 19 15 11 8 6 8 4 10 25 32 36 42 42 43 41 33 33 34 35 43 50 46 43 43 43 43 43 43 43 42 42 41
67 71 76 75 80 72 66 68 74 75 63 34 14 31 30 26 26 21 11 6 7 5 12 25 34 31 37 32 39 39 38 36 32 28 26 33 40 48 47 44 43 43 43 43 43 43 43
66 70 75 74 79 70 66 67 69 66 65 53 46 39 33 31 24 19 18 18 16 16 15 20 27 36 36 29 29 34 35 37 37 34 33 29 29 31 36 44 47 47 45 44 44 44 44
65 68 73 73 78 68 64 64 63 56 53 46 41 38 33 26 23 21 26 27 27 28 20 19 22 24 26 28 31 29 33 31 31 29 29 26 28 30 32 34 39 40 43 45 47 44 45
64 67 71 72 75 69 62 62 61 58 42 42 36 34 26 23 22 28 34 29 25 29 28 28 29 26 26 18 24 25 28 31 30 28 26 23 24 25 27 30 32 34 34 36 36 35 34
64 65 68 71 71 72 60 59 58 54 55 34 35 27 24 25 20 27 29 28 31 28 29 32 27 25 20 20 22 22 23 21 20 22 23 15 13 17 21 23 24 24 25 26 26 26 27
64 63 64 68 67 70 59 57 58 55 50 51 31 28 24 21 22 21 27 27 30 29 29 28 26 23 20 17 19 18 20 18 16 17 18 16 14 12 14 15 16 18 20 21 22 24 28
60 63 62 64 65 67 62 55 56 56 51 49 45 31 23 20 19 20 20 20 20 19 20 26 24 19 19 19 21 21 21 17 17 15 15 13 12 12 12 14 16 18 19 21 23 24 28
54 60 60 60 63 63 63 53 53 55 56 51 46 39 34 27 15 10 9 8 7 6 10 19 21 21 21 19 20 21 23 19 15 13 12 11 10 10 11 13 15 18 20 23 24 26 27
52 55 59 58 59 58 61 56 49 50 50 53 52 45 39 31 27 23 21 19 15 11 16 17 21 22 20 20 19 21 21 18 16 13 11 10 8 9 11 14 17 19 22 23 25 26 24
50 52 56 55 55 56 55 57 48 47 47 45 46 44 43 42 35 28 27 25 21 21 26 22 23 24 22 21 20 19 18 16 13 11 9 7 8 10 14 18 19 20 19 16 14 15 17
50 49 52 54 52 52 50 52 51 43 45 47 44 42 40 39 38 39 37 32 33 33 29 28 26 23 21 22 22 17 12 11 10 8 8 10 9 9 13 6 5 6 8 10 13 13 15
49 51 56 50 49 48 49 46 50 46 41 43 45 42 40 38 37 35 33 30 35 36 37 34 31 27 21 17 11 12 11 11 10 9 5 3 3 5 3 5 7 9 9 9 12 12 11
49 54 55 53 46 45 45 42 44 45 41 37 39 40 38 38 38 37 31 36 35 34 32 30 29 26 22 19 16 14 11 9 7 6 7 6 4 3 5 8 9 8 7 6 7 6 3
46 50 50 50 50 42 41 42 37 41 40 35 30 32 35 34 36 35 30 33 32 31 29 28 26 24 21 18 16 15 15 13 10 7 4 0 1 0 2 6 5 2 1 2 6 7 4
42 45 45 48 47 41 38 38 38 34 36 36 29 26 28 30 32 32 30 30 30 30 29 27 25 24 21 18 17 15 15 12 10 9 10 11 11 10 9 8 6 6 9 10 8 6 5
37 42 42 41 42 41 38 34 34 32 29 32 31 24 23 23 25 27 28 29 28 28 29 30 30 27 29 25 23 23 22 19 18 17 15 13 13 11 10 12 13 14 11 7 4 3 5
35 38 39 42 40 40 40 29 28 30 26 25 27 26 20 18 18 21 22 24 26 25 25 24 23 23 24 25 24 22 21 20 20 20 19 18 16 16 15 13 12 11 9 7 6 5 5
35 37 40 39 38 37 38 37 23 25 27 24 21 23 23 18 12 14 16 17 18 18 19 19 19 20 20 20 20 20 19 19 18 18 16 15 15 13 11 8 9 11 9 9 10 11 13
31 33 39 39 37 34 35 34 29 22 23 24 22 16 19 19 16 11 9 10 12 13 14 14 15 15 14 15 15 16 15 14 13 12 13 11 10 8 7 7 8 8 9 10 11 13 17
33 36 37 37 33 32 31 33 28 21 16 15 20 20 13 13 15 13 11 9 8 9 9 10 12 13 13 14 13 10 10 9 9 8 7 6 8 8 10 10 11 13 16 19 20 23 24
41 40 37 36 33 28 31 29 30 24 21 16 15 17 19 13 11 13 12 10 10 9 8 9 10 10 11 11 12 12 13 11 8 8 8 7 9 12 13 15 16 18 21 24 26 29 32
41 35 34 33 33 29 27 31 29 26 24 23 15 15 17 18 16 13 13 12 12 11 11 11 11 12 12 11 9 9 9 8 8 8 7 6 7 10 14 18 19 23 25 26 30 32 34
35 33 31 33 32 31 29 29 29 28 24 23 21 15 11 17 16 17 16 15 15 13 12 12 13 13 14 15 15 13 11 13 10 9 13 11 11 12 12 14 14 15 17 19 21 26 26
37 38 36 33 32 30 30 30 28 26 27 23 21 22 20 14 16 18 17 17 16 16 16 16 16 17 17 15 16 18 16 18 16 15 15 18 19 20 22 22 20 25 24 27 28 32 32
43 41 40 39 34 30 30 31 29 26 25 26 25 20 23 25 21 19 20 18 17 15 15 15 15 17 18 20 20 21 21 22 23 22 23 22 24 19 21 23 22 20 24 27 31 32 35
50 47 44 42 41 34 33 33 32 28 25 27 28 26 23 23 26 25 24 24 22 20 18 18 19 18 18 18 17 17 18 17 18 16 20 21 19 18 19 22 23 25 27 28 30 31 32

GFSGBSN_500_spd_120.txt.gz
Wind_Speed
65 70 77 78 84 79 72 76 74 74 25 19 9 11 11 13 13 15 12 11 10 13 21 30 57 46 50 46 28 34 34 43 50 52 51 49 48 46 45 44 42 41 39 38 36 35 35
66 70 76 78 83 76 70 67 65 71 36 31 27 22 15 22 18 12 9 7 9 7 19 31 44 54 35 37 32 31 28 32 38 48 52 49 48 47 44 41 43 40 37 39 37 36 35
65 70 75 77 80 73 67 64 58 58 56 45 37 28 23 20 14 7 4 5 5 8 18 28 39 27 43 29 30 29 31 26 29 36 47 48 47 45 44 43 42 41 40 40 40 38 37
65 69 73 76 76 71 65 65 53 50 51 48 44 38 28 22 17 11 6 2 5 6 19 31 34 32 37 25 35 32 26 27 26 30 31 42 44 42 41 41 40 41 42 42 42 42 40
64 67 72 73 72 70 65 62 53 45 43 38 35 29 24 21 21 22 11 14 13 14 21 28 33 37 34 33 30 34 34 24 26 25 26 32 40 41 43 44 43 43 43 43 43 43 44
63 65 70 70 69 68 66 60 58 46 38 34 31 28 28 36 34 29 28 23 25 24 20 28 30 36 34 27 33 38 33 25 26 24 24 22 25 29 36 42 44 45 45 46 48 45 45
60 63 67 67 68 65 64 64 60 55 39 32 33 33 31 32 37 36 34 33 27 26 23 20 19 21 30 24 30 33 34 35 25 26 26 26 25 27 28 29 31 32 37 41 42 41 42
60 63 64 65 66 62 61 59 61 60 51 36 31 31 33 32 33 37 41 34 33 28 31 28 24 19 21 23 22 27 29 29 29 27 24 23 20 20 21 23 25 26 28 32 32 32 30
60 60 61 64 62 62 61 56 56 57 58 46 39 30 26 23 24 28 32 36 34 30 29 26 24 19 20 19 21 20 23 24 25 23 20 15 15 13 15 16 18 19 20 20 22 20 23
63 63 60 60 59 61 59 55 54 54 54 52 45 36 33 29 20 15 20 29 30 27 26 27 21 20 19 17 19 19 20 18 18 17 19 15 11 10 9 10 11 11 12 13 15 16 19
60 62 59 57 58 56 58 51 53 52 52 50 47 44 34 28 25 21 15 25 27 24 25 21 18 19 17 17 17 16 16 17 16 16 16 13 11 9 8 8 8 9 11 13 15 17 19
56 59 61 53 54 52 55 51 47 51 51 51 48 46 43 38 33 27 25 22 26 27 26 25 20 17 16 15 18 19 17 16 16 16 14 13 10 8 6 6 7 10 13 15 17 21 24
52 56 59 53 50 52 50 52 41 44 48 50 50 50 48 42 41 40 29 25 24 24 27 26 25 19 20 21 21 21 19 16 14 12 11 9 6 4 5 7 11 15 18 20 22 25 29
49 52 55 56 47 48 47 47 47 37 42 45 47 48 48 47 45 42 39 27 20 23 25 25 24 23 20 19 18 16 14 12 10 9 6 4 3 4 7 11 13 12 13 14 13 15 14
42 46 49 51 52 45 46 42 44 42 35 39 42 44 45 45 43 42 37 32 26 26 24 21 19 17 18 16 13 11 9 7 6 3 1 3 4 3 1 3 4 6 8 10 10 10 8
40 40 44 47 48 45 42 43 38 40 38 33 35 38 41 43 42 40 33 35 34 30 25 21 19 17 14 11 9 8 7 5 3 3 4 4 3 2 6 7 6 7 7 7 7 6 2
36 38 42 44 44 44 35 38 39 35 37 34 30 31 35 37 40 40 35 36 34 29 25 22 20 18 16 15 15 12 10 9 8 6 3 2 1 2 3 4 2 2 2 1 5 5 2
33 35 38 41 42 41 41 29 35 35 31 33 32 27 27 31 32 33 34 34 35 35 33 29 24 22 19 17 15 13 11 10 9 9 8 8 7 7 7 6 5 6 8 7 4 1 3
31 32 35 40 41 39 37 37 27 33 33 27 29 29 23 23 24 25 27 28 28 29 29 29 28 28 26 23 20 19 17 16 14 14 13 11 10 11 12 11 10 8 5 2 1 2 3
28 30 32 37 40 38 37 33 28 23 27 29 24 25 25 23 19 18 18 20 22 23 24 24 23 24 23 22 22 21 20 16 15 15 15 14 12 10 9 7 6 7 6 4 4 3 5
27 29 32 37 35 35 34 34 29 24 19 23 26 22 20 22 21 19 15 14 13 14 15 17 18 17 17 17 16 15 14 13 12 11 10 9 7 5 3 2 4 5 7 8 10 14 16
29 28 33 35 32 29 30 32 32 27 25 19 20 24 23 17 19 19 19 18 16 13 11 10 10 10 8 8 7 8 9 9 8 7 7 7 6 7 9 8 8 9 12 14 16 19 20
31 36 33 29 29 29 28 28 32 31 26 24 18 12 20 22 16 16 17 17 17 16 15 15 13 12 10 9 9 8 8 6 6 7 8 11 12 12 15 16 17 17 20 22 24 27 30
31 27 28 26 27 27 27 25 26 31 31 23 22 15 10 15 19 18 15 15 15 15 15 15 15 14 14 13 12 11 10 9 7 7 8 10 12 14 15 19 19 21 25 26 27 29 31
35 31 28 27 26 27 26 27 28 27 31 30 21 17 14 12 14 19 18 16 15 16 16 15 15 16 17 16 14 14 13 13 15 13 14 12 12 13 13 12 11 15 20 22 24 25 28
42 38 32 29 28 27 27 26 26 30 28 29 28 19 15 16 14 14 19 21 18 16 16 19 19 19 17 18 17 18 18 19 15 16 18 20 21 21 23 22 18 22 22 24 25 23 28
48 48 44 38 35 30 29 29 28 29 29 29 30 28 20 15 17 16 15 17 20 20 17 17 18 20 20 19 18 18 17 19 21 22 21 23 24 24 26 25 19 21 20 23 24 27 28
54 52 53 49 42 38 32 29 31 32 31 30 30 30 32 24 18 17 18 18 19 19 21 21 20 21 23 24 23 22 19 19 19 19 20 20 20 18 17 21 23 21 22 24 26 27 30
53 49 47 52 50 43 39 34 31 31 35 34 33 31 31 33 28 21 19 20 21 22 24 24 24 24 24 25 26 27 24 24 22 19 21 20 25 23 24 21 27 25 27 28 28 29 30

GFSGBSN_500_spd_123.txt.gz
Wind_Speed
62 67 71 78 77 69 64 52 60 48 42 43 43 38 28 24 21 16 14 13 18 21 38 54 52 43 25 25 25 33 42 51 56 54 52 50 49 46 44 42 41 40 39 36 34 33 33
62 67 70 76 73 70 63 46 48 46 43 39 37 31 26 21 16 10 6 8 16 25 28 51 61 38 30 21 30 31 39 49 52 51 51 49 47 46 43 42 40 37 36 37 35 35 35
62 67 68 72 70 70 63 54 39 39 38 40 38 38 33 25 17 12 9 2 3 18 27 27 39 30 27 24 24 25 22 42 45 45 48 46 45 43 42 42 41 39 39 39 37 37 37
61 65 66 69 65 66 64 58 50 36 36 35 40 46 43 31 25 9 11 6 6 6 29 24 35 31 21 20 20 23 22 25 36 44 43 46 48 44 43 42 42 40 39 39 39 39 39
59 64 64 66 61 63 62 60 55 42 38 36 40 41 45 38 33 26 20 15 12 14 23 28 27 31 20 18 21 21 25 25 27 31 35 37 42 44 40 40 40 40 40 40 40 40 40
59 61 63 64 58 61 60 57 56 47 35 34 33 35 42 37 36 33 32 25 22 24 27 28 22 29 25 20 23 16 17 23 25 24 28 33 35 41 42 42 41 41 39 40 40 40 41
62 57 61 62 58 58 58 58 54 54 45 42 35 31 36 40 34 37 41 33 27 26 24 29 38 33 25 23 25 27 20 20 22 22 25 28 30 32 33 35 37 38 39 42 43 42 41
64 56 58 58 60 52 57 58 57 53 50 46 39 38 25 33 34 37 36 34 30 25 19 24 22 27 25 27 23 25 24 19 23 24 22 20 24 23 23 24 25 27 29 29 32 36 36
60 63 56 58 57 53 53 56 57 58 55 49 47 40 34 29 32 35 34 35 30 30 25 23 20 20 19 11 14 18 19 18 21 17 15 16 18 18 18 19 20 20 20 22 25 26 26
56 61 59 55 55 55 48 52 56 57 58 56 52 49 36 29 34 31 31 29 29 29 26 24 22 21 15 17 15 15 16 17 19 15 15 16 16 14 14 15 15 13 15 15 14 16 17
52 57 59 53 54 51 52 47 51 54 57 57 59 58 45 31 34 34 29 26 28 25 28 27 21 21 21 18 19 18 16 16 17 16 18 16 14 11 10 9 8 10 8 11 12 15 16
47 52 53 55 48 51 51 48 46 51 53 55 55 58 52 33 25 28 31 30 28 28 31 28 25 23 19 20 21 21 20 19 19 19 15 14 13 12 9 8 7 6 9 12 14 17 18
43 45 49 49 50 47 48 49 44 45 49 52 52 52 52 43 25 24 27 29 28 31 30 28 28 25 24 23 22 20 19 19 19 17 16 14 12 10 8 7 8 9 11 15 17 19 20
41 42 45 48 48 42 45 45 46 42 44 46 49 50 47 48 44 34 26 25 19 24 27 26 25 27 26 24 22 19 17 16 15 13 10 8 6 3 1 4 9 12 15 18 21 20 17
35 39 42 44 45 45 38 42 41 43 40 41 42 47 46 45 43 42 33 30 31 28 23 21 19 18 19 16 13 12 11 11 9 8 6 3 2 3 3 2 2 4 5 5 6 4 5
31 34 37 42 42 41 39 36 39 38 39 36 37 38 40 42 45 44 34 38 35 32 30 25 22 17 14 13 14 12 10 9 8 8 8 6 4 2 1 4 3 4 3 3 3 2 4
29 29 32 37 39 37 37 32 33 37 35 35 33 31 32 35 39 40 37 39 39 36 31 26 24 22 21 18 16 15 14 11 9 7 6 6 6 6 5 4 3 2 3 5 6 5 2
30 28 29 33 37 34 33 33 32 31 33 31 30 28 25 27 30 30 33 35 36 36 35 33 31 29 25 22 19 17 16 15 14 13 11 10 9 8 8 9 9 9 7 5 2 1 3
33 28 28 31 34 31 30 29 30 31 29 29 29 26 27 25 22 23 24 25 27 28 28 28 28 27 28 26 22 22 21 18 16 14 11 10 9 9 9 8 6 3 1 1 2 3 4
32 30 29 32 32 28 27 27 27 28 30 27 25 27 22 23 23 21 20 19 19 19 19 19 20 20 20 19 18 17 16 15 15 14 12 9 7 5 4 3 2 2 2 3 5 7 9
31 28 27 28 27 27 27 26 25 25 26 27 23 22 24 20 18 19 19 19 19 17 16 15 13 11 11 12 11 11 10 9 8 7 5 4 3 4 5 6 6 7 9 10 14 17 18
31 28 25 24 22 22 23 25 24 24 24 23 23 19 18 21 20 17 15 15 15 16 17 16 15 15 14 13 11 9 9 8 8 8 8 11 9 11 15 13 14 14 19 21 20 21 26
31 27 22 24 24 22 23 23 24 23 25 24 20 20 17 16 19 20 19 16 12 12 11 12 13 13 14 14 13 13 13 11 8 8 10 12 15 15 13 21 21 21 22 23 24 25 25
33 29 24 22 24 22 21 22 21 22 22 25 23 18 18 17 13 16 18 19 17 16 13 10 9 10 11 12 13 12 12 13 14 14 14 14 12 12 10 13 14 18 20 20 21 25 28
35 33 31 28 25 25 26 25 25 22 21 21 23 22 18 18 16 15 15 16 18 17 16 15 13 12 12 12 13 14 15 15 17 17 21 20 20 19 19 17 14 20 23 23 19 18 21
40 38 37 37 35 34 31 29 26 28 26 23 20 21 22 19 19 17 16 15 16 19 19 19 16 15 14 12 13 12 13 15 13 15 19 22 24 22 25 21 17 18 16 17 19 18 19
44 43 42 43 42 42 41 37 31 27 28 27 26 23 22 22 22 22 18 18 17 16 19 22 23 21 20 19 18 16 14 17 17 19 19 20 21 19 20 21 15 21 23 22 22 22 24
49 49 50 48 49 45 41 39 37 32 30 30 29 26 25 24 23 24 26 21 21 20 18 17 20 23 24 23 22 22 21 20 20 21 19 21 22 23 25 25 23 23 22 25 27 27 27
59 59 55 55 54 51 46 39 40 36 34 34 33 30 29 29 26 26 28 32 29 27 20 21 21 19 20 23 23 22 22 22 23 21 24 25 27 25 27 25 30 26 28 29 30 31 31